[[{"header":{"parameterUnit":"m.s-1","parameterCategory":1,"la1":31.0,"la2":29.5877,"lo1":-88.7671,"lo2":-86.6584,"dy":0.0162,"dx":0.0185,"nx":115,"ny":88,"refTime":"2024-09-11T06:00:00:Z","depth":0,"parameterNumber":2,"parameterNumberName":"U-component_of_WINDS"},"data":[0.0,0.0,0.0,0.0,0.0,0.0,0.0,0.0,0.0,0.0,0.0,0.0,0.0,0.0,0.0,0.0,0.0,0.0,0.0,0.0,0.0,0.0,0.0,0.0,0.0,0.0,0.0,0.0,0.0,0.0,0.0,0.0,0.0,0.0,0.0,0.0,0.0,0.0,0.0,0.0,0.0,0.0,0.0,0.0,0.0,0.0,0.0,0.0,0.0,0.0,0.0,0.0,0.0,0.0,0.0,0.0,0.0,0.0,0.0,0.0,0.0,0.0,0.0,0.0,0.0,0.0,0.0,0.0,0.0,0.0,0.0,0.0,0.0,0.0,0.0,0.0,0.0,0.0,0.0,0.0,0.0,0.0,0.0,0.0,0.0,0.0,0.0,0.0,0.0,0.0,0.0,0.0,0.0,0.0,0.0,0.0,0.0,0.0,0.0,0.0,0.0,0.0,0.0,0.0,0.0,0.0,0.0,0.0,0.0,0.0,0.0,0.0,0.0,0.0,0.0,0.0,0.0,0.0,0.0,0.0,0.0,0.0,0.0,0.0,0.0,0.0,0.0,0.0,0.0,0.0,0.0,0.0,0.0,0.0,0.0,0.0,0.0,0.0,0.0,0.0,0.0,0.0,0.0,0.0,0.0,0.0,0.0,0.0,0.0,0.0,0.0,0.0,0.0,0.0,0.0,0.0,0.0,0.0,0.0,0.0,0.0,0.0,0.0,0.0,0.0,0.0,0.0,0.0,0.0,0.0,0.0,0.0,0.0,0.0,0.0,0.0,0.0,0.0,0.0,0.0,0.0,0.0,0.0,0.0,0.0,0.0,0.0,0.0,0.0,0.0,0.0,0.0,0.0,0.0,0.0,0.0,0.0,0.0,0.0,0.0,0.0,0.0,0.0,0.0,0.0,0.0,0.0,0.0,0.0,0.0,0.0,0.0,0.0,0.0,0.0,0.0,0.0,0.0,0.0,0.0,0.0,0.0,0.0,0.0,0.0,0.0,0.0,0.0,0.0,0.0,0.0,0.0,0.0,0.0,0.0,0.0,0.0,0.0,0.0,0.0,0.0,0.0,0.0,0.0,0.0,0.0,0.0,0.0,0.0,0.0,0.0,0.0,0.0,0.0,0.0,0.0,0.0,0.0,0.0,0.0,0.0,0.0,0.0,0.0,0.0,0.0,0.0,0.0,0.0,0.0,0.0,0.0,0.0,0.0,0.0,0.0,0.0,0.0,0.0,0.0,0.0,0.0,0.0,0.0,0.0,0.0,0.0,0.0,0.0,0.0,0.0,0.0,0.0,0.0,0.0,0.0,0.0,0.0,0.0,0.0,0.0,0.0,0.0,0.0,0.0,0.0,0.0,0.0,0.0,0.0,0.0,0.0,0.0,0.0,0.0,0.0,0.0,0.0,0.0,0.0,0.0,0.0,0.0,0.0,0.0,0.0,0.0,0.0,0.0,0.0,0.0,0.0,0.0,0.0,0.0,0.0,0.0,0.0,0.0,0.0,0.0,0.0,0.0,0.0,0.0,0.0,0.0,0.0,0.0,0.0,0.0,0.0,0.0,0.0,0.0,0.0,0.0,0.0,0.0,0.0,0.0,0.0,0.0,0.0,0.0,0.0,0.0,0.0,0.0,0.0,0.0,0.0,0.0,0.0,0.0,0.0,0.0,0.0,0.0,0.0,0.0,0.0,0.0,0.0,0.0,0.0,0.0,0.0,0.0,0.0,0.0,0.0,0.0,0.0,0.0,0.0,0.0,0.0,0.0,0.0,0.0,0.0,0.0,0.0,0.0,0.0,0.0,0.0,0.0,0.0,0.0,0.0,0.0,0.0,0.0,0.0,0.0,0.0,0.0,0.0,0.0,0.0,0.0,0.0,0.0,0.0,0.0,0.0,0.0,0.0,0.0,0.0,0.0,0.0,0.0,0.0,0.0,0.0,0.0,0.0,0.0,0.0,0.0,0.0,0.0,0.0,0.0,0.0,0.0,0.0,0.0,0.0,0.0,0.0,0.0,0.0,0.0,0.0,0.0,0.0,0.0,0.0,0.0,0.0,0.0,0.0,0.0,0.0,0.0,0.0,0.0,0.0,0.0,0.0,0.0,0.0,0.0,0.0,0.0,0.0,0.0,0.0,0.0,0.0,0.0,0.0,0.0,0.0,0.0,0.0,0.0,0.0,0.0,0.0,0.0,0.0,0.0,0.0,0.0,0.0,0.0,0.0,0.0,0.0,0.0,0.0,0.0,0.0,0.0,0.0,0.0,0.0,0.0,0.0,0.0,0.0,0.0,0.0,0.0,0.0,0.0,0.0,0.0,0.0,0.0,0.0,0.0,0.0,0.0,0.0,0.0,0.0,0.0,0.0,0.0,0.0,0.0,0.0,0.0,0.0,0.0,0.0,0.0,0.0,0.0,0.0,0.0,0.0,0.0,0.0,0.0,0.0,0.0,0.0,0.0,0.0,0.0,0.0,0.0,0.0,0.0,0.0,0.0,0.0,0.0,0.0,0.0,0.0,0.0,0.0,0.0,0.0,0.0,0.0,0.0,0.0,0.0,0.0,0.0,0.0,0.0,0.0,0.0,0.0,0.0,0.0,0.0,0.0,0.0,0.0,0.0,0.0,0.0,0.0,0.0,0.0,0.0,0.0,0.0,0.0,0.0,0.0,0.0,0.0,0.0,0.0,0.0,0.0,0.0,0.0,0.0,0.0,0.0,0.0,0.0,0.0,0.0,0.0,0.0,0.0,0.0,0.0,0.0,0.0,0.0,0.0,0.0,0.0,0.0,0.0,0.0,0.0,0.0,0.0,0.0,0.0,0.0,0.0,0.0,0.0,0.0,0.0,0.0,0.0,0.0,0.0,0.0,0.0,0.0,0.0,0.0,0.0,0.0,0.0,0.0,0.0,0.0,0.0,0.0,0.0,0.0,0.0,0.0,0.0,0.0,0.0,0.0,0.0,0.0,0.0,0.0,0.0,0.0,0.0,0.0,0.0,0.0,0.0,0.0,0.0,0.0,0.0,0.0,0.0,0.0,0.0,0.0,0.0,0.0,0.0,0.0,0.0,0.0,0.0,0.0,0.0,0.0,0.0,0.0,0.0,0.0,0.0,0.0,0.0,0.0,0.0,0.0,0.0,0.0,0.0,0.0,0.0,0.0,0.0,0.0,0.0,0.0,0.0,0.0,0.0,0.0,0.0,0.0,0.0,0.0,0.0,0.0,0.0,0.0,0.0,0.0,0.0,0.0,0.0,0.0,0.0,0.0,0.0,0.0,0.0,0.0,0.0,0.0,0.0,0.0,0.0,0.0,0.0,0.0,0.0,0.0,0.0,0.0,0.0,0.0,0.0,0.0,0.0,0.0,0.0,0.0,0.0,0.0,0.0,0.0,0.0,0.0,0.0,0.0,0.0,0.0,0.0,0.0,0.0,0.0,0.0,0.0,0.0,0.0,0.0,0.0,0.0,0.0,0.0,0.0,0.0,0.0,0.0,0.0,0.0,0.0,0.0,0.0,0.0,0.0,0.0,0.0,0.0,0.0,0.0,0.0,0.0,0.0,0.0,0.0,0.0,0.0,0.0,0.0,0.0,0.0,0.0,0.0,0.0,0.0,0.0,0.0,0.0,0.0,0.0,0.0,0.0,0.0,0.0,0.0,0.0,0.0,0.0,0.0,0.0,0.0,0.0,0.0,0.0,0.0,0.0,0.0,0.0,0.0,0.0,0.0,0.0,0.0,0.0,0.0,0.0,0.0,0.0,0.0,0.0,0.0,0.0,0.0,0.0,0.0,0.0,0.0,0.0,0.0,0.0,0.0,0.0,0.0,0.0,0.0,0.0,0.0,0.0,0.0,0.0,0.0,0.0,0.0,0.0,0.0,0.0,0.0,0.0,0.0,0.0,0.0,0.0,0.0,0.0,0.0,0.0,0.0,0.0,0.0,0.0,0.0,0.0,0.0,0.0,0.0,0.0,0.0,0.0,0.0,0.0,0.0,0.0,0.0,0.0,0.0,0.0,0.0,0.0,0.0,0.0,0.0,0.0,0.0,0.0,0.0,0.0,0.0,0.0,0.0,0.0,0.0,0.0,0.0,0.0,0.0,0.0,0.0,0.0,0.0,0.0,0.0,0.0,0.0,0.0,0.0,0.0,0.0,0.0,0.0,0.0,0.0,0.0,0.0,0.0,0.0,0.0,0.0,0.0,0.0,0.0,0.0,0.0,0.0,0.0,0.0,0.0,0.0,0.0,0.0,0.0,0.0,0.0,0.0,0.0,0.0,0.0,1.0662,0.0,0.0,0.0,0.0,0.0,0.0,0.0,0.0,0.0,0.0,0.0,0.0,0.0,0.0,0.0,0.0,0.0,0.0,0.0,0.0,0.0,0.0,0.0,0.0,0.0,0.0,0.0,0.0,0.0,0.0,0.0,0.0,0.0,0.0,0.0,0.0,0.0,0.0,0.0,0.0,0.0,0.0,0.0,0.0,0.0,0.0,0.0,0.0,0.0,0.0,0.0,0.0,0.0,0.0,0.0,0.0,0.0,0.0,0.0,0.0,0.0,0.0,0.0,0.0,0.0,0.0,0.0,0.0,0.0,0.0,0.0,0.0,0.0,0.0,0.0,0.0,0.0,0.0,0.0,0.0,0.0,0.0,0.0,0.0,0.0,0.0,0.0,0.0,0.0,0.0,0.0,0.0,0.0,0.0,0.0,0.0,0.0,0.0,0.0,0.0,0.0,0.0,0.0,0.0,0.0,0.0,0.0,0.0,0.0,0.0,1.088,1.0843,1.1241,1.115,1.0365,0.0,0.0,0.0,0.0,0.0,0.0,0.0,0.0,0.0,0.0,0.0,0.0,0.0,0.0,0.0,0.0,0.0,0.0,0.0,0.0,0.0,0.0,0.0,0.0,0.0,0.0,0.0,0.0,0.0,0.0,0.0,0.0,0.0,0.0,0.0,0.0,0.0,0.0,0.0,0.0,0.0,0.0,0.0,0.0,0.0,0.0,0.0,0.0,0.0,0.0,0.0,0.0,0.0,0.0,0.0,0.0,0.0,0.0,0.0,0.0,0.0,0.0,0.0,0.0,0.0,0.0,0.0,0.0,0.0,0.0,0.0,0.0,0.0,0.0,0.0,0.0,0.0,0.0,0.0,0.0,0.0,0.0,0.0,0.0,0.0,0.0,0.0,0.0,0.0,0.0,0.0,0.0,0.0,0.0,0.0,0.0,0.0,0.0,0.0,0.0,0.0,0.0,0.0,0.0,0.0,0.0,0.0,0.0,0.0,0.0,0.0,0.0,1.1288,1.1158,1.0369,0.0,0.0,0.0,0.0,0.0,0.0,0.0,0.0,0.0,0.0,0.0,0.0,0.0,0.0,0.0,0.0,0.0,0.0,0.0,0.0,0.0,0.0,0.0,0.0,0.0,0.0,0.0,0.0,0.0,0.0,0.0,0.0,0.0,0.0,0.0,0.0,0.0,0.0,0.0,0.0,0.0,0.0,0.0,0.0,0.0,0.0,0.0,0.0,0.0,0.0,0.0,0.0,0.0,0.0,0.0,0.0,0.0,0.0,0.0,0.0,0.0,0.0,0.0,0.0,0.0,0.0,0.0,0.0,0.0,0.0,0.0,0.0,0.0,0.0,0.0,0.0,0.0,0.0,0.0,0.0,0.0,0.0,0.0,0.0,0.0,0.0,0.0,0.0,0.0,0.0,0.0,0.0,0.0,0.0,0.0,0.0,0.0,0.0,0.0,0.0,0.0,0.0,0.0,0.0,0.0,0.0,0.0,0.0,0.0,0.0,1.0589,1.1495,1.1576,0.0,1.1003,0.0,0.0,0.0,0.0,0.0,0.0,0.0,0.0,0.0,0.0,0.0,0.0,0.0,0.0,0.0,0.0,0.0,0.0,0.0,0.0,0.0,0.0,0.0,0.0,0.0,0.0,0.0,0.0,0.0,0.0,0.0,0.0,0.0,0.0,0.0,0.0,0.0,0.0,0.0,0.0,0.0,0.0,0.0,0.0,0.0,0.0,0.0,0.0,0.0,0.0,0.0,0.0,0.0,0.0,0.0,0.0,0.0,0.0,0.0,0.0,0.0,0.0,0.0,0.0,0.0,0.0,0.0,0.0,0.0,0.0,0.0,0.0,0.0,0.0,0.0,0.0,0.0,0.0,0.0,0.0,0.0,0.0,0.0,0.0,0.0,0.0,0.0,0.0,0.0,0.0,0.0,0.0,0.0,0.0,0.0,0.0,0.0,0.0,0.0,0.0,0.0,0.0,0.0,0.0,0.0,0.0,0.0,0.0,0.0,0.0,1.0703,1.1303,1.1303,1.1067,0.0,0.0,0.0,0.0,0.0,0.0,0.0,0.0,0.0,0.0,0.0,0.0,0.0,0.0,0.0,0.0,0.0,0.0,0.0,0.0,0.0,0.0,0.0,0.0,0.0,0.0,0.0,0.0,0.0,0.0,0.0,0.0,0.0,0.0,0.0,0.0,0.0,0.0,0.0,0.0,0.0,0.0,0.0,0.0,0.0,0.0,0.0,0.0,0.0,0.0,0.0,0.0,0.0,0.0,0.0,0.0,0.0,0.0,0.0,0.0,0.0,0.0,0.0,0.0,0.0,0.0,0.0,0.0,0.0,0.0,0.0,0.0,0.0,0.0,0.0,0.0,0.0,0.0,0.0,0.0,0.0,0.0,0.0,0.0,0.0,0.0,0.0,0.0,0.0,0.0,0.0,0.0,0.0,0.0,0.0,0.0,0.0,0.0,0.0,0.0,0.0,0.0,0.0,0.0,0.0,0.0,0.0,0.0,0.0,0.0,1.0534,1.0877,1.1402,1.1122,1.0701,1.0241,0.0,0.0,0.0,0.0,0.0,0.0,0.0,0.0,0.0,0.0,0.0,0.0,0.0,0.0,0.0,0.0,0.0,0.0,0.0,0.0,0.0,0.0,0.0,0.0,0.0,0.0,0.0,0.0,0.0,0.0,0.0,0.0,0.0,0.0,0.0,0.0,0.0,0.0,0.0,0.0,0.0,0.0,0.0,0.0,0.0,0.0,0.0,0.0,0.0,0.0,0.0,0.0,0.0,0.0,0.0,0.0,0.0,0.0,0.0,0.0,0.0,0.0,0.0,0.0,0.0,0.0,0.0,0.0,0.0,0.0,0.0,0.0,0.0,0.0,0.0,0.0,0.0,0.0,0.0,0.0,0.0,0.0,0.0,0.0,0.0,0.0,0.0,0.0,0.0,0.0,0.0,0.0,0.0,0.0,0.0,0.0,0.0,0.0,0.0,0.0,0.0,0.0,0.0,0.0,0.0,0.0,0.0,0.0,1.1986,1.1138,1.1146,1.2155,1.1174,1.0604,0.0,0.0,0.0,0.0,0.0,0.0,0.0,0.0,0.0,0.0,0.0,0.0,0.0,0.0,0.0,0.0,0.0,0.0,0.0,0.0,0.0,0.0,0.0,0.0,0.0,0.0,0.0,0.0,0.0,0.0,0.0,0.0,0.0,0.0,0.0,0.0,0.0,0.0,0.0,0.0,0.0,0.0,0.0,0.0,0.0,0.0,0.0,0.0,0.0,0.0,0.0,0.0,0.0,0.0,0.0,0.0,0.0,0.0,0.0,0.0,0.0,0.0,0.0,0.0,0.0,0.0,0.0,0.0,0.0,0.0,0.0,0.0,0.0,0.0,0.0,0.0,0.0,0.0,0.0,0.0,0.0,0.0,0.0,0.0,0.0,0.0,0.0,0.0,0.0,0.0,0.0,0.0,0.0,0.0,0.0,0.0,0.0,0.0,0.0,0.0,0.0,0.0,0.0,0.0,0.0,0.0,0.0,0.0,0.0,1.0341,1.0969,1.1347,1.1447,1.143,1.1091,0.0,0.0,0.0,0.0,0.0,0.0,0.0,0.0,0.0,0.0,0.0,0.0,0.0,0.0,0.0,0.0,0.0,0.0,0.0,0.0,0.0,0.0,0.0,0.0,0.0,0.0,0.0,0.0,0.0,0.0,0.0,0.0,0.0,0.0,0.0,0.0,0.0,0.0,0.0,0.0,0.0,0.0,0.0,0.0,0.0,0.0,0.0,0.0,0.0,0.0,0.0,0.0,0.0,0.0,0.0,0.0,0.0,0.0,0.0,0.0,0.0,0.0,0.0,0.0,0.0,0.0,0.0,0.0,0.0,0.0,0.0,0.0,0.0,0.0,0.0,0.0,0.0,0.0,0.0,0.0,0.0,0.0,0.0,0.0,0.0,0.0,0.0,0.0,0.0,0.0,0.0,0.0,0.0,0.0,0.0,0.0,0.0,0.0,0.0,0.0,0.0,0.0,0.0,0.0,0.0,0.0,0.0,0.0,0.0,0.9989,0.0,1.1952,1.1632,1.1526,1.1072,0.0,0.0,0.0,0.0,0.0,0.0,0.0,0.0,0.0,0.0,0.0,0.0,0.0,0.0,0.0,0.0,0.0,0.0,0.0,0.0,0.0,0.0,0.0,0.0,0.0,0.0,0.0,0.0,0.0,0.0,0.0,0.0,0.0,0.0,0.0,0.0,0.0,0.0,0.0,0.0,0.0,0.0,0.0,0.0,0.0,0.0,0.0,0.0,0.0,0.0,0.0,0.0,0.0,0.0,0.0,0.0,0.0,0.0,0.0,0.0,0.0,0.0,0.0,0.0,0.0,0.0,0.0,0.0,0.0,0.0,0.0,0.0,0.0,0.0,0.0,0.0,0.0,0.0,0.0,0.0,0.0,0.0,0.0,0.0,0.0,0.0,0.0,0.0,0.0,0.0,0.0,0.0,0.0,0.0,0.0,0.0,0.0,0.0,0.0,0.0,0.0,0.0,0.0,0.0,0.0,0.0,0.0,0.0,0.9889,1.1472,1.2393,1.2832,1.2839,1.1472,1.0496,0.0,0.0,0.0,0.0,0.0,0.0,0.0,0.0,0.0,0.0,0.0,0.0,0.0,0.0,0.0,0.0,0.0,0.0,0.0,0.0,0.0,0.0,0.0,0.0,0.0,0.0,0.0,0.0,0.0,0.0,0.0,0.0,0.0,0.0,0.0,0.0,0.0,0.0,0.0,0.0,0.0,0.0,0.0,0.0,0.0,0.0,0.0,0.0,0.0,0.0,0.0,0.0,0.0,0.0,0.0,0.0,0.0,0.0,0.0,0.0,0.0,0.0,0.0,0.0,0.0,0.0,0.0,0.0,0.0,0.0,0.0,0.0,0.0,0.0,0.0,0.0,0.0,0.0,0.0,0.0,0.0,0.0,0.0,0.0,0.0,0.0,0.0,0.0,0.0,0.0,0.0,0.0,0.0,0.0,0.0,0.0,0.0,0.0,0.0,0.0,0.0,0.0,0.0,0.0,0.0,0.0,0.0,0.0,0.0,1.0621,1.1925,1.2476,1.2209,1.1358,1.0853,0.0,0.0,0.0,0.0,0.0,0.0,0.0,0.0,0.0,0.0,0.0,0.0,0.0,0.0,0.0,0.0,0.0,0.0,0.0,0.0,0.0,0.0,0.0,0.0,0.0,0.0,0.0,0.0,0.0,0.0,0.0,0.0,0.0,0.0,0.0,0.0,0.0,0.0,0.0,0.0,0.0,0.0,0.0,0.0,0.0,0.0,0.0,0.0,0.0,0.0,0.0,0.0,0.0,0.0,0.0,0.0,0.0,0.0,0.0,0.0,0.0,0.0,0.0,0.0,0.0,0.0,0.0,0.0,0.0,0.0,0.0,0.0,0.0,0.0,0.0,0.0,0.0,0.0,0.0,0.0,0.0,0.0,0.0,0.0,0.0,0.0,0.0,0.0,0.0,0.0,0.0,0.0,0.0,0.0,0.0,0.0,0.0,0.0,0.0,0.0,0.0,0.0,0.0,0.0,0.0,0.0,0.0,0.0,0.0,1.1086,1.252,1.3092,1.268,1.1644,1.1064,1.1049,0.0,0.0,0.0,0.0,0.0,0.0,0.0,0.0,0.0,0.0,0.0,0.0,0.0,0.0,0.0,0.0,0.0,0.0,0.0,0.0,0.0,0.0,0.0,0.0,0.0,0.0,0.0,0.0,0.0,0.0,0.0,0.0,0.0,0.0,0.0,0.0,0.0,0.0,0.0,0.0,0.0,0.0,0.0,0.0,0.0,0.0,0.0,0.0,0.0,0.0,0.0,0.0,0.0,0.0,0.0,0.0,0.0,0.0,0.0,0.0,0.0,0.0,0.0,0.0,0.0,0.0,0.0,0.0,0.0,0.0,0.0,0.0,0.0,0.0,0.0,0.0,0.0,0.0,0.0,0.0,0.0,0.0,0.0,0.0,0.0,0.0,0.0,0.0,0.0,0.0,0.0,0.0,0.0,0.0,0.0,0.0,0.0,0.0,0.0,0.0,0.0,0.0,0.0,0.0,0.0,0.0,0.0,0.0,1.2543,1.3929,1.4378,1.3911,1.2111,1.1234,0.0,0.0,0.0,0.0,0.0,0.0,0.0,0.0,0.0,0.0,0.0,0.0,0.0,0.0,0.0,0.0,0.0,0.0,0.0,0.0,0.0,0.0,0.0,0.0,0.0,0.0,0.0,0.0,0.0,0.0,0.0,0.0,0.0,0.0,0.0,0.0,0.0,0.0,0.0,0.0,0.0,0.0,0.0,0.0,0.0,0.0,0.0,0.0,0.0,0.0,0.0,0.0,0.0,0.0,0.0,0.0,0.0,0.0,0.0,0.0,0.0,0.0,0.0,0.0,0.0,0.0,0.0,0.0,0.0,0.0,0.0,0.0,0.0,0.0,0.0,0.0,0.0,0.0,0.0,0.0,0.0,0.0,0.0,0.0,0.0,0.0,0.0,0.0,0.0,0.0,0.0,0.0,0.0,0.0,0.0,0.0,0.0,0.0,0.0,0.0,0.0,0.0,0.0,0.0,0.0,0.0,0.0,0.0,0.0,1.3131,1.4364,1.4725,1.4063,1.2212,1.1428,0.0,0.0,0.0,0.0,0.0,0.0,0.0,0.0,0.0,0.0,0.0,0.0,0.0,0.0,0.0,0.0,0.0,0.0,0.0,0.0,0.0,0.0,0.0,0.0,0.0,0.0,0.0,0.0,0.0,0.0,0.0,0.0,0.0,0.0,0.0,0.0,0.0,0.0,0.0,0.0,0.0,0.0,0.0,0.0,0.0,0.0,0.0,0.0,0.0,0.0,0.0,0.0,0.0,0.0,0.0,0.0,0.0,0.0,0.0,0.0,0.0,0.0,0.0,0.0,0.0,0.0,0.0,0.0,0.0,0.0,0.0,0.0,0.0,0.0,0.0,0.0,0.0,0.0,0.0,0.0,0.0,0.0,0.0,0.0,0.0,0.0,0.0,0.0,0.0,0.0,0.0,0.0,0.0,0.0,0.0,0.0,0.0,0.0,0.0,0.0,0.0,0.0,0.0,0.0,0.0,0.0,0.0,0.0,1.2921,1.4067,1.4907,1.509,1.4562,1.2884,1.1969,0.0,0.0,0.0,0.0,0.0,0.0,0.0,0.0,0.0,0.0,0.0,0.0,0.0,0.0,0.0,0.0,0.0,0.0,0.0,0.0,0.0,0.0,0.0,0.0,0.0,0.0,0.0,0.0,0.0,0.0,0.0,0.0,0.0,0.0,0.0,0.0,0.0,0.0,0.0,0.0,0.0,0.0,0.0,0.0,0.0,0.0,0.0,0.0,0.0,0.0,0.0,0.0,0.0,0.0,0.0,0.0,0.0,0.0,0.0,0.0,0.0,0.0,0.0,0.0,0.0,0.0,0.0,0.0,0.0,0.0,0.0,0.0,0.0,0.0,0.0,0.0,0.0,0.0,0.0,0.0,0.0,0.0,0.0,0.0,0.0,0.0,0.0,0.0,0.0,0.0,0.0,0.0,0.0,0.0,0.0,0.0,0.0,0.0,0.0,0.0,0.0,0.0,0.0,0.0,0.0,0.0,0.0,0.0,1.3239,1.5174,1.532,1.5303,1.5196,1.3861,1.2677,0.0,0.0,0.0,0.0,0.0,0.0,0.0,0.0,0.0,0.0,0.0,0.0,0.0,0.0,0.0,0.0,0.0,0.0,0.0,0.0,0.0,0.0,0.0,0.0,0.0,0.0,0.0,0.0,0.0,0.0,0.0,0.0,0.0,0.0,0.0,0.0,0.0,0.0,0.0,0.0,0.0,0.0,0.0,0.0,0.0,0.0,0.0,0.0,0.0,0.0,0.0,0.0,0.0,0.0,0.0,0.0,0.0,0.0,0.0,0.0,0.0,0.0,0.0,0.0,0.0,0.0,0.0,0.0,0.0,0.0,0.0,0.0,0.0,0.0,0.0,0.0,0.0,0.0,0.0,0.0,0.0,0.0,0.0,0.0,0.0,0.0,0.0,0.0,0.0,0.0,0.0,0.0,0.0,0.0,0.0,0.0,0.0,0.0,0.0,0.0,0.0,0.0,0.0,0.0,0.0,0.0,0.0,0.0,1.3423,1.5129,1.5225,1.5264,1.5362,1.4066,1.2998,0.0,0.0,0.0,0.0,0.0,0.0,0.0,0.0,0.0,0.0,0.0,0.0,0.0,0.0,0.0,0.0,0.0,0.0,0.0,0.0,0.0,0.0,0.0,0.0,0.0,0.0,0.0,0.0,0.0,0.0,0.0,0.0,0.0,0.0,0.0,0.0,0.0,0.0,0.0,0.0,0.0,0.0,0.0,0.0,0.0,0.0,0.0,0.0,1.5429,0.0,0.0,0.0,0.0,0.0,0.0,0.0,0.0,0.0,0.0,0.0,0.0,0.0,0.0,0.0,0.0,0.0,0.0,0.0,0.0,0.0,0.0,0.0,0.0,0.0,0.0,0.0,0.0,0.0,0.0,0.0,0.0,0.0,0.0,0.0,0.0,0.0,0.0,0.0,0.0,0.0,0.0,0.0,0.0,0.0,0.0,0.0,0.0,0.0,0.0,0.0,0.0,0.0,0.0,0.0,0.0,0.0,0.0,0.0,1.4393,1.5879,1.5773,1.572,1.569,1.4888,1.3684,0.0,0.0,0.0,0.0,0.0,0.0,0.0,0.0,0.0,0.0,0.0,0.0,0.0,0.0,0.0,0.0,0.0,0.0,0.0,0.0,0.0,0.0,0.0,0.0,0.0,0.0,0.0,0.0,0.0,0.0,0.0,0.0,0.0,0.0,0.0,0.0,0.0,0.0,0.0,0.0,0.0,0.0,0.0,0.0,0.0,0.0,0.0,0.0,0.0,0.0,0.0,0.0,0.0,0.0,0.0,0.0,0.0,0.0,0.0,0.0,0.0,0.0,0.0,0.0,0.0,0.0,0.0,0.0,0.0,0.0,0.0,0.0,0.0,0.0,0.0,0.0,0.0,0.0,0.0,0.0,0.0,0.0,0.0,0.0,0.0,0.0,0.0,0.0,0.0,0.0,0.0,0.0,0.0,0.0,0.0,0.0,0.0,0.0,0.0,0.0,0.0,0.0,0.0,0.0,0.0,0.0,0.0,1.4551,1.5279,1.656,1.6296,1.6066,1.5941,1.5594,1.4363,1.2239,0.0,0.0,0.0,0.0,0.0,0.0,0.0,0.0,0.0,0.0,0.0,0.0,0.0,0.0,0.0,0.0,0.0,0.0,0.0,0.0,0.0,0.0,0.0,0.0,0.0,0.0,0.0,0.0,0.0,0.0,0.0,0.0,0.0,0.0,0.0,0.0,0.0,0.0,1.3077,1.4201,0.0,0.0,0.0,0.0,0.0,0.0,0.0,0.0,1.5876,0.0,0.0,0.0,0.0,0.0,0.0,0.0,0.0,0.0,0.0,0.0,0.0,0.0,0.0,0.0,0.0,0.0,0.0,0.0,0.0,0.0,0.0,0.0,0.0,0.0,0.0,0.0,0.0,0.0,0.0,0.0,0.0,0.0,0.0,0.0,0.0,0.0,0.0,0.0,0.0,0.0,0.0,0.0,0.0,0.0,0.0,0.0,0.0,0.0,0.0,0.0,0.0,0.0,0.0,0.0,0.0,1.4547,1.3809,1.4259,1.5979,1.5488,1.5264,1.5323,1.5362,1.4363,1.2256,0.0,0.0,0.0,0.0,0.0,0.0,0.0,0.0,0.0,0.0,0.0,0.0,0.0,0.0,0.0,0.0,0.0,0.0,0.0,0.0,0.0,0.0,0.0,0.0,0.0,0.0,0.0,0.0,0.0,0.0,0.0,0.0,0.0,0.0,0.0,0.0,0.0,0.0,0.0,1.5391,1.6049,0.0,0.0,0.0,0.0,0.0,0.0,0.0,0.0,1.5976,0.0,0.0,0.0,0.0,0.0,0.0,0.0,0.0,0.0,0.0,0.0,0.0,0.0,0.0,0.0,0.0,0.0,0.0,0.0,0.0,0.0,0.0,0.0,0.0,0.0,0.0,0.0,0.0,0.0,0.0,0.0,0.0,0.0,0.0,0.0,0.0,0.0,0.0,0.0,0.0,0.0,0.0,0.0,0.0,0.0,0.0,0.0,0.0,0.0,0.0,0.0,0.0,0.0,0.0,0.0,1.4289,1.491,1.5642,1.6332,1.5931,1.5768,1.5884,1.5367,1.4091,0.0,0.0,0.0,0.0,0.0,0.0,0.0,0.0,0.0,0.0,0.0,0.0,0.0,0.0,0.0,0.0,0.0,0.0,0.0,0.0,0.0,0.0,0.0,0.0,0.0,0.0,0.0,0.0,0.0,0.0,0.0,0.0,0.0,0.0,0.0,0.0,0.0,0.0,0.0,0.0,1.589,1.6548,1.6738,0.0,0.0,0.0,0.0,0.0,0.0,1.5989,1.5999,0.0,0.0,0.0,0.0,0.0,0.0,0.0,0.0,0.0,0.0,0.0,0.0,0.0,0.0,0.0,0.0,0.0,0.0,0.0,0.0,0.0,0.0,0.0,0.0,0.0,0.0,0.0,0.0,0.0,0.0,0.0,0.0,0.0,0.0,0.0,0.0,0.0,0.0,0.0,0.0,0.0,0.0,0.0,0.0,0.0,0.0,0.0,0.0,0.0,0.0,0.0,0.0,0.0,0.0,0.0,1.4223,1.597,1.689,1.6807,1.6436,1.6389,1.656,1.5375,1.3932,0.0,0.0,0.0,0.0,0.0,0.0,0.0,0.0,0.0,0.0,0.0,0.0,0.0,0.0,0.0,0.0,0.0,0.0,0.0,0.0,0.0,0.0,0.0,0.0,0.0,0.0,0.0,0.0,0.0,0.0,0.0,0.0,0.0,0.0,0.0,0.0,0.0,0.0,0.0,0.0,0.0,1.6931,1.7226,1.7033,0.0,0.0,0.0,0.0,1.6069,1.6267,0.0,0.0,0.0,0.0,0.0,0.0,0.0,0.0,0.0,0.0,0.0,0.0,0.0,0.0,0.0,0.0,0.0,0.0,0.0,0.0,0.0,0.0,0.0,0.0,0.0,0.0,0.0,0.0,0.0,0.0,0.0,0.0,0.0,0.0,0.0,0.0,0.0,0.0,0.0,0.0,0.0,0.0,0.0,0.0,0.0,0.0,0.0,0.0,0.0,0.0,0.0,0.0,0.0,0.0,0.0,0.0,1.4586,1.5222,1.5939,1.6729,1.6343,1.6275,1.657,1.5319,1.4025,0.0,0.0,0.0,0.0,0.0,0.0,0.0,0.0,0.0,0.0,0.0,0.0,0.0,0.0,0.0,0.0,0.0,0.0,0.0,0.0,0.0,0.0,0.0,0.0,0.0,0.0,0.0,0.0,0.0,0.0,0.0,0.0,0.0,0.0,0.0,0.0,0.0,0.0,0.0,0.0,0.0,1.7506,1.6779,1.6971,1.7203,0.0,0.0,1.6931,1.7977,1.7791,0.0,0.0,0.0,0.0,0.0,0.0,0.0,0.0,0.0,0.0,0.0,0.0,0.0,0.0,0.0,0.0,0.0,0.0,0.0,0.0,0.0,0.0,0.0,0.0,0.0,0.0,0.0,0.0,0.0,0.0,0.0,0.0,0.0,0.0,0.0,0.0,0.0,0.0,0.0,0.0,0.0,0.0,0.0,0.0,0.0,0.0,0.0,0.0,0.0,0.0,0.0,0.0,0.0,0.0,0.0,1.4253,1.4502,1.5895,1.6874,1.7179,1.6649,1.6513,1.6786,1.4893,1.3506,0.0,0.0,0.0,0.0,0.0,0.0,0.0,0.0,0.0,0.0,0.0,0.0,0.0,0.0,0.0,0.0,0.0,0.0,0.0,0.0,0.0,0.0,0.0,0.0,0.0,0.0,0.0,0.0,0.0,0.0,0.0,0.0,0.0,0.0,0.0,0.0,0.0,0.0,0.0,0.0,0.0,0.0,1.7634,1.7742,0.0,0.0,0.0,1.7521,1.7663,0.0,0.0,0.0,0.0,0.0,0.0,0.0,0.0,0.0,0.0,0.0,0.0,0.0,0.0,0.0,0.0,0.0,0.0,0.0,0.0,0.0,0.0,0.0,0.0,0.0,0.0,0.0,0.0,0.0,0.0,0.0,0.0,0.0,0.0,0.0,0.0,0.0,0.0,0.0,0.0,0.0,0.0,0.0,0.0,0.0,0.0,0.0,0.0,0.0,0.0,0.0,0.0,0.0,0.0,0.0,0.0,0.0,1.4542,1.6769,1.7852,1.7653,1.7263,1.7129,1.7168,1.5124,0.0,0.0,0.0,0.0,0.0,0.0,0.0,0.0,0.0,0.0,0.0,0.0,0.0,0.0,0.0,0.0,0.0,0.0,0.0,0.0,0.0,0.0,0.0,0.0,0.0,0.0,0.0,1.1683,0.0,0.0,0.0,0.0,0.0,0.0,0.0,0.0,0.0,0.0,0.0,0.0,0.0,0.0,1.7635,1.816,1.8227,1.8352,0.0,0.0,1.8107,1.7701,1.834,1.8448,0.0,0.0,0.0,0.0,0.0,0.0,0.0,0.0,0.0,0.0,0.0,0.0,0.0,0.0,0.0,0.0,0.0,0.0,0.0,0.0,0.0,0.0,0.0,0.0,0.0,0.0,0.0,0.0,0.0,0.0,0.0,0.0,0.0,0.0,0.0,0.0,0.0,0.0,0.0,0.0,0.0,0.0,0.0,0.0,0.0,0.0,0.0,0.0,0.0,0.0,0.0,0.0,0.0,0.0,1.4978,1.5008,1.7376,1.8484,1.8162,1.8222,1.8137,1.7799,1.6645,1.5285,0.0,0.0,0.0,0.0,0.0,0.0,0.0,0.0,0.0,0.0,0.0,0.0,0.0,0.0,0.0,0.0,0.0,0.0,0.0,0.0,0.0,0.0,0.0,0.0,0.0,0.0,0.0,0.0,0.0,0.0,0.0,0.0,0.0,0.0,0.0,0.0,0.0,0.0,0.0,0.0,0.0,1.824,1.747,1.8085,1.8623,0.0,1.8616,1.8601,1.9062,1.9541,1.9501,1.8674,0.0,0.0,0.0,0.0,0.0,0.0,0.0,0.0,0.0,0.0,0.0,0.0,0.0,0.0,0.0,0.0,0.0,0.0,0.0,0.0,0.0,0.0,0.0,0.0,0.0,0.0,0.0,0.0,0.0,0.0,0.0,0.0,0.0,0.0,0.0,0.0,0.0,0.0,0.0,0.0,0.0,0.0,0.0,0.0,0.0,0.0,0.0,0.0,0.0,0.0,0.0,0.0,0.0,1.507,1.5213,1.7672,1.8855,1.8614,1.8422,1.8136,1.7767,1.645,1.509,0.0,0.0,0.0,0.0,0.0,0.0,0.0,0.0,0.0,0.0,0.0,0.0,0.0,0.0,0.0,0.0,0.0,0.0,0.0,0.0,0.0,0.0,0.0,0.0,0.0,0.0,0.0,0.0,1.3913,1.3838,1.3365,0.0,0.0,0.0,0.0,0.0,0.0,0.0,0.0,0.0,0.0,1.7846,1.822,1.8666,0.0,0.0,1.9387,1.9545,1.9724,1.9984,1.9865,1.9122,1.8773,0.0,0.0,0.0,0.0,0.0,0.0,0.0,0.0,0.0,0.0,0.0,0.0,0.0,0.0,0.0,0.0,0.0,0.0,0.0,0.0,0.0,0.0,0.0,0.0,0.0,0.0,0.0,0.0,0.0,0.0,0.0,0.0,0.0,0.0,0.0,0.0,0.0,0.0,0.0,0.0,0.0,0.0,0.0,0.0,0.0,0.0,0.0,0.0,0.0,0.0,0.0,0.0,1.5195,1.5532,1.8041,1.9167,1.8916,1.8555,1.8129,1.7767,1.672,1.5631,0.0,0.0,0.0,0.0,0.0,0.0,0.0,0.0,0.0,0.0,0.0,0.0,0.0,0.0,0.0,0.0,0.0,0.0,0.0,0.0,0.0,0.0,0.0,0.0,0.0,0.0,0.0,0.0,1.4072,1.3955,1.3599,0.0,0.0,0.0,0.0,0.0,0.0,0.0,0.0,0.0,0.0,1.8095,1.8821,1.9249,1.9494,1.9425,1.9809,2.0032,1.9947,2.0254,2.0196,1.9532,0.0,0.0,0.0,0.0,0.0,0.0,0.0,0.0,0.0,0.0,0.0,0.0,0.0,0.0,0.0,0.0,0.0,0.0,0.0,0.0,0.0,0.0,0.0,0.0,0.0,0.0,0.0,1.4188,0.0,0.0,1.2514,0.0,0.0,0.0,0.0,0.0,0.0,0.0,0.0,0.0,0.0,0.0,0.0,0.0,0.0,0.0,0.0,0.0,0.0,0.0,0.0,0.0,0.0,1.5362,1.6062,1.8407,1.936,1.8945,1.8743,1.8447,1.7897,1.7868,1.73,1.6149,0.0,0.0,0.0,0.0,0.0,0.0,0.0,0.0,0.0,0.0,0.0,0.0,0.0,0.0,0.0,0.0,0.0,0.0,0.0,0.0,0.0,0.0,0.0,0.0,0.0,0.0,1.1676,1.2284,1.3002,0.0,0.0,0.0,0.0,0.0,0.0,0.0,0.0,0.0,1.7055,1.8563,1.944,1.9108,1.9667,1.9979,1.9419,1.9743,2.0031,1.9887,2.0309,2.0498,0.0,0.0,0.0,0.0,0.0,0.0,0.0,0.0,0.0,0.0,0.0,0.0,0.0,0.0,0.0,0.0,0.0,0.0,0.0,0.0,0.0,0.0,0.0,0.0,0.0,0.0,0.0,1.5533,1.5216,0.0,0.0,0.0,0.0,0.0,0.0,0.0,0.0,0.0,0.0,0.0,1.5458,1.5702,0.0,0.0,0.0,0.0,0.0,0.0,0.0,0.0,0.0,0.0,0.0,0.0,1.5524,1.5909,1.8304,1.9381,1.8913,1.9068,1.8796,1.7952,1.8089,1.77,1.6642,0.0,0.0,0.0,0.0,0.0,0.0,0.0,0.0,0.0,0.0,0.0,0.0,0.0,0.0,0.0,0.0,0.0,0.0,0.0,0.0,0.0,0.0,0.0,0.0,0.0,1.2989,0.0,0.0,0.0,0.0,0.0,0.0,0.0,0.0,0.0,0.0,1.6193,1.7316,1.8327,1.8928,1.9317,1.9535,2.009,2.0379,0.0,0.0,0.0,0.0,0.0,0.0,0.0,0.0,0.0,0.0,0.0,0.0,0.0,0.0,2.0205,1.8312,1.7615,1.7411,1.77,0.0,0.0,0.0,0.0,0.0,0.0,0.0,0.0,0.0,0.0,0.0,0.0,0.0,0.0,1.7137,1.7137,1.6612,0.0,0.0,0.0,0.0,0.0,0.0,0.0,0.0,1.6855,1.7538,1.7492,1.7668,1.775,0.0,1.6983,1.5542,0.0,0.0,0.0,0.0,0.0,0.0,0.0,0.0,1.5694,1.6138,1.8263,1.9259,1.9019,1.9115,1.8927,1.8251,1.8364,1.8135,1.7542,1.6037,1.5016,0.0,0.0,0.0,0.0,0.0,0.0,0.0,0.0,0.0,0.0,0.0,0.0,0.0,0.0,0.0,0.0,0.0,0.0,0.0,0.0,0.0,0.0,0.0,1.3477,0.0,0.0,0.0,0.0,0.0,0.0,0.0,0.0,0.0,1.5883,1.6785,1.7875,1.8911,1.9226,1.9418,1.9801,0.0,0.0,0.0,0.0,0.0,0.0,0.0,1.9938,1.9839,1.9944,2.0359,2.1389,2.2068,2.2269,2.1899,0.0,0.0,1.9752,1.9065,1.886,1.9161,1.9669,2.0001,1.9974,2.0419,2.0699,0.0,0.0,0.0,0.0,1.7931,0.0,0.0,0.0,1.8827,1.908,0.0,1.8366,0.0,0.0,0.0,0.0,1.5625,1.6515,0.0,0.0,1.9754,2.0646,1.9813,1.9963,2.0049,1.9875,1.9046,1.8271,1.756,1.6175,0.0,0.0,0.0,0.0,0.0,0.0,1.5891,1.6936,1.8385,1.9085,1.9054,1.8965,1.8913,1.8924,1.861,1.8599,1.8862,1.7767,1.719,1.7379,1.476,0.0,0.0,0.0,0.0,0.0,0.0,0.0,0.0,0.0,0.0,0.0,0.0,0.0,0.0,0.0,0.0,0.0,0.0,0.0,0.0,1.3906,0.0,0.0,0.0,0.0,0.0,0.0,0.0,0.0,0.0,1.6974,1.6494,1.7663,1.8665,1.8993,0.0,0.0,0.0,0.0,1.9824,1.9791,1.9768,1.9777,1.9795,2.0437,2.1006,2.1024,0.0,0.0,2.2481,2.2327,2.2182,2.1914,2.1713,2.1717,2.2072,2.1492,2.1275,2.158,2.1427,2.1333,2.1703,2.1978,2.2138,2.2501,0.0,0.0,0.0,0.0,2.1092,2.1368,2.1692,2.134,2.0867,2.033,1.9969,0.0,0.0,0.0,0.0,0.0,0.0,1.8478,1.9424,2.0325,2.1063,2.161,2.1539,2.1399,2.1203,2.0702,2.0452,2.0257,1.9373,1.7436,1.4652,0.0,0.0,0.0,0.0,1.6659,1.7432,1.8714,1.9203,1.8875,1.9083,1.9189,1.9125,1.9095,1.9238,1.9493,1.9275,1.884,1.797,1.6602,0.0,0.0,0.0,0.0,0.0,0.0,0.0,0.0,0.0,0.0,0.0,0.0,0.0,0.0,0.0,0.0,0.0,0.0,0.0,1.3879,1.4391,1.4559,0.0,0.0,0.0,0.0,0.0,0.0,0.0,0.0,0.0,1.8411,1.8702,1.9073,0.0,0.0,1.971,1.9733,2.0096,2.0316,2.044,2.0425,0.0,2.0625,2.0342,2.0245,2.0439,2.1277,2.2053,2.2399,2.2668,2.2859,2.2945,2.2697,2.2486,2.2553,2.1939,2.1547,2.1791,2.202,2.2078,2.1961,2.2233,2.2322,2.4832,2.3165,2.3009,2.3133,2.3406,2.3579,2.3891,2.4305,2.3811,2.3318,2.2829,2.2238,2.1663,2.1082,2.0616,0.0,0.0,0.0,2.039,2.1554,2.143,2.1855,2.2742,2.2556,2.2447,2.2424,2.2006,2.1867,2.1744,2.0687,1.8906,1.6652,0.0,1.5505,1.5617,1.6733,1.7544,1.8075,1.8944,1.929,1.9094,1.9302,1.9337,1.9221,1.9293,1.9482,1.9669,1.9856,1.9638,1.8938,1.79,1.6738,0.0,0.0,0.0,0.0,0.0,0.0,0.0,0.0,0.0,0.0,0.0,1.321,1.2274,0.0,0.0,0.0,1.4414,1.4941,1.4924,1.5468,0.0,0.0,0.0,0.0,0.0,0.0,0.0,1.8349,1.9041,1.9523,1.9581,1.9592,1.9668,1.9929,2.0005,1.9983,1.9954,0.0,2.0467,2.0501,2.0572,2.0651,2.0692,2.0534,2.0553,2.106,2.1624,2.2059,2.2325,2.2687,2.2969,2.3057,2.2882,2.2803,2.2803,2.2371,2.2034,2.2223,2.2417,2.258,2.2422,2.2588,2.2676,2.6367,2.5883,2.4803,2.4732,2.5269,2.5459,2.6051,2.6776,2.5988,2.5982,2.6363,2.479,2.4115,2.4202,2.2538,0.0,2.274,2.2365,2.2526,2.3264,2.2925,2.3052,2.3429,2.3205,2.3156,2.3287,2.2916,2.2628,2.2295,2.0687,1.9691,1.9209,1.8605,1.7956,1.7261,1.7856,1.8341,1.872,1.9027,1.9304,1.9532,1.9567,1.9532,1.9329,1.938,1.9547,1.9725,1.9736,1.985,2.0087,1.887,1.8009,1.7696,0.0,0.0,0.0,0.0,0.0,0.0,0.0,0.0,0.0,0.0,0.0,0.0,0.0,0.0,1.5292,1.6401,0.0,1.6684,1.7005,0.0,0.0,0.0,1.7586,1.8136,1.9059,1.9615,1.9307,0.0,0.0,2.0382,2.0374,2.0384,2.0534,2.0528,2.0494,2.043,2.0342,2.0386,2.0387,2.0348,2.0421,2.0546,2.0979,2.1507,2.2069,2.2344,2.2353,2.2441,2.2618,2.2618,2.2441,2.2618,2.2803,2.2803,2.2677,2.2794,2.2755,2.2775,2.2853,2.293,2.2969,2.3076,2.5709,2.5985,2.5827,2.6166,2.6773,2.7362,2.741,2.7046,2.6545,2.6371,2.6316,2.5595,2.5461,2.5774,2.5113,2.4641,2.4414,2.4309,2.4186,2.3964,2.3904,2.383,2.3788,2.357,2.3408,2.3298,2.2927,2.2553,2.2176,2.1618,2.0801,1.9764,1.9583,1.8853,1.7546,1.7863,1.8355,1.8929,1.9145,1.9453,1.992,1.99,1.997,2.0066,1.99,1.9846,1.9976,1.9976,2.0094,2.0287,1.9769,1.9065,1.8109,1.5958,0.0,0.0,0.0,0.0,0.0,0.0,0.0,0.0,0.0,1.404,1.2992,0.0,1.4344,0.0,1.7067,1.8171,1.7816,1.8247,0.0,0.0,1.8443,1.8757,1.9696,2.021,2.0394,2.0073,2.0712,2.1087,2.0907,2.0817,2.0935,2.1377,2.082,2.0321,2.0318,2.0342,2.0474,2.0801,2.0846,2.1022,2.1311,2.1463,2.1731,2.2087,2.2185,2.2176,2.2344,2.2441,2.2441,2.2441,2.2441,2.253,2.253,2.253,2.2618,2.2803,2.2882,2.2872,2.2486,2.2746,2.296,2.6041,2.6343,2.6733,2.6817,2.6777,2.7548,2.7574,2.7023,2.6701,2.6591,2.6707,2.6565,2.6648,2.6812,2.6647,2.6151,2.5406,2.5419,2.4965,2.4189,2.4189,2.4116,2.3897,2.3824,2.3519,2.315,2.2852,2.2478,2.2101,2.1807,2.1252,2.0469,2.0391,1.9695,1.8497,1.8369,1.8563,1.8884,1.9172,1.9558,2.0021,2.0006,1.9896,1.9658,1.9427,1.9177,1.8911,1.8911,1.8885,1.8885,1.8689,1.83,1.7738,1.5889,1.4753,0.0,0.0,0.0,0.0,0.0,0.0,0.0,0.0,0.0,0.0,0.0,1.5601,1.6229,1.8049,1.9118,1.8761,1.9138,1.954,1.9883,1.9868,2.0218,2.1042,2.1264,2.1219,2.0988,2.1275,2.1454,2.1365,2.1275,2.1365,2.1651,2.1284,2.0925,2.0907,2.0998,2.1033,2.115,2.1184,2.1298,2.1535,2.1651,2.183,2.2097,2.2176,2.2264,2.2264,2.2353,2.2353,2.2353,2.2441,2.2618,2.2618,2.2618,2.2706,2.2618,2.2794,2.2882,2.2679,2.2533,2.2425,2.662,2.6686,2.7183,2.6886,2.6151,2.6999,2.7046,2.6507,2.629,2.6493,2.6971,2.7407,2.7536,2.7456,2.7469,2.6837,2.5791,2.5791,2.5229,2.42,2.4189,2.4127,2.3897,2.3886,2.3604,2.3001,2.2777,2.2478,2.2101,2.1731,2.1425,2.1128,2.0896,2.042,1.952,1.8966,1.8736,1.8736,1.9341,1.9749,1.9902,1.989,1.9534,1.8863,1.8527,1.8076,1.7404,1.7461,1.7319,1.7035,1.7121,1.7244,1.7346,1.5799,1.5402,0.0,1.4984,0.0,0.0,0.0,0.0,0.0,0.0,0.0,0.0,1.7353,1.7437,1.8046,1.9362,1.9996,1.9624,1.9922,2.0457,2.1311,2.1454,2.1544,2.2008,2.2008,2.1919,2.1731,2.1731,2.1731,2.1642,2.1731,2.1731,2.1731,2.1642,2.1642,2.1651,2.1633,2.1624,2.1392,2.1392,2.1356,2.1472,2.1562,2.1741,2.2097,2.2264,2.2362,2.2185,2.2274,2.2353,2.2185,2.2362,2.2735,2.2782,2.293,2.2989,2.2713,2.2763,2.2794,2.2853,2.2403,2.1971,2.6094,2.6159,2.6788,2.662,2.6087,2.6696,2.6347,2.5237,2.473,2.5024,2.5942,2.7341,2.7656,2.7108,2.7108,2.6402,2.5158,2.5146,2.4814,2.4189,2.4189,2.4127,2.3897,2.3751,2.3457,2.299,2.2628,2.2317,2.2101,2.1873,2.1339,2.0624,2.0401,1.9923,1.9125,0.0,0.0,0.0,1.9612,2.0004,1.9899,1.9345,1.8881,1.8448,1.8195,0.0,1.7442,1.7656,1.7807,1.7741,1.8157,0.0,0.0,0.0,0.0,0.0,0.0,0.0,0.0,0.0,0.0,0.0,1.8892,1.8378,1.8239,1.8867,1.9434,1.9705,2.0856,2.1612,2.1388,2.1558,2.1649,2.1624,2.1472,2.1482,2.1741,2.1741,2.1741,2.1741,2.1741,2.1741,2.1731,2.1731,2.1741,2.1741,2.1731,2.1731,2.175,2.175,2.1651,2.1392,2.1284,2.1195,2.1553,2.1571,2.1651,2.2176,2.2353,2.2353,2.2176,2.2264,2.2264,2.1928,2.2008,2.2485,2.2967,2.2945,2.3026,2.3415,2.3123,2.2715,2.2362,2.2441,2.2432,2.6712,2.6751,2.704,2.6778,0.0,2.6409,2.5828,2.4803,2.5061,2.5416,2.581,2.6649,2.6824,2.6414,2.5775,2.4992,2.4085,2.347,2.3125,2.3106,2.3106,2.3276,2.3604,2.3519,2.315,2.2703,2.2478,2.2252,2.1959,2.1873,2.1492,2.1031,2.0799,2.0401,1.9942,1.9854,1.9618,1.9283,1.9923,2.0391,2.0837,2.042,1.9925,1.9457,1.9049,0.0,0.0,0.0,0.0,0.0,0.0,0.0,0.0,0.0,0.0,1.9273,1.8948,1.9232,2.0306,2.0557,2.1064,2.1896,2.165,2.0986,1.9932,2.0623,2.1306,2.1569,2.2159,2.2347,2.2167,2.2073,2.2008,2.1731,2.1562,2.1635,2.188,2.1851,2.1823,2.1997,2.2025,2.1961,2.1759,2.1834,2.1933,2.1786,2.2005,2.2106,2.2006,2.1949,2.183,2.1571,2.1186,2.1087,2.1275,2.1383,2.158,2.2087,2.2353,2.2353,2.2264,2.2264,2.2152,2.206,2.2205,2.2616,2.3082,2.3281,2.3409,2.3429,2.3419,2.3147,2.2485,2.2255,2.2157,2.7469,2.7469,2.7469,2.7027,2.6333,2.6333,2.5894,2.525,2.6,0.0,0.0,2.6077,2.5988,2.5639,2.4696,2.3895,2.3334,2.2264,2.206,2.2414,2.2339,2.2734,2.3372,2.3372,2.3001,2.2478,2.2402,2.2187,2.1807,2.1807,2.1731,2.1589,2.1359,2.1138,2.0984,2.0896,2.0654,2.0148,2.0148,2.0664,2.1594,2.1312,2.0947,2.0552,2.0122,1.9517,1.8862,1.8927,1.8867,1.8474,1.8667,1.8812,1.8889,1.8947,1.9561,2.0585,2.083,2.1639,2.3163,2.3389,2.3738,2.4341,2.3888,2.3062,2.1849,2.2252,2.2764,2.3115,2.2882,2.2706,2.2441,2.2251,2.202,2.1841,2.1816,2.1971,2.2263,2.2043,2.1979,2.2263,2.2309,2.2245,2.2025,2.2171,2.2254,2.2043,2.218,2.2546,2.2473,2.2325,2.2115,2.2025,2.169,2.1418,2.1491,2.1717,2.1933,2.2424,2.2551,2.2631,2.2476,2.2443,2.2351,2.2382,2.2621,2.2889,2.3327,2.3691,2.3744,2.3319,2.3626,2.3717,2.2748,2.2069,2.1784,2.7469,2.7469,2.7469,2.739,2.7323,2.731,2.7242,2.7082,2.6633,2.6052,2.5517,2.6569,2.6333,2.5146,2.5146,2.4719,2.402,2.3875,2.3801,2.3875,2.3728,2.3666,2.3813,2.3446,2.3075,2.2628,2.2478,2.2176,2.1807,2.1807,2.1807,2.1731,2.1578,2.1359,2.1128,2.0809,2.0809,2.0974,2.0313,2.032,2.1024,2.0297,2.0089,2.048,2.001,1.986,2.0005,2.0005,1.9993,2.015,2.0419,2.078,2.1085,2.157,2.2227,2.2875,2.3549,2.418,2.487,2.5283,2.5527,2.5551,2.4719,2.3816,2.3238,2.3104,2.3076,2.3144,2.2882,2.2706,2.246,2.2305,2.2217,2.2254,2.2353,2.2462,2.2392,2.2272,2.2254,2.2346,2.2327,2.2492,2.2667,2.252,2.2492,2.2593,2.2447,2.2196,2.2859,2.2769,2.2647,2.2767,2.258,2.2674,2.2954,2.3122,2.3138,2.349,2.3429,2.3303,2.3,2.2943,2.2899,2.285,2.2859,2.3213,2.3955,2.3918,2.3906,2.3938,2.3987,2.3638,2.284,2.2236,2.1704,2.7469,2.7536,2.759,2.759,2.7523,2.759,2.7523,2.7175,2.6879,2.6321,2.5709,2.5906,2.5499,2.4527,2.3975,2.3526,2.3106,2.2478,2.2478,2.2947,2.2957,2.3117,2.3519,2.3372,2.3012,2.2553,2.2478,2.2176,2.1883,2.1873,2.1883,2.1807,2.1731,2.1589,2.1512,2.1572,2.1572,2.1512,2.0799,2.085,2.1759,2.1341,2.161,2.2402,2.2208,2.2107,2.2186,2.2354,2.2436,2.2461,2.2827,2.3099,2.3329,2.3658,2.4025,2.435,2.4818,2.5348,2.5917,2.6157,2.628,2.6292,2.5305,2.4529,2.4079,2.358,2.3232,2.3135,2.2882,2.2715,2.2451,2.2451,2.2419,2.2327,2.2409,2.2519,2.2537,2.2447,2.2419,2.2639,2.2859,2.2978,2.296,2.3073,2.3111,2.3139,2.301,2.3327,2.3994,2.3926,2.3802,2.3608,2.3402,2.3299,2.3505,2.3505,2.3504,2.3693,2.3549,2.3494,2.3315,2.3327,2.3128,2.3226,2.3176,2.3533,2.4184,2.4312,2.4307,2.4028,2.4336,2.3977,2.2824,2.1606,2.0799,2.7469,2.7523,2.7656,2.7656,2.7603,2.7854,2.7574,2.704,2.6973,2.6483,2.5721,2.5217,2.4671,2.4116,2.3191,2.2713,2.2627,2.178,2.179,2.2424,2.2596,2.3057,2.3698,2.3787,2.3619,2.308,2.3005,2.2787,2.2492,2.2569,2.2492,2.2262,2.2185,2.2185,2.2272,2.2507,2.2517,2.2205,2.1653,2.1825,2.2625,2.2646,2.3165,2.4245,2.4272,2.4191,2.4207,2.4534,2.4672,2.4508,2.4919,2.509,2.5101,2.5249,2.5336,2.5365,2.5502,2.5948,2.6593,2.6496,2.6474,2.6562,2.5807,2.5115,2.4594,2.4105,2.3642,2.3281,2.294,2.2656,2.2621,2.27,2.2649,2.2465,2.2648,2.2868,2.3015,2.2795,2.2712,2.307,2.3363,2.3524,2.3509,2.3697,2.3823,2.3533,2.4032,2.4659,2.4859,2.4954,2.4919,2.4592,2.4248,2.4098,2.3881,2.4004,2.4051,2.404,2.3928,2.3853,2.3815,2.3513,2.3413,2.362,2.3675,2.3883,2.4267,2.4716,2.4649,2.422,2.4413,2.4175,2.2221,2.0799,1.9894,2.7469,2.7536,2.7536,2.7643,2.7802,2.8127,2.779,2.705,2.6794,2.6082,2.5135,2.5016,2.4683,2.4261,2.4043,2.397,2.3982,2.3886,2.3909,2.4061,2.45,2.4877,2.5061,2.5401,2.539,2.5025,2.4847,2.4437,2.4057,2.4021,2.3816,2.3658,2.3419,2.3387,2.3557,2.329,2.3221,2.3339,2.3099,2.3039,2.308,2.295,2.3525,2.503,2.4679,2.4751,2.5344,2.5431,2.548,2.5721,2.5948,2.597,2.5837,2.5981,2.6014,2.583,2.6008,2.6406,2.6764,2.6286,2.619,2.6496,2.5925,2.5317,2.4903,2.4738,2.4444,2.386,2.3025,2.2748,2.2981,2.3,2.2944,2.2868,2.3505,2.3859,2.351,2.3455,2.3455,2.3762,2.3827,2.4044,2.4453,2.4437,2.4098,2.3881,2.4584,2.5024,2.4852,2.5237,2.5518,2.5499,2.5295,2.5169,2.5247,2.5509,2.5179,2.5012,2.5044,2.4765,2.4411,2.4331,2.4347,2.4119,2.4239,2.4464,2.4698,2.5011,2.5044,2.4494,2.4214,2.3769,2.169,2.0417,1.9804,2.7469,2.7523,2.7656,2.8,2.8397,2.8144,2.78,2.7381,2.6964,2.625,2.5522,2.5448,2.4974,2.4212,2.4189,2.4349,2.4602,2.4784,2.4969,2.5084,2.5454,2.5535,2.5429,2.5524,2.5383,2.506,2.4982,2.4747,2.4364,2.4126,2.3945,2.4035,2.4035,2.4115,2.4205,2.4475,2.4325,2.3887,2.4073,2.4129,2.4048,2.3813,2.421,2.5284,2.5282,2.5271,2.5611,2.5782,2.5948,2.5968,2.6396,2.659,2.6543,2.6976,2.7217,2.6973,2.7006,2.6962,2.6788,2.6865,2.6876,2.6766,2.6779,2.653,2.5819,2.5448,2.5129,2.4806,2.4094,2.3544,2.3396,2.3445,2.3505,2.3448,2.372,2.3944,2.3942,2.3942,2.4029,2.4143,2.435,2.4528,2.4875,2.4897,2.4813,2.4756,2.5169,2.5334,2.5102,2.5431,2.5616,2.5742,2.5645,2.5547,2.5635,2.5732,2.5635,2.545,2.5402,2.512,2.4975,2.479,2.4735,2.4637,2.4637,2.4735,2.4833,2.5109,2.5131,2.4648,2.4066,2.3456,2.2575,2.1214,2.037,2.7628,2.7624,2.7848,2.8297,2.8773,2.8299,2.7833,2.7434,2.6962,2.6294,2.5716,2.5781,2.5378,2.4745,2.4676,2.4872,2.5171,2.5443,2.5663,2.5847,2.6205,2.6132,2.5911,2.6071,2.587,2.5622,2.5577,2.5407,2.4916,2.4675,2.4664,2.4756,2.4927,2.4927,2.5029,2.5451,2.537,2.4832,2.5126,2.5207,2.5042,2.4938,2.511,2.5527,2.5654,2.5654,2.5728,2.6063,2.6229,2.6146,2.6768,2.7065,2.7149,2.7753,2.8089,2.7908,2.7876,2.7535,2.7008,2.7479,2.7622,2.7225,2.7502,2.736,2.6726,2.6211,2.5926,2.5622,2.5351,2.4792,2.3991,2.4161,2.4301,2.4133,2.421,2.4345,2.4554,2.4592,2.4602,2.4708,2.4937,2.5128,2.5226,2.5314,2.5421,2.5566,2.5712,2.581,2.5712,2.582,2.5898,2.5762,2.5742,2.5732,2.5732,2.5732,2.5732,2.5732,2.5625,2.543,2.543,2.5226,2.4941,2.4833,2.4932,2.503,2.5137,2.5206,2.5315,2.4785,2.4117,2.3458,2.2832,2.1666,2.0707,2.7824,2.7958,2.8201,2.849,2.8651,2.8857,2.8226,2.6995,2.6633,2.6253,2.585,2.5981,2.5977,2.5919,2.6007,2.593,2.5954,2.6183,2.6318,2.637,2.6835,2.7035,2.707,2.7552,2.7602,2.7163,2.7059,2.6943,2.6662,2.6532,2.6329,2.6047,2.6086,2.613,2.6097,2.6119,2.6174,2.5992,2.6036,2.6102,2.6091,2.634,2.6091,2.5728,2.5812,2.5906,2.5979,2.6313,2.6573,2.6561,2.7144,2.7583,2.7674,2.8265,2.8562,2.8411,2.8237,2.804,2.7886,2.793,2.7843,2.7656,2.7745,2.7624,2.7326,2.7173,2.6865,2.6187,2.6216,2.588,2.4874,2.4766,2.4977,2.4961,2.5322,2.5421,2.5275,2.5237,2.5382,2.5548,2.5664,2.5703,2.5994,2.582,2.5928,2.6172,2.6318,2.6318,2.624,2.6289,2.6191,2.5869,2.5752,2.5752,2.5732,2.5732,2.582,2.582,2.5732,2.5635,2.5616,2.5509,2.5226,2.5039,2.5128,2.5235,2.5333,2.5363,2.5431,2.5043,2.4345,2.373,2.353,2.177,2.0937,2.9154,2.8948,2.8646,2.8711,2.8908,2.8272,2.7985,2.7987,2.7427,2.7214,2.7305,2.736,2.7451,2.7451,2.7675,2.7406,2.6722,2.6954,2.7144,2.7372,2.7652,2.7643,2.7427,2.7533,2.7534,2.7301,2.7301,2.7138,2.6891,2.6715,2.6561,2.6479,2.6561,2.6655,2.6644,2.6655,2.6561,2.6479,2.6324,2.6157,2.624,2.6313,2.6229,2.6074,2.6229,2.6313,2.6324,2.6644,2.6873,2.7032,2.7381,2.7838,2.8372,2.9069,2.9272,2.891,2.8699,2.8376,2.7855,2.7966,2.781,2.758,2.8096,2.817,2.7782,2.7655,2.7308,2.6684,2.6393,2.5937,2.5257,2.4997,2.5027,2.5195,2.5292,2.565,2.5962,2.6014,2.611,2.6197,2.6197,2.6197,2.615,2.6241,2.6281,2.6045,2.6435,2.6504,2.6201,2.6396,2.6504,2.6163,2.6055,2.6153,2.5927,2.583,2.5732,2.5732,2.5732,2.5732,2.5625,2.5625,2.543,2.503,2.5137,2.5128,2.5039,2.5118,2.5179,2.5218,2.4497,2.4134,2.4496,2.2638,2.1889,2.9808,2.9379,2.8848,2.8959,2.9202,2.8244,2.8282,2.8846,2.7995,2.7857,2.8259,2.8259,2.8259,2.8339,2.8645,2.8385,2.7656,2.7813,2.8083,2.8259,2.8259,2.8087,2.7857,2.7696,2.7545,2.7476,2.7301,2.7219,2.6974,2.6809,2.6727,2.6727,2.682,2.688,2.688,2.688,2.6809,2.6644,2.6479,2.6313,2.6396,2.6407,2.6479,2.6573,2.6727,2.6817,2.6786,2.7047,2.7273,2.7651,2.7951,2.8426,2.9139,2.9613,2.9738,2.9331,2.9195,2.8892,2.8254,2.8283,2.8225,2.7839,2.8342,2.8593,2.8309,2.8082,2.7608,2.6918,2.6536,2.6046,2.529,2.4975,2.5214,2.5554,2.5788,2.601,2.6502,2.6602,2.6602,2.6602,2.6602,2.6506,2.645,2.6605,2.6646,2.6222,2.678,2.6699,2.6387,2.6435,2.6673,2.6201,2.6231,2.6251,2.618,2.612,2.6024,2.613,2.5917,2.583,2.583,2.5732,2.5528,2.5137,2.4833,2.4735,2.4735,2.4726,2.4824,2.4922,2.4534,2.3904,2.3799,2.3349,2.2581,2.9658,2.9287,2.8825,2.9113,2.9449,2.8942,2.8978,2.9147,2.8339,2.8111,2.851,2.8339,2.8339,2.8498,2.8791,2.8712,2.8597,2.8809,2.8912,2.8907,2.8578,2.8419,2.8351,2.803,2.7881,2.78,2.7615,2.7371,2.7149,2.6985,2.6891,2.6891,2.6891,2.6926,2.6914,2.7008,2.6903,2.6937,2.6761,2.6727,2.6891,2.6891,2.6926,2.7113,2.7206,2.7292,2.7397,2.7522,2.7799,2.8366,2.8808,2.9431,2.9738,2.9874,2.9772,2.9635,2.976,2.9577,2.9165,2.8969,2.8855,2.8696,2.8817,2.8735,2.868,2.8669,2.8158,2.7093,2.6636,2.6119,2.4999,2.5047,2.5506,2.6403,2.6651,2.6876,2.6945,2.69,2.689,2.69,2.69,2.69,2.6886,2.6889,2.6913,2.7102,2.7157,2.7031,2.6846,2.6758,2.6418,2.6201,2.6289,2.6456,2.652,2.6506,2.6516,2.6516,2.6207,2.6004,2.6014,2.5917,2.5333,2.4932,2.4035,2.3926,2.3935,2.3917,2.3746,2.3835,2.3583,2.3475,2.3196,2.288,2.2501,3.0808,3.0511,2.9985,2.9464,2.9094,2.9015,2.9015,2.8924,2.8327,2.8419,2.8816,2.8724,2.8724,2.8895,2.9106,2.9197,2.9106,2.9263,2.9118,2.8749,2.859,2.8431,2.8259,2.8191,2.7938,2.7696,2.7522,2.7371,2.7219,2.7161,2.7056,2.7149,2.7079,2.7332,2.763,2.7403,2.7428,2.7584,2.7215,2.7021,2.7115,2.6974,2.705,2.7429,2.7664,2.7969,2.8581,2.8174,2.8328,2.9129,2.9124,2.9353,2.9772,3.0057,3.0045,2.9943,2.976,2.9588,2.9405,2.9035,2.885,2.885,2.885,2.885,2.885,2.885,2.8381,2.742,2.7018,2.6271,2.5585,2.5498,2.5813,2.6061,2.6506,2.6962,2.7125,2.7177,2.7081,2.6996,2.7081,2.6976,2.6866,2.6889,2.7152,2.7132,2.7357,2.753,2.7182,2.7245,2.7238,2.6933,2.6941,2.6818,2.6932,2.6957,2.6947,2.679,2.645,2.6297,2.6287,2.5917,2.5323,2.4674,2.3764,2.3256,2.3256,2.3103,2.2941,2.307,2.3178,2.3008,2.2696,2.2386,2.2156,3.1576,3.1132,3.0545,3.0012,2.9549,2.916,2.9172,2.9328,2.8791,2.8816,2.9118,2.8882,2.8882,2.9131,2.9275,2.9263,2.9184,2.9263,2.904,2.8578,2.8578,2.8498,2.8419,2.8259,2.8087,2.7765,2.7684,2.7534,2.7313,2.7485,2.7589,2.7529,2.769,2.7931,2.8207,2.8194,2.8205,2.8161,2.7943,2.7656,2.7564,2.7429,2.7588,2.7797,2.8053,2.858,2.9201,2.8763,2.8919,2.9596,2.9555,2.9737,3.0114,3.0227,3.0125,3.0045,2.9863,2.9588,2.9497,2.9128,2.8943,2.8943,2.885,2.885,2.885,2.885,2.8446,2.7807,2.7243,2.6525,2.5862,2.5972,2.603,2.5896,2.6486,2.691,2.722,2.7272,2.7262,2.7177,2.7167,2.7071,2.6886,2.7158,2.7461,2.7192,2.7459,2.7673,2.7255,2.7219,2.7182,2.708,2.6966,2.7059,2.7334,2.741,2.739,2.7094,2.6693,2.661,2.6573,2.6015,2.545,2.4697,2.3935,2.3221,2.3112,2.2578,2.2291,2.2507,2.2819,2.2364,2.2063,2.2189,2.2013,3.1796,3.1106,3.0532,3.0393,3.0443,2.9394,2.9471,3.0165,2.9484,2.9197,2.9263,2.8961,2.887,2.9052,2.9131,2.904,2.887,2.904,2.8895,2.8657,2.8657,2.8724,2.8645,2.8327,2.8179,2.8099,2.7869,2.7708,2.7464,2.7835,2.811,2.7851,2.8149,2.862,2.8563,2.8924,2.8842,2.8798,2.8729,2.8322,2.8023,2.8009,2.8214,2.8042,2.8482,2.8941,2.9481,2.9504,2.9688,3.0135,3.0147,3.0158,3.0487,3.0306,3.0125,2.9977,2.9897,2.9794,2.9497,2.9312,2.9117,2.9117,2.9035,2.885,2.885,2.8839,2.8604,2.7936,2.7479,2.6833,2.6157,2.6201,2.631,2.6165,2.6734,2.7179,2.7251,2.7272,2.7262,2.7272,2.7272,2.7218,2.7013,2.7458,2.7613,2.7632,2.754,2.7451,2.751,2.7332,2.6885,2.682,2.7018,2.7252,2.7538,2.7662,2.7641,2.7416,2.712,2.6899,2.6615,2.6035,2.5488,2.4734,2.4263,2.3454,2.297,2.2705,2.2349,2.2412,2.2338,2.1769,2.1785,2.224,2.2417,3.0304,3.0075,2.9935,2.9626,2.9394,2.9484,2.9639,2.9639,2.9341,2.9275,2.9263,2.8949,2.8949,2.9052,2.9143,2.8961,2.8882,2.8973,2.8907,2.859,2.859,2.8498,2.8407,2.8259,2.8111,2.795,2.7777,2.7603,2.7534,2.7579,2.7589,2.7438,2.7736,2.8092,2.854,2.8703,2.8866,2.9306,2.8591,2.8367,2.8351,2.769,2.7799,2.876,2.8763,2.9183,2.9917,3.0021,3.0067,3.0193,3.0216,3.0204,3.0306,3.0306,3.0216,3.0148,2.9977,2.9886,2.9783,2.9588,2.9393,2.9393,2.9301,2.922,2.9035,2.9035,2.8784,2.8228,2.7714,2.7119,2.6746,2.6597,2.6703,2.69,2.7138,2.7293,2.7272,2.7262,2.7262,2.7112,2.7455,2.7558,2.7488,2.7703,2.8003,2.8168,2.7965,2.7663,2.7723,2.7602,2.7161,2.7207,2.7344,2.7528,2.7676,2.7821,2.7806,2.7827,2.7513,2.714,2.6656,2.5956,2.5427,2.4904,2.4637,2.3978,2.3908,2.3719,2.3269,2.2766,2.3152,2.3176,2.2828,2.2955,2.3059,3.0317,3.0304,3.0075,2.9781,2.9549,2.9716,2.9664,2.9599,2.9456,2.9365,2.9353,2.9184,2.9106,2.9197,2.9131,2.904,2.8961,2.8961,2.8816,2.859,2.851,2.8431,2.8339,2.8259,2.8111,2.803,2.7788,2.7615,2.758,2.7591,2.7716,2.7931,2.808,2.8597,2.932,2.9288,2.9306,2.9408,2.8873,2.8603,2.8309,2.806,2.8275,2.909,2.9244,2.9688,3.0158,3.0216,3.0216,3.0306,3.0397,3.0397,3.0499,3.0397,3.0385,3.0397,3.0136,3.0057,2.9966,2.9783,2.9691,2.9588,2.9588,2.9393,2.9301,2.9312,2.9128,2.8702,2.8185,2.7807,2.7349,2.6949,2.6993,2.7337,2.7523,2.7448,2.7293,2.7272,2.7365,2.7404,2.7517,2.7651,2.76,2.7893,2.8051,2.8116,2.8218,2.7985,2.7965,2.7788,2.7549,2.7472,2.7359,2.75,2.7583,2.7748,2.7744,2.7688,2.738,2.709,2.6755,2.6073,2.5906,2.5631,2.5083,2.4855,2.4805,2.4655,2.4042,2.3987,2.4445,2.4426,2.3923,2.3742,2.3845,3.0921,3.0934,3.0393,3.0317,3.0228,2.9716,2.9599,2.9779,2.9779,2.9611,2.9509,2.9431,2.9341,2.9419,2.9209,2.9143,2.9052,2.8961,2.8724,2.8578,2.851,2.851,2.8419,2.8259,2.8179,2.8099,2.7962,2.7788,2.7801,2.8022,2.833,2.851,2.8964,2.9573,2.978,3.012,2.9984,2.9553,2.9335,2.9053,2.863,2.8718,2.8888,2.9239,2.9816,3.0055,3.0193,3.0216,3.0306,3.0578,3.0578,3.0589,3.0781,3.0668,3.0578,3.0476,3.0306,3.0227,3.0136,3.0057,2.9886,2.9874,2.968,2.9485,2.9485,2.9485,2.9301,2.885,2.885,2.825,2.7736,2.7239,2.7232,2.7526,2.772,2.7686,2.7458,2.7365,2.7552,2.7893,2.7634,2.7569,2.7739,2.787,2.8043,2.8164,2.8064,2.7979,2.7877,2.7719,2.7517,2.7407,2.7334,2.7303,2.7458,2.7655,2.7631,2.7575,2.7038,2.6681,2.6735,2.6487,2.6675,2.6547,2.6044,2.5887,2.5927,2.5575,2.5011,2.5051,2.5557,2.5187,2.4688,2.4524,2.452,2.9328,2.9328,2.9353,2.9496,2.9639,2.9484,2.9521,2.9779,2.9779,2.9779,2.9689,2.9509,2.9419,2.9419,2.9353,2.9275,2.9131,2.9197,2.9106,2.8724,2.859,2.851,2.8419,2.8247,2.8179,2.8191,2.8042,2.7973,2.8091,2.8257,2.8393,2.8518,2.8976,2.9148,2.9642,2.988,2.9915,2.9827,2.9498,2.9363,2.9184,2.8876,2.899,2.9579,3.0056,3.0204,3.0216,3.0216,3.0216,3.0216,3.0306,3.0397,3.0397,3.0397,3.0306,3.0306,3.0306,3.0216,3.0216,3.0136,3.0136,3.0136,3.0034,2.9852,2.9485,2.9485,2.9209,2.8757,2.8488,2.8319,2.7838,2.7568,2.7516,2.7504,2.7741,2.7893,2.7852,2.8079,2.8286,2.8359,2.8317,2.8338,2.8291,2.8023,2.8006,2.8109,2.7965,2.7775,2.7631,2.7624,2.7489,2.7324,2.7272,2.7272,2.7355,2.7531,2.7538,2.7451,2.6937,2.6729,2.6683,2.6724,2.6949,2.7037,2.7037,2.6966,2.6768,2.6861,2.635,2.6562,2.6572,2.6187,2.58,2.5596,2.5304,2.8961,2.8961,2.9197,2.9365,2.9611,2.9611,2.9689,2.9779,2.9779,2.9779,2.9779,2.9611,2.9599,2.9599,2.9431,2.9341,2.9197,2.9118,2.8961,2.8645,2.8498,2.8431,2.8271,2.8179,2.8179,2.8215,2.8383,2.8454,2.8445,2.8727,2.8993,2.918,2.9374,2.9653,2.9935,3.0004,2.9915,2.969,2.9374,2.9285,2.9285,2.908,2.9135,2.9886,3.0125,3.0216,3.0216,3.0216,3.0216,3.0216,3.0216,3.0216,3.0216,3.0216,3.0216,3.0216,3.0216,3.0216,3.0216,3.0216,3.0216,3.0216,3.0216,3.0034,2.9772,2.9691,2.9416,2.8861,2.8675,2.8384,2.8019,2.7726,2.7641,2.7715,2.7752,2.7903,2.7997,2.8328,2.8618,2.8566,2.8359,2.8266,2.8162,2.8059,2.7821,2.7754,2.828,2.8023,2.7624,2.7531,2.75,2.7386,2.7303,2.7282,2.7303,2.7417,2.7349,2.7328,2.7099,2.7037,2.7074,2.7038,2.7135,2.7242,2.7252,2.7277,2.7164,2.7367,2.7357,2.7156,2.6965,2.7071,2.688,2.639,2.61,2.9052,2.9052,2.9275,2.9443,2.9702,2.9702,2.9624,2.9702,2.9702,2.9689,2.9779,2.9779,2.9779,2.9702,2.9509,2.9419,2.9263,2.904,2.8803,2.8657,2.8498,2.8351,2.8203,2.8179,2.8342,2.8402,2.869,2.8834,2.9035,2.9353,2.9753,3.0166,3.0255,3.039,3.0574,3.0644,3.0314,2.978,2.9633,2.942,2.9274,2.9285,2.9669,3.0011,3.0216,3.0216,3.0216,3.0216,3.0216,3.0216,3.0216,3.0216,3.0216,3.0216,3.0216,3.0216,3.0216,3.0227,3.0136,3.0136,3.0136,3.0136,3.0136,3.0057,2.9886,2.9703,2.9416,2.9035,2.8664,2.8477,2.8301,2.7914,2.782,2.7894,2.7944,2.799,2.8105,2.8427,2.8697,2.8711,2.8524,2.8328,2.8173,2.8038,2.7686,2.7489,2.8038,2.8276,2.7748,2.7438,2.7417,2.7396,2.7303,2.7272,2.7293,2.7303,2.7342,2.7236,2.7133,2.7228,2.7324,2.7345,2.728,2.7334,2.7314,2.7473,2.7568,2.7641,2.7536,2.7441,2.7347,2.7441,2.7262,2.6986,2.688,2.8961,2.887,2.904,2.9209,2.9209,2.9221,2.9287,2.9287,2.9443,2.9431,2.9509,2.9702,2.9779,2.9689,2.9521,2.9275,2.9118,2.9052,2.8882,2.8736,2.8578,2.8431,2.8271,2.8191,2.8462,2.8913,2.9164,2.9308,2.9834,3.0214,3.0375,3.0541,3.0773,3.089,3.0913,3.0871,3.0644,3.0212,3.0189,3.0021,2.993,2.9942,2.9965,3.0216,3.0216,3.0216,3.0216,3.0216,3.0216,3.0216,3.0216,3.0216,3.0216,3.0216,3.0216,3.0216,3.0216,3.0136,3.0057,2.9977,2.9977,2.9977,2.9977,2.9874,2.968,2.9588,2.922,2.8757,2.8384,2.8102,2.7736,2.7809,2.7809,2.7831,2.8063,2.8454,2.8549,2.8803,2.9116,2.9084,2.8697,2.8338,2.8188,2.8011,2.7793,2.7619,2.7679,2.7887,2.7521,2.7334,2.7314,2.7303,2.7282,2.7272,2.7272,2.7367,2.7324,2.7239,2.7293,2.7473,2.7462,2.7557,2.7547,2.7641,2.7641,2.7736,2.782,2.782,2.7726,2.7631,2.7726,2.7715,2.7536,2.7347,2.7441,2.9297,2.918,2.9004,2.8973,2.9131,2.9197,2.9275,2.9287,2.9521,2.9599,2.9599,2.9599,2.9599,2.9521,2.9353,2.9197,2.9131,2.8973,2.8803,2.8657,2.851,2.8351,2.8271,2.8191,2.8581,2.908,2.932,2.9786,3.0494,3.0949,3.1065,3.1161,3.1311,3.1229,3.1074,3.0984,3.0781,3.0487,3.0397,3.0306,3.0216,3.0216,3.0216,3.0216,3.0216,3.0216,3.0216,3.0216,3.0216,3.0216,3.0216,3.0216,3.0216,3.0216,3.0227,3.0239,3.0216,3.0125,3.0057,3.0057,3.0045,3.0045,2.9977,2.9794,2.9588,2.9301,2.9035,2.8571,2.8301,2.8207,2.8113,2.7914,2.782,2.7841,2.7957,2.8169,2.8317,2.8604,2.9019,2.9388,2.9215,2.88,2.8294,2.8061,2.8019,2.7777,2.7494,2.7357,2.7367,2.7357,2.7357,2.7357,2.7357,2.7452,2.7452,2.7536,2.7441,2.7357,2.7462,2.7641,2.782,2.7914,2.8019,2.8019,2.8113,2.8102,2.7998,2.7998,2.7904,2.7914,2.7904,2.7904,2.7809,2.7715,2.7809,2.9772,2.9557,2.9224,2.9071,2.9052,2.9275,2.9341,2.9431,2.9611,2.9702,2.9689,2.9509,2.9419,2.9431,2.9197,2.9052,2.8973,2.8803,2.8657,2.859,2.851,2.8351,2.8191,2.825,2.8521,2.9116,2.9439,3.0109,3.0807,3.1336,3.1601,3.1613,3.1637,3.1572,3.1241,3.1151,3.0781,3.0499,3.0306,3.0306,3.0216,3.0216,3.0216,3.0306,3.0306,3.0306,3.0306,3.0306,3.0306,3.0306,3.0306,3.0306,3.0318,3.0306,3.0352,3.0433,3.0273,3.0216,3.0136,3.0136,3.0045,2.9943,2.9874,2.9691,2.9405,2.9128,2.885,2.8581,2.8301,2.8301,2.8196,2.8008,2.7914,2.804,2.7915,2.7905,2.8391,2.8774,2.9256,2.9494,2.9579,2.9321,2.8743,2.8381,2.8285,2.7915,2.7726,2.7547,2.7547,2.7452,2.7452,2.7452,2.7452,2.7536,2.7631,2.7809,2.7715,2.7715,2.7831,2.8113,2.8301,2.8477,2.8488,2.8395,2.8477,2.8384,2.8279,2.8186,2.8196,2.8196,2.8196,2.8092,2.7904,2.7998,2.8102,3.0372,2.9594,2.98,2.9506,2.8919,2.904,2.9131,2.9209,2.9431,2.9431,2.9509,2.9419,2.9509,2.9534,2.9209,2.8907,2.8669,2.859,2.851,2.851,2.851,2.8431,2.8431,2.8431,2.867,2.9114,2.9318,2.9977,3.0699,3.1324,3.1613,3.1601,3.1625,3.1661,3.1484,3.1318,3.1151,3.0883,3.0679,3.0397,3.0216,3.0216,3.0306,3.0487,3.0487,3.0487,3.0487,3.0578,3.0578,3.0566,3.0578,3.0679,3.0781,3.0679,3.0868,3.0893,3.0617,3.0136,3.0114,3.008,2.9954,2.9863,2.9714,2.9405,2.9446,2.9146,2.8844,2.8768,2.8477,2.8279,2.8279,2.829,2.8301,2.8408,2.8453,2.8709,2.9113,2.9113,2.9587,3.0061,3.024,2.9893,2.9363,2.8871,2.8551,2.8232,2.7904,2.7852,2.7852,2.7851,2.7788,2.782,2.7883,2.7968,2.7809,2.7998,2.8092,2.7998,2.8196,2.8499,2.8581,2.8664,2.8757,2.8664,2.8757,2.8664,2.8477,2.8477,2.8477,2.852,2.8575,2.8344,2.8092,2.8207,2.8398,3.1137,3.0302,3.0102,2.9567,2.9077,2.9197,2.9275,2.9353,2.9521,2.9611,2.9599,2.9431,2.9353,2.9209,2.8961,2.8816,2.859,2.851,2.851,2.851,2.851,2.851,2.851,2.851,2.8691,2.8931,2.9436,2.9917,3.053,3.0903,3.1216,3.13,3.1517,3.1572,3.156,3.1395,3.1229,3.096,3.0769,3.0487,3.0306,3.0216,3.0306,3.0578,3.0487,3.0578,3.0769,3.0668,3.0758,3.0925,3.1038,3.1128,3.1318,3.1318,3.1347,3.1298,3.1384,3.1031,3.0675,3.0399,3.0273,3.0228,3.0365,3.0697,3.045,3.0034,2.9702,2.984,2.9261,2.885,2.8735,2.8839,2.8757,2.8855,2.8874,2.9095,2.9459,2.984,3.0079,3.0533,3.0858,3.0437,2.9998,2.986,2.9395,2.8791,2.8653,2.8741,2.8711,2.8806,2.8572,2.8285,2.8328,2.8455,2.8231,2.8269,2.829,2.829,2.8466,2.8675,2.8675,2.8757,2.8757,2.885,2.8757,2.8664,2.8675,2.8664,2.8664,2.8773,2.8882,2.8798,2.8632,2.8888,2.8994,3.1822,3.1091,3.056,3.0004,2.9419,2.9642,2.9646,2.9521,2.9702,2.9792,2.9702,2.9521,2.9184,2.887,2.8803,2.8736,2.851,2.851,2.851,2.851,2.851,2.851,2.851,2.851,2.851,2.8522,2.9124,2.952,2.9809,3.0314,3.0807,3.106,3.1504,3.156,3.1484,3.1306,3.1217,3.0984,3.0781,3.0668,3.0578,3.0499,3.0668,3.0668,3.0668,3.0679,3.105,3.1038,3.1116,3.1383,3.1472,3.156,3.1761,3.1673,3.1627,3.1579,3.1656,3.1489,3.1147,3.1019,3.0842,3.074,3.088,3.1009,3.1343,3.1018,3.0523,3.0398,2.9802,2.9508,2.9485,2.9301,2.9209,2.909,2.9036,2.9294,2.9569,3.0036,3.0403,3.0892,3.1067,3.0976,3.0711,3.0729,3.0323,2.9543,2.9448,2.9491,2.9548,2.959,2.9331,2.8988,2.8839,2.886,2.8772,2.8661,2.8701,2.8592,2.8779,2.8757,2.8757,2.8757,2.8757,2.885,2.885,2.8757,2.8757,2.8757,2.8861,2.8822,2.8932,2.9205,2.9347,2.9532,2.9598,3.2369,3.2031,3.148,3.0848,3.0214,3.0386,3.0256,2.9789,2.9804,2.9792,2.9702,2.9521,2.9184,2.8882,2.8803,2.8736,2.851,2.851,2.851,2.851,2.851,2.851,2.859,2.851,2.851,2.8522,2.8907,2.8895,2.8943,2.9905,3.0687,3.148,3.1616,3.1701,3.1512,3.1252,3.1098,3.0968,3.0913,3.1128,3.1038,3.105,3.1128,3.1395,3.1395,3.1395,3.1673,3.1572,3.1661,3.1901,3.1989,3.2001,3.2189,3.2013,3.2007,3.1944,3.1776,3.1601,3.1466,3.1386,3.1202,3.0842,3.0752,3.1077,3.167,3.0675,3.0194,3.0331,2.9965,2.9691,2.9577,2.9485,2.9485,2.946,2.9479,2.9591,2.9956,3.0393,3.074,3.1157,3.1242,3.1179,3.1196,3.1076,3.0912,3.017,3.0223,3.0361,3.0188,3.0164,3.0024,2.9688,2.9332,2.9256,2.935,2.9248,2.8827,2.874,2.8844,2.8801,2.8757,2.885,2.885,2.885,2.885,2.885,2.885,2.885,2.885,2.885,2.891,2.9281,2.9663,2.9925,3.0024,3.2298,3.2152,3.1612,3.1273,3.0979,3.0666,3.0495,3.0256,2.9942,2.9689,2.9521,2.9431,2.9184,2.887,2.8803,2.8736,2.851,2.851,2.851,2.8657,2.8816,2.8816,2.8736,2.8803,2.8882,2.865,2.8775,2.8991,2.9148,2.9689,3.0504,3.1223,3.16,3.136,3.1149,3.0966,3.0902,3.0985,3.1163,3.1496,3.1484,3.1496,3.1572,3.1813,3.1661,3.1749,3.2025,3.1925,3.2089,3.2351,3.2438,3.245,3.2537,3.2276,3.2223,3.2212,3.1908,3.189,3.1693,3.1651,3.1537,3.1889,3.1762,3.1802,3.2272,3.1597,3.1112,3.0904,3.0354,3.0045,2.9943,2.9943,2.9966,2.992,2.9941,3.003,3.021,3.0571,3.088,3.1172,3.1194,3.1221,3.1342,3.1389,3.1157,3.0892,3.0982,3.1097,3.0899,3.0776,3.0667,3.046,3.0003,2.9721,2.9805,2.939,2.9003,2.897,2.8992,2.8916,2.885,2.885,2.885,2.885,2.885,2.885,2.885,2.885,2.885,2.885,2.9052,2.9456,2.9849,3.0264,3.0373,3.2202,3.2164,3.18,3.1449,3.1203,3.0771,3.0507,3.0385,2.9955,2.9689,2.9419,2.9419,2.9328,2.9106,2.9028,2.9106,2.8961,2.8736,2.8736,2.8882,2.9184,2.9197,2.9184,2.9263,2.9496,2.9138,2.9107,2.9326,2.929,2.9721,3.0364,3.0931,3.139,3.1211,3.0881,3.0659,3.0703,3.1105,3.142,3.1925,3.1925,3.1937,3.2025,3.2176,3.2013,3.2101,3.2376,3.2363,3.245,3.2711,3.281,3.2723,3.2711,3.2636,3.2376,3.2247,3.2204,3.2277,3.2047,3.1709,3.1747,3.2232,3.2112,3.2478,3.2834,3.2448,3.1788,3.162,3.1,3.0476,3.0397,3.0125,3.0125,3.008,3.0376,3.0455,3.033,3.0616,3.0787,3.1029,3.1155,3.1381,3.1706,3.1916,3.1909,3.1732,3.1847,3.1795,3.1561,3.1515,3.1605,3.124,3.0701,3.0439,3.0199,2.9748,2.9316,2.902,2.902,2.8987,2.8943,2.885,2.885,2.885,2.885,2.885,2.885,2.885,2.885,2.885,2.9226,2.9784,3.0111,3.0493,3.0679,3.2227,3.2202,3.2177,3.1751,3.109,3.0725,3.0552,3.0379,3.0087,2.9689,2.9496,2.9639,2.9704,2.9639,2.9406,2.9639,2.9781,2.9184,2.9028,2.9549,2.9781,2.9639,2.9781,3.0088,3.0165,3.0101,2.9829,2.958,2.9518,2.9831,3.0201,3.0725,3.1394,3.1461,3.1038,3.0712,3.1132,3.1828,3.204,3.2351,3.2624,3.2636,3.2711,3.255,3.2463,3.255,3.2636,3.2797,3.2884,3.2982,3.3154,3.3068,3.2723,3.255,3.23,3.2062,3.1886,3.2062,3.2537,3.2013,3.2103,3.2238,3.2046,3.2325,3.2965,3.2732,3.2262,3.2171,3.1749,3.1092,3.0656,3.0306,3.0306,3.0296,3.0491,3.0571,3.0434,3.0675,3.0905,3.1088,3.1194,3.1519,3.2018,3.2415,3.2542,3.2632,3.2723,3.2566,3.2106,3.1893,3.1794,3.1649,3.1107,3.0932,3.058,3.0127,2.9642,2.9289,2.9068,2.9035,2.9035,2.8943,2.8943,2.885,2.885,2.885,2.885,2.885,2.885,2.8844,2.9609,3.0155,3.0461,3.0723,3.0919,3.2962,3.2631,3.2631,3.2375,3.196,3.1945,3.1779,3.1353,3.0894,3.0266,2.9639,2.9999,3.0228,3.0088,2.9935,3.0088,3.0532,3.0393,3.0228,3.0304,3.0683,3.0683,3.0745,3.0833,3.0908,3.0532,3.0228,3.0152,3.0266,3.0278,3.0866,3.1501,3.1688,3.1746,3.1656,3.1542,3.1747,3.3002,3.3334,3.3518,3.381,3.3725,3.3484,3.3056,3.2896,3.2909,3.2982,3.3313,3.3326,3.324,3.3411,3.3313,3.281,3.2475,3.23,3.1937,3.1749,3.2013,3.2525,3.2525,3.2313,3.2183,3.2019,3.2286,3.276,3.2561,3.25,3.2735,3.2575,3.1965,3.1359,3.1026,3.0937,3.0306,3.0365,3.0365,3.0376,3.0744,3.1031,3.1169,3.1361,3.1791,3.2391,3.2716,3.2901,3.2721,3.2687,3.242,3.1995,3.1683,3.145,3.1526,3.1304,3.1141,3.0855,3.0374,2.9942,2.9526,2.9272,2.922,2.9128,2.9035,2.8943,2.885,2.885,2.885,2.885,2.885,2.885,2.9019,2.9726,3.0057,3.022,3.0668,3.1203,3.3476,3.307,3.3263,3.3101,3.2823,3.2846,3.2678,3.2489,3.2283,3.1543,3.065,3.1209,3.1439,3.111,3.082,3.1044,3.1636,3.1119,3.1132,3.1281,3.1709,3.1649,3.1576,3.1723,3.1796,3.1355,3.1044,3.1057,3.097,3.097,3.1381,3.1923,3.2273,3.2651,3.2651,3.2515,3.2452,3.359,3.4075,3.4485,3.4607,3.4538,3.423,3.3797,3.3471,3.3154,3.3411,3.3569,3.3738,3.3654,3.3654,3.3738,3.3056,3.2797,3.2636,3.245,3.2612,3.2612,3.2711,3.3373,3.3056,3.2562,3.2438,3.2859,3.3288,3.3445,3.3445,3.3518,3.336,3.2834,3.2227,3.1989,3.1548,3.1003,3.1066,3.1078,3.1043,3.1419,3.1736,3.1797,3.1832,3.2283,3.2667,3.2914,3.317,3.2875,3.2472,3.2195,3.1884,3.1529,3.1219,3.1241,3.1241,3.0986,3.0827,3.0499,3.013,2.9836,2.9591,2.9416,2.922,2.9035,2.8943,2.8839,2.885,2.885,2.885,2.885,2.8943,2.914,2.9686,2.9932,2.9936,3.0526,3.1304,3.3822,3.3338,3.3913,3.3975,3.3684,3.3779,3.3628,3.352,3.4011,3.3355,3.1911,3.2948,3.2942,3.2431,3.229,3.2591,3.2889,3.2074,3.2028,3.2245,3.2533,3.2318,3.2403,3.2632,3.2561,3.2475,3.2173,3.1882,3.1796,3.1736,3.1969,3.2417,3.2874,3.3248,3.3266,3.3292,3.3405,3.4229,3.4847,3.5197,3.5264,3.5061,3.5006,3.4677,3.4191,3.3966,3.3966,3.3882,3.3894,3.3992,3.416,3.3979,3.381,3.3713,3.3641,3.3641,3.3966,3.3471,3.3227,3.3966,3.4217,3.3797,3.3797,3.4371,3.4538,3.4371,3.4371,3.4371,3.4301,3.3771,3.3262,3.292,3.2587,3.2498,3.2467,3.2394,3.2211,3.2442,3.2784,3.2805,3.2775,3.2948,3.3184,3.3307,3.3284,3.2952,3.259,3.2052,3.1701,3.1401,3.1136,3.0907,3.0829,3.0767,3.055,3.0442,3.0184,2.9844,2.9894,2.9772,2.9405,2.9128,2.9035,2.9024,2.885,2.885,2.9035,2.9035,2.9035,2.9382,2.9697,2.998,3.0042,3.0635,3.113,3.465,3.4436,3.5129,3.5332,3.5318,3.6305,3.615,3.5183,3.5441,3.457,3.2928,3.3838,3.3902,3.296,3.2733,3.3143,3.3269,3.3283,3.3086,3.3157,3.3213,3.3297,3.3227,3.3227,3.3157,3.3086,3.2931,3.2704,3.269,3.2561,3.2646,3.31,3.3185,3.3424,3.3605,3.3765,3.4275,3.4796,3.5209,3.5618,3.5825,3.5809,3.576,3.5467,3.5061,3.4828,3.4759,3.4664,3.469,3.4716,3.4716,3.4634,3.4468,3.4384,3.4288,3.4082,3.4249,3.4262,3.4454,3.4428,3.4594,3.5046,3.5046,3.4786,3.4868,3.4964,3.4964,3.5046,3.5059,3.4538,3.4037,3.37,3.336,3.3144,3.3133,3.2972,3.276,3.2984,3.3332,3.3338,3.3241,3.3486,3.3575,3.3496,3.3375,3.3065,3.262,3.2002,3.1485,3.1185,3.0954,3.0622,3.0673,3.0555,3.0559,3.0484,3.0201,2.9953,2.9931,2.9874,2.96,2.9312,2.9209,2.9117,2.8943,2.9128,2.9301,2.9312,2.9312,2.9301,2.9594,2.9853,3.0212,3.0699,3.0942,3.4687,3.4674,3.5328,3.6073,3.6908,3.781,3.7717,3.7253,3.7346,3.6345,3.4812,3.5511,3.5238,3.4227,3.3931,3.3957,3.3991,3.3922,3.3799,3.373,3.3994,3.3813,3.3744,3.3675,3.3521,3.3521,3.3466,3.3312,3.3227,3.3227,3.3312,3.3396,3.3396,3.3396,3.3452,3.3705,3.4043,3.4635,3.5212,3.585,3.6183,3.6402,3.6211,3.6425,3.6108,3.5695,3.5709,3.5615,3.5318,3.5426,3.544,3.5372,3.5209,3.5209,3.495,3.4746,3.4924,3.4937,3.4881,3.4937,3.544,3.579,3.5723,3.5548,3.5386,3.5386,3.5386,3.5467,3.5467,3.5304,3.4895,3.4468,3.405,3.3641,3.3458,3.3189,3.3328,3.3492,3.3571,3.357,3.3699,3.3906,3.3926,3.3755,3.3576,3.3309,3.2781,3.1979,3.1358,3.0796,3.0578,3.0323,3.045,3.0498,3.0535,3.0559,3.025,3.0045,3.0011,2.9874,2.9691,2.9405,2.922,2.9128,2.9046,2.922,2.9393,2.9588,2.96,2.9588,2.9714,2.997,3.0258,3.0499,3.0504,3.4214,3.4271,3.5008,3.6575,3.8324,3.8383,3.8723,3.9322,3.9128,3.8267,3.6966,3.7361,3.6687,3.5447,3.5076,3.486,3.4795,3.4611,3.4502,3.4257,3.4427,3.4441,3.4192,3.4034,3.3868,3.373,3.3744,3.366,3.3452,3.3326,3.3396,3.3536,3.3466,3.3396,3.3494,3.3536,3.379,3.4171,3.5023,3.5721,3.6351,3.641,3.6437,3.7343,3.678,3.6108,3.6281,3.6122,3.5628,3.6056,3.6084,3.5951,3.6031,3.6031,3.5683,3.5521,3.5777,3.5615,3.5386,3.5291,3.5467,3.5723,3.5737,3.5817,3.5642,3.5548,3.5629,3.5629,3.5629,3.5562,3.5223,3.4977,3.4647,3.4397,3.4134,3.3953,3.3861,3.3977,3.4007,3.404,3.4033,3.4186,3.4131,3.3973,3.3537,3.341,3.2888,3.1982,3.1341,3.0732,3.0537,3.0274,3.0239,3.048,3.056,3.0502,3.0342,3.0136,3.0045,2.9966,2.9783,2.9508,2.9128,2.9231,2.9324,2.9312,2.9393,2.968,2.9863,2.976,2.992,3.017,3.0339,3.0413,3.0314,3.4347,3.4382,3.5981,3.7375,3.8391,3.8896,3.9162,3.9364,3.8841,3.8359,3.778,3.7367,3.6902,3.6353,3.5761,3.5517,3.5677,3.5314,3.5319,3.5305,3.5273,3.5071,3.4733,3.4445,3.4189,3.3991,3.3991,3.3911,3.3675,3.3466,3.334,3.3396,3.3396,3.3536,3.3466,3.3396,3.3691,3.3917,3.4711,3.5511,3.6011,3.7209,3.7814,3.7853,3.7275,3.7028,3.7028,3.6466,3.6466,3.6652,3.627,3.627,3.6665,3.6744,3.6665,3.6587,3.6443,3.6284,3.5965,3.571,3.5548,3.5642,3.5737,3.5737,3.5723,3.5723,3.571,3.571,3.571,3.5642,3.5562,3.5399,3.5236,3.499,3.4825,3.466,3.4481,3.4437,3.4476,3.4457,3.4367,3.4328,3.4325,3.404,3.3594,3.31,3.2563,3.1866,3.146,3.0973,3.1035,3.0863,3.0376,3.0466,3.0656,3.0668,3.0487,3.0306,3.0136,3.0057,2.9874,2.9588,2.9312,2.96,2.9703,2.9588,2.9669,2.9943,3.0023,2.9932,2.9954,3.0262,3.0182,3.0181,3.0154,3.3947,3.4161,3.6041,3.7286,3.7978,3.8676,3.8796,3.8527,3.8422,3.8322,3.8236,3.7627,3.7252,3.711,3.6516,3.6154,3.6401,3.6038,3.5952,3.5969,3.5998,3.578,3.5377,3.4987,3.5033,3.4833,3.4366,3.4141,3.387,3.3536,3.3326,3.3396,3.3536,3.3536,3.3466,3.3564,3.3691,3.3917,3.464,3.5281,3.5869,3.695,3.7774,3.7771,3.7853,3.7701,3.7457,3.6964,3.6978,3.6978,3.6665,3.6601,3.6915,3.69,3.6978,3.6915,3.6836,3.6772,3.6363,3.6031,3.5696,3.5723,3.5723,3.5723,3.5723,3.571,3.571,3.571,3.571,3.5723,3.5562,3.5399,3.5236,3.5072,3.5003,3.4839,3.4743,3.4603,3.4533,3.445,3.4483,3.4634,3.4459,3.425,3.3881,3.36,3.2906,3.1865,3.1427,3.1164,3.1324,3.1472,3.1104,3.0847,3.1026,3.0937,3.0668,3.0487,3.0306,3.0045,2.9966,2.968,2.9577,2.9691,2.9783,2.9783,2.9863,3.0125,3.0216,3.0125,3.0125,3.0148,3.0136,3.0057,3.0045,3.3744,3.4163,3.5925,3.6866,3.7345,3.7988,3.7988,3.7569,3.7898,3.8167,3.8142,3.776,3.7851,3.7899,3.7579,3.7228,3.6894,3.6676,3.659,3.6649,3.6533,3.646,3.6156,3.579,3.5462,3.5093,3.4667,3.4309,3.3965,3.3605,3.3466,3.3605,3.3605,3.3619,3.3619,3.3633,3.3663,3.403,3.4654,3.5424,3.6041,3.6661,3.7397,3.78,3.7853,3.7777,3.7534,3.738,3.7303,3.7148,3.6993,3.6993,3.6993,3.6978,3.6824,3.6838,3.678,3.6596,3.6253,3.6149,3.5937,3.5898,3.5817,3.5804,3.5804,3.5804,3.5804,3.5723,3.5723,3.5629,3.5562,3.5399,3.5318,3.5154,3.5086,3.5086,3.4921,3.4756,3.466,3.4481,3.4528,3.4711,3.4601,3.4405,3.4183,3.3834,3.3282,3.2265,3.1562,3.1449,3.152,3.1901,3.1977,3.1725,3.1737,3.1306,3.1026,3.0668,3.0487,3.0227,2.9954,2.9772,2.968,2.9669,2.9772,2.9863,2.9954,3.0125,3.0125,3.0216,3.0216,3.0216,3.0136,3.0136,3.0057,3.5296,3.5993,3.7053,3.7166,3.6806,3.733,3.7509,3.736,3.7,3.7105,3.7455,3.7511,3.7771,3.8809,3.806,3.7796,3.8046,3.7637,3.7726,3.8018,3.723,3.707,3.6736,3.5979,3.5212,3.4813,3.4545,3.4232,3.3951,3.3744,3.355,3.3605,3.3605,3.3536,3.3396,3.3508,3.3789,3.4059,3.4427,3.5081,3.6026,3.6776,3.7702,3.7901,3.7777,3.7548,3.7394,3.7148,3.7056,3.707,3.707,3.6978,3.6978,3.6936,3.6768,3.6557,3.6515,3.6253,3.5991,3.5957,3.5853,3.6072,3.5992,3.6058,3.6058,3.6058,3.5978,3.5898,3.5884,3.5723,3.5642,3.5642,3.5562,3.5399,3.5249,3.5168,3.5086,3.4921,3.4756,3.466,3.4533,3.4599,3.4457,3.4335,3.4165,3.3824,3.3579,3.2599,3.191,3.1761,3.1713,3.2152,3.2599,3.2945,3.2957,3.1913,3.1472,3.1026,3.0668,3.0397,3.0136,2.9966,2.9874,2.9863,2.9954,3.0045,3.0125,3.0125,3.0125,3.0216,3.0216,3.0216,3.0216,3.0136,3.0148]},{"header":{"parameterUnit":"m.s-1","parameterCategory":1,"la1":31.0,"la2":29.5877,"lo1":-88.7671,"lo2":-86.6584,"dy":0.0162,"dx":0.0185,"nx":115,"ny":88,"refTime":"2024-09-11T06:00:00:Z","depth":0,"parameterNumber":3,"parameterNumberName":"V-component_of_WINDS"},"data":[0.0,0.0,0.0,0.0,0.0,0.0,0.0,0.0,0.0,0.0,0.0,0.0,0.0,0.0,0.0,0.0,0.0,0.0,0.0,0.0,0.0,0.0,0.0,0.0,0.0,0.0,0.0,0.0,0.0,0.0,0.0,0.0,0.0,0.0,0.0,0.0,0.0,0.0,0.0,0.0,0.0,0.0,0.0,0.0,0.0,0.0,0.0,0.0,0.0,0.0,0.0,0.0,0.0,0.0,0.0,0.0,0.0,0.0,0.0,0.0,0.0,0.0,0.0,0.0,0.0,0.0,0.0,0.0,0.0,0.0,0.0,0.0,0.0,0.0,0.0,0.0,0.0,0.0,0.0,0.0,0.0,0.0,0.0,0.0,0.0,0.0,0.0,0.0,0.0,0.0,0.0,0.0,0.0,0.0,0.0,0.0,0.0,0.0,0.0,0.0,0.0,0.0,0.0,0.0,0.0,0.0,0.0,0.0,0.0,0.0,0.0,0.0,0.0,0.0,0.0,0.0,0.0,0.0,0.0,0.0,0.0,0.0,0.0,0.0,0.0,0.0,0.0,0.0,0.0,0.0,0.0,0.0,0.0,0.0,0.0,0.0,0.0,0.0,0.0,0.0,0.0,0.0,0.0,0.0,0.0,0.0,0.0,0.0,0.0,0.0,0.0,0.0,0.0,0.0,0.0,0.0,0.0,0.0,0.0,0.0,0.0,0.0,0.0,0.0,0.0,0.0,0.0,0.0,0.0,0.0,0.0,0.0,0.0,0.0,0.0,0.0,0.0,0.0,0.0,0.0,0.0,0.0,0.0,0.0,0.0,0.0,0.0,0.0,0.0,0.0,0.0,0.0,0.0,0.0,0.0,0.0,0.0,0.0,0.0,0.0,0.0,0.0,0.0,0.0,0.0,0.0,0.0,0.0,0.0,0.0,0.0,0.0,0.0,0.0,0.0,0.0,0.0,0.0,0.0,0.0,0.0,0.0,0.0,0.0,0.0,0.0,0.0,0.0,0.0,0.0,0.0,0.0,0.0,0.0,0.0,0.0,0.0,0.0,0.0,0.0,0.0,0.0,0.0,0.0,0.0,0.0,0.0,0.0,0.0,0.0,0.0,0.0,0.0,0.0,0.0,0.0,0.0,0.0,0.0,0.0,0.0,0.0,0.0,0.0,0.0,0.0,0.0,0.0,0.0,0.0,0.0,0.0,0.0,0.0,0.0,0.0,0.0,0.0,0.0,0.0,0.0,0.0,0.0,0.0,0.0,0.0,0.0,0.0,0.0,0.0,0.0,0.0,0.0,0.0,0.0,0.0,0.0,0.0,0.0,0.0,0.0,0.0,0.0,0.0,0.0,0.0,0.0,0.0,0.0,0.0,0.0,0.0,0.0,0.0,0.0,0.0,0.0,0.0,0.0,0.0,0.0,0.0,0.0,0.0,0.0,0.0,0.0,0.0,0.0,0.0,0.0,0.0,0.0,0.0,0.0,0.0,0.0,0.0,0.0,0.0,0.0,0.0,0.0,0.0,0.0,0.0,0.0,0.0,0.0,0.0,0.0,0.0,0.0,0.0,0.0,0.0,0.0,0.0,0.0,0.0,0.0,0.0,0.0,0.0,0.0,0.0,0.0,0.0,0.0,0.0,0.0,0.0,0.0,0.0,0.0,0.0,0.0,0.0,0.0,0.0,0.0,0.0,0.0,0.0,0.0,0.0,0.0,0.0,0.0,0.0,0.0,0.0,0.0,0.0,0.0,0.0,0.0,0.0,0.0,0.0,0.0,0.0,0.0,0.0,0.0,0.0,0.0,0.0,0.0,0.0,0.0,0.0,0.0,0.0,0.0,0.0,0.0,0.0,0.0,0.0,0.0,0.0,0.0,0.0,0.0,0.0,0.0,0.0,0.0,0.0,0.0,0.0,0.0,0.0,0.0,0.0,0.0,0.0,0.0,0.0,0.0,0.0,0.0,0.0,0.0,0.0,0.0,0.0,0.0,0.0,0.0,0.0,0.0,0.0,0.0,0.0,0.0,0.0,0.0,0.0,0.0,0.0,0.0,0.0,0.0,0.0,0.0,0.0,0.0,0.0,0.0,0.0,0.0,0.0,0.0,0.0,0.0,0.0,0.0,0.0,0.0,0.0,0.0,0.0,0.0,0.0,0.0,0.0,0.0,0.0,0.0,0.0,0.0,0.0,0.0,0.0,0.0,0.0,0.0,0.0,0.0,0.0,0.0,0.0,0.0,0.0,0.0,0.0,0.0,0.0,0.0,0.0,0.0,0.0,0.0,0.0,0.0,0.0,0.0,0.0,0.0,0.0,0.0,0.0,0.0,0.0,0.0,0.0,0.0,0.0,0.0,0.0,0.0,0.0,0.0,0.0,0.0,0.0,0.0,0.0,0.0,0.0,0.0,0.0,0.0,0.0,0.0,0.0,0.0,0.0,0.0,0.0,0.0,0.0,0.0,0.0,0.0,0.0,0.0,0.0,0.0,0.0,0.0,0.0,0.0,0.0,0.0,0.0,0.0,0.0,0.0,0.0,0.0,0.0,0.0,0.0,0.0,0.0,0.0,0.0,0.0,0.0,0.0,0.0,0.0,0.0,0.0,0.0,0.0,0.0,0.0,0.0,0.0,0.0,0.0,0.0,0.0,0.0,0.0,0.0,0.0,0.0,0.0,0.0,0.0,0.0,0.0,0.0,0.0,0.0,0.0,0.0,0.0,0.0,0.0,0.0,0.0,0.0,0.0,0.0,0.0,0.0,0.0,0.0,0.0,0.0,0.0,0.0,0.0,0.0,0.0,0.0,0.0,0.0,0.0,0.0,0.0,0.0,0.0,0.0,0.0,0.0,0.0,0.0,0.0,0.0,0.0,0.0,0.0,0.0,0.0,0.0,0.0,0.0,0.0,0.0,0.0,0.0,0.0,0.0,0.0,0.0,0.0,0.0,0.0,0.0,0.0,0.0,0.0,0.0,0.0,0.0,0.0,0.0,0.0,0.0,0.0,0.0,0.0,0.0,0.0,0.0,0.0,0.0,0.0,0.0,0.0,0.0,0.0,0.0,0.0,0.0,0.0,0.0,0.0,0.0,0.0,0.0,0.0,0.0,0.0,0.0,0.0,0.0,0.0,0.0,0.0,0.0,0.0,0.0,0.0,0.0,0.0,0.0,0.0,0.0,0.0,0.0,0.0,0.0,0.0,0.0,0.0,0.0,0.0,0.0,0.0,0.0,0.0,0.0,0.0,0.0,0.0,0.0,0.0,0.0,0.0,0.0,0.0,0.0,0.0,0.0,0.0,0.0,0.0,0.0,0.0,0.0,0.0,0.0,0.0,0.0,0.0,0.0,0.0,0.0,0.0,0.0,0.0,0.0,0.0,0.0,0.0,0.0,0.0,0.0,0.0,0.0,0.0,0.0,0.0,0.0,0.0,0.0,0.0,0.0,0.0,0.0,0.0,0.0,0.0,0.0,0.0,0.0,0.0,0.0,0.0,0.0,0.0,0.0,0.0,0.0,0.0,0.0,0.0,0.0,0.0,0.0,0.0,0.0,0.0,0.0,0.0,0.0,0.0,0.0,0.0,0.0,0.0,0.0,0.0,0.0,0.0,0.0,0.0,0.0,0.0,0.0,0.0,0.0,0.0,0.0,0.0,0.0,0.0,0.0,0.0,0.0,0.0,0.0,0.0,0.0,0.0,0.0,0.0,0.0,0.0,0.0,0.0,0.0,0.0,0.0,0.0,0.0,0.0,0.0,0.0,0.0,0.0,0.0,0.0,0.0,0.0,0.0,0.0,0.0,0.0,0.0,0.0,0.0,0.0,0.0,0.0,0.0,0.0,0.0,0.0,0.0,0.0,0.0,0.0,0.0,0.0,0.0,0.0,0.0,0.0,0.0,0.0,0.0,0.0,0.0,0.0,0.0,0.0,0.0,0.0,0.0,0.0,0.0,0.0,0.0,0.0,0.0,0.0,0.0,0.0,0.0,0.0,0.0,0.0,0.0,0.0,0.0,0.0,0.0,0.0,0.0,0.0,0.0,0.0,0.0,0.0,0.0,0.0,0.0,0.0,0.0,0.0,0.0,0.0,0.0,0.0,0.0,0.0,0.0,0.0,0.0,0.0,0.0,0.0,0.0,0.0,0.0,0.0,0.0,0.0,0.0,0.0,0.0,0.0,0.0,0.0,0.0,0.0,0.0,0.0,0.0,0.0,0.0,0.0,0.0,0.0,0.0,0.0,0.0,0.0,0.0,0.0,0.0,0.0,0.0,0.0,0.0,0.0,0.0,2.5899,0.0,0.0,0.0,0.0,0.0,0.0,0.0,0.0,0.0,0.0,0.0,0.0,0.0,0.0,0.0,0.0,0.0,0.0,0.0,0.0,0.0,0.0,0.0,0.0,0.0,0.0,0.0,0.0,0.0,0.0,0.0,0.0,0.0,0.0,0.0,0.0,0.0,0.0,0.0,0.0,0.0,0.0,0.0,0.0,0.0,0.0,0.0,0.0,0.0,0.0,0.0,0.0,0.0,0.0,0.0,0.0,0.0,0.0,0.0,0.0,0.0,0.0,0.0,0.0,0.0,0.0,0.0,0.0,0.0,0.0,0.0,0.0,0.0,0.0,0.0,0.0,0.0,0.0,0.0,0.0,0.0,0.0,0.0,0.0,0.0,0.0,0.0,0.0,0.0,0.0,0.0,0.0,0.0,0.0,0.0,0.0,0.0,0.0,0.0,0.0,0.0,0.0,0.0,0.0,0.0,0.0,0.0,0.0,0.0,0.0,2.5787,2.6669,2.5247,2.4753,2.5493,0.0,0.0,0.0,0.0,0.0,0.0,0.0,0.0,0.0,0.0,0.0,0.0,0.0,0.0,0.0,0.0,0.0,0.0,0.0,0.0,0.0,0.0,0.0,0.0,0.0,0.0,0.0,0.0,0.0,0.0,0.0,0.0,0.0,0.0,0.0,0.0,0.0,0.0,0.0,0.0,0.0,0.0,0.0,0.0,0.0,0.0,0.0,0.0,0.0,0.0,0.0,0.0,0.0,0.0,0.0,0.0,0.0,0.0,0.0,0.0,0.0,0.0,0.0,0.0,0.0,0.0,0.0,0.0,0.0,0.0,0.0,0.0,0.0,0.0,0.0,0.0,0.0,0.0,0.0,0.0,0.0,0.0,0.0,0.0,0.0,0.0,0.0,0.0,0.0,0.0,0.0,0.0,0.0,0.0,0.0,0.0,0.0,0.0,0.0,0.0,0.0,0.0,0.0,0.0,0.0,0.0,0.0,0.0,0.0,0.0,0.0,0.0,2.5205,2.4771,2.4879,0.0,0.0,0.0,0.0,0.0,0.0,0.0,0.0,0.0,0.0,0.0,0.0,0.0,0.0,0.0,0.0,0.0,0.0,0.0,0.0,0.0,0.0,0.0,0.0,0.0,0.0,0.0,0.0,0.0,0.0,0.0,0.0,0.0,0.0,0.0,0.0,0.0,0.0,0.0,0.0,0.0,0.0,0.0,0.0,0.0,0.0,0.0,0.0,0.0,0.0,0.0,0.0,0.0,0.0,0.0,0.0,0.0,0.0,0.0,0.0,0.0,0.0,0.0,0.0,0.0,0.0,0.0,0.0,0.0,0.0,0.0,0.0,0.0,0.0,0.0,0.0,0.0,0.0,0.0,0.0,0.0,0.0,0.0,0.0,0.0,0.0,0.0,0.0,0.0,0.0,0.0,0.0,0.0,0.0,0.0,0.0,0.0,0.0,0.0,0.0,0.0,0.0,0.0,0.0,0.0,0.0,0.0,0.0,0.0,0.0,2.5252,2.5818,2.5697,0.0,2.4712,0.0,0.0,0.0,0.0,0.0,0.0,0.0,0.0,0.0,0.0,0.0,0.0,0.0,0.0,0.0,0.0,0.0,0.0,0.0,0.0,0.0,0.0,0.0,0.0,0.0,0.0,0.0,0.0,0.0,0.0,0.0,0.0,0.0,0.0,0.0,0.0,0.0,0.0,0.0,0.0,0.0,0.0,0.0,0.0,0.0,0.0,0.0,0.0,0.0,0.0,0.0,0.0,0.0,0.0,0.0,0.0,0.0,0.0,0.0,0.0,0.0,0.0,0.0,0.0,0.0,0.0,0.0,0.0,0.0,0.0,0.0,0.0,0.0,0.0,0.0,0.0,0.0,0.0,0.0,0.0,0.0,0.0,0.0,0.0,0.0,0.0,0.0,0.0,0.0,0.0,0.0,0.0,0.0,0.0,0.0,0.0,0.0,0.0,0.0,0.0,0.0,0.0,0.0,0.0,0.0,0.0,0.0,0.0,0.0,0.0,2.5523,2.5091,2.5091,2.5004,0.0,0.0,0.0,0.0,0.0,0.0,0.0,0.0,0.0,0.0,0.0,0.0,0.0,0.0,0.0,0.0,0.0,0.0,0.0,0.0,0.0,0.0,0.0,0.0,0.0,0.0,0.0,0.0,0.0,0.0,0.0,0.0,0.0,0.0,0.0,0.0,0.0,0.0,0.0,0.0,0.0,0.0,0.0,0.0,0.0,0.0,0.0,0.0,0.0,0.0,0.0,0.0,0.0,0.0,0.0,0.0,0.0,0.0,0.0,0.0,0.0,0.0,0.0,0.0,0.0,0.0,0.0,0.0,0.0,0.0,0.0,0.0,0.0,0.0,0.0,0.0,0.0,0.0,0.0,0.0,0.0,0.0,0.0,0.0,0.0,0.0,0.0,0.0,0.0,0.0,0.0,0.0,0.0,0.0,0.0,0.0,0.0,0.0,0.0,0.0,0.0,0.0,0.0,0.0,0.0,0.0,0.0,0.0,0.0,0.0,2.5275,2.547,2.4875,2.498,2.4908,2.4572,0.0,0.0,0.0,0.0,0.0,0.0,0.0,0.0,0.0,0.0,0.0,0.0,0.0,0.0,0.0,0.0,0.0,0.0,0.0,0.0,0.0,0.0,0.0,0.0,0.0,0.0,0.0,0.0,0.0,0.0,0.0,0.0,0.0,0.0,0.0,0.0,0.0,0.0,0.0,0.0,0.0,0.0,0.0,0.0,0.0,0.0,0.0,0.0,0.0,0.0,0.0,0.0,0.0,0.0,0.0,0.0,0.0,0.0,0.0,0.0,0.0,0.0,0.0,0.0,0.0,0.0,0.0,0.0,0.0,0.0,0.0,0.0,0.0,0.0,0.0,0.0,0.0,0.0,0.0,0.0,0.0,0.0,0.0,0.0,0.0,0.0,0.0,0.0,0.0,0.0,0.0,0.0,0.0,0.0,0.0,0.0,0.0,0.0,0.0,0.0,0.0,0.0,0.0,0.0,0.0,0.0,0.0,0.0,2.527,2.5015,2.5033,2.5341,2.5853,2.5288,0.0,0.0,0.0,0.0,0.0,0.0,0.0,0.0,0.0,0.0,0.0,0.0,0.0,0.0,0.0,0.0,0.0,0.0,0.0,0.0,0.0,0.0,0.0,0.0,0.0,0.0,0.0,0.0,0.0,0.0,0.0,0.0,0.0,0.0,0.0,0.0,0.0,0.0,0.0,0.0,0.0,0.0,0.0,0.0,0.0,0.0,0.0,0.0,0.0,0.0,0.0,0.0,0.0,0.0,0.0,0.0,0.0,0.0,0.0,0.0,0.0,0.0,0.0,0.0,0.0,0.0,0.0,0.0,0.0,0.0,0.0,0.0,0.0,0.0,0.0,0.0,0.0,0.0,0.0,0.0,0.0,0.0,0.0,0.0,0.0,0.0,0.0,0.0,0.0,0.0,0.0,0.0,0.0,0.0,0.0,0.0,0.0,0.0,0.0,0.0,0.0,0.0,0.0,0.0,0.0,0.0,0.0,0.0,0.0,2.4509,2.4492,2.4899,2.5711,2.5227,2.4479,0.0,0.0,0.0,0.0,0.0,0.0,0.0,0.0,0.0,0.0,0.0,0.0,0.0,0.0,0.0,0.0,0.0,0.0,0.0,0.0,0.0,0.0,0.0,0.0,0.0,0.0,0.0,0.0,0.0,0.0,0.0,0.0,0.0,0.0,0.0,0.0,0.0,0.0,0.0,0.0,0.0,0.0,0.0,0.0,0.0,0.0,0.0,0.0,0.0,0.0,0.0,0.0,0.0,0.0,0.0,0.0,0.0,0.0,0.0,0.0,0.0,0.0,0.0,0.0,0.0,0.0,0.0,0.0,0.0,0.0,0.0,0.0,0.0,0.0,0.0,0.0,0.0,0.0,0.0,0.0,0.0,0.0,0.0,0.0,0.0,0.0,0.0,0.0,0.0,0.0,0.0,0.0,0.0,0.0,0.0,0.0,0.0,0.0,0.0,0.0,0.0,0.0,0.0,0.0,0.0,0.0,0.0,0.0,0.0,2.457,0.0,2.4918,2.5671,2.486,2.4016,0.0,0.0,0.0,0.0,0.0,0.0,0.0,0.0,0.0,0.0,0.0,0.0,0.0,0.0,0.0,0.0,0.0,0.0,0.0,0.0,0.0,0.0,0.0,0.0,0.0,0.0,0.0,0.0,0.0,0.0,0.0,0.0,0.0,0.0,0.0,0.0,0.0,0.0,0.0,0.0,0.0,0.0,0.0,0.0,0.0,0.0,0.0,0.0,0.0,0.0,0.0,0.0,0.0,0.0,0.0,0.0,0.0,0.0,0.0,0.0,0.0,0.0,0.0,0.0,0.0,0.0,0.0,0.0,0.0,0.0,0.0,0.0,0.0,0.0,0.0,0.0,0.0,0.0,0.0,0.0,0.0,0.0,0.0,0.0,0.0,0.0,0.0,0.0,0.0,0.0,0.0,0.0,0.0,0.0,0.0,0.0,0.0,0.0,0.0,0.0,0.0,0.0,0.0,0.0,0.0,0.0,0.0,0.0,2.4632,2.5615,2.5269,2.5049,2.5199,2.4885,2.3996,0.0,0.0,0.0,0.0,0.0,0.0,0.0,0.0,0.0,0.0,0.0,0.0,0.0,0.0,0.0,0.0,0.0,0.0,0.0,0.0,0.0,0.0,0.0,0.0,0.0,0.0,0.0,0.0,0.0,0.0,0.0,0.0,0.0,0.0,0.0,0.0,0.0,0.0,0.0,0.0,0.0,0.0,0.0,0.0,0.0,0.0,0.0,0.0,0.0,0.0,0.0,0.0,0.0,0.0,0.0,0.0,0.0,0.0,0.0,0.0,0.0,0.0,0.0,0.0,0.0,0.0,0.0,0.0,0.0,0.0,0.0,0.0,0.0,0.0,0.0,0.0,0.0,0.0,0.0,0.0,0.0,0.0,0.0,0.0,0.0,0.0,0.0,0.0,0.0,0.0,0.0,0.0,0.0,0.0,0.0,0.0,0.0,0.0,0.0,0.0,0.0,0.0,0.0,0.0,0.0,0.0,0.0,0.0,0.0,2.5175,2.4585,2.4354,2.4488,2.3947,2.3407,0.0,0.0,0.0,0.0,0.0,0.0,0.0,0.0,0.0,0.0,0.0,0.0,0.0,0.0,0.0,0.0,0.0,0.0,0.0,0.0,0.0,0.0,0.0,0.0,0.0,0.0,0.0,0.0,0.0,0.0,0.0,0.0,0.0,0.0,0.0,0.0,0.0,0.0,0.0,0.0,0.0,0.0,0.0,0.0,0.0,0.0,0.0,0.0,0.0,0.0,0.0,0.0,0.0,0.0,0.0,0.0,0.0,0.0,0.0,0.0,0.0,0.0,0.0,0.0,0.0,0.0,0.0,0.0,0.0,0.0,0.0,0.0,0.0,0.0,0.0,0.0,0.0,0.0,0.0,0.0,0.0,0.0,0.0,0.0,0.0,0.0,0.0,0.0,0.0,0.0,0.0,0.0,0.0,0.0,0.0,0.0,0.0,0.0,0.0,0.0,0.0,0.0,0.0,0.0,0.0,0.0,0.0,0.0,0.0,2.461,2.4572,2.4494,2.4358,2.3874,2.3459,2.3164,0.0,0.0,0.0,0.0,0.0,0.0,0.0,0.0,0.0,0.0,0.0,0.0,0.0,0.0,0.0,0.0,0.0,0.0,0.0,0.0,0.0,0.0,0.0,0.0,0.0,0.0,0.0,0.0,0.0,0.0,0.0,0.0,0.0,0.0,0.0,0.0,0.0,0.0,0.0,0.0,0.0,0.0,0.0,0.0,0.0,0.0,0.0,0.0,0.0,0.0,0.0,0.0,0.0,0.0,0.0,0.0,0.0,0.0,0.0,0.0,0.0,0.0,0.0,0.0,0.0,0.0,0.0,0.0,0.0,0.0,0.0,0.0,0.0,0.0,0.0,0.0,0.0,0.0,0.0,0.0,0.0,0.0,0.0,0.0,0.0,0.0,0.0,0.0,0.0,0.0,0.0,0.0,0.0,0.0,0.0,0.0,0.0,0.0,0.0,0.0,0.0,0.0,0.0,0.0,0.0,0.0,0.0,0.0,2.3967,2.5128,2.5414,2.4713,2.4559,2.4091,0.0,0.0,0.0,0.0,0.0,0.0,0.0,0.0,0.0,0.0,0.0,0.0,0.0,0.0,0.0,0.0,0.0,0.0,0.0,0.0,0.0,0.0,0.0,0.0,0.0,0.0,0.0,0.0,0.0,0.0,0.0,0.0,0.0,0.0,0.0,0.0,0.0,0.0,0.0,0.0,0.0,0.0,0.0,0.0,0.0,0.0,0.0,0.0,0.0,0.0,0.0,0.0,0.0,0.0,0.0,0.0,0.0,0.0,0.0,0.0,0.0,0.0,0.0,0.0,0.0,0.0,0.0,0.0,0.0,0.0,0.0,0.0,0.0,0.0,0.0,0.0,0.0,0.0,0.0,0.0,0.0,0.0,0.0,0.0,0.0,0.0,0.0,0.0,0.0,0.0,0.0,0.0,0.0,0.0,0.0,0.0,0.0,0.0,0.0,0.0,0.0,0.0,0.0,0.0,0.0,0.0,0.0,0.0,0.0,2.4695,2.5914,2.6294,2.5634,2.4901,2.4647,0.0,0.0,0.0,0.0,0.0,0.0,0.0,0.0,0.0,0.0,0.0,0.0,0.0,0.0,0.0,0.0,0.0,0.0,0.0,0.0,0.0,0.0,0.0,0.0,0.0,0.0,0.0,0.0,0.0,0.0,0.0,0.0,0.0,0.0,0.0,0.0,0.0,0.0,0.0,0.0,0.0,0.0,0.0,0.0,0.0,0.0,0.0,0.0,0.0,0.0,0.0,0.0,0.0,0.0,0.0,0.0,0.0,0.0,0.0,0.0,0.0,0.0,0.0,0.0,0.0,0.0,0.0,0.0,0.0,0.0,0.0,0.0,0.0,0.0,0.0,0.0,0.0,0.0,0.0,0.0,0.0,0.0,0.0,0.0,0.0,0.0,0.0,0.0,0.0,0.0,0.0,0.0,0.0,0.0,0.0,0.0,0.0,0.0,0.0,0.0,0.0,0.0,0.0,0.0,0.0,0.0,0.0,0.0,2.5223,2.5118,2.6214,2.6672,2.6407,2.5701,2.5235,0.0,0.0,0.0,0.0,0.0,0.0,0.0,0.0,0.0,0.0,0.0,0.0,0.0,0.0,0.0,0.0,0.0,0.0,0.0,0.0,0.0,0.0,0.0,0.0,0.0,0.0,0.0,0.0,0.0,0.0,0.0,0.0,0.0,0.0,0.0,0.0,0.0,0.0,0.0,0.0,0.0,0.0,0.0,0.0,0.0,0.0,0.0,0.0,0.0,0.0,0.0,0.0,0.0,0.0,0.0,0.0,0.0,0.0,0.0,0.0,0.0,0.0,0.0,0.0,0.0,0.0,0.0,0.0,0.0,0.0,0.0,0.0,0.0,0.0,0.0,0.0,0.0,0.0,0.0,0.0,0.0,0.0,0.0,0.0,0.0,0.0,0.0,0.0,0.0,0.0,0.0,0.0,0.0,0.0,0.0,0.0,0.0,0.0,0.0,0.0,0.0,0.0,0.0,0.0,0.0,0.0,0.0,0.0,2.5432,2.538,2.6269,2.6775,2.6859,2.6628,2.5848,0.0,0.0,0.0,0.0,0.0,0.0,0.0,0.0,0.0,0.0,0.0,0.0,0.0,0.0,0.0,0.0,0.0,0.0,0.0,0.0,0.0,0.0,0.0,0.0,0.0,0.0,0.0,0.0,0.0,0.0,0.0,0.0,0.0,0.0,0.0,0.0,0.0,0.0,0.0,0.0,0.0,0.0,0.0,0.0,0.0,0.0,0.0,0.0,0.0,0.0,0.0,0.0,0.0,0.0,0.0,0.0,0.0,0.0,0.0,0.0,0.0,0.0,0.0,0.0,0.0,0.0,0.0,0.0,0.0,0.0,0.0,0.0,0.0,0.0,0.0,0.0,0.0,0.0,0.0,0.0,0.0,0.0,0.0,0.0,0.0,0.0,0.0,0.0,0.0,0.0,0.0,0.0,0.0,0.0,0.0,0.0,0.0,0.0,0.0,0.0,0.0,0.0,0.0,0.0,0.0,0.0,0.0,0.0,2.6063,2.543,2.637,2.6842,2.6742,2.6454,2.5928,0.0,0.0,0.0,0.0,0.0,0.0,0.0,0.0,0.0,0.0,0.0,0.0,0.0,0.0,0.0,0.0,0.0,0.0,0.0,0.0,0.0,0.0,0.0,0.0,0.0,0.0,0.0,0.0,0.0,0.0,0.0,0.0,0.0,0.0,0.0,0.0,0.0,0.0,0.0,0.0,0.0,0.0,0.0,0.0,0.0,0.0,0.0,0.0,2.5933,0.0,0.0,0.0,0.0,0.0,0.0,0.0,0.0,0.0,0.0,0.0,0.0,0.0,0.0,0.0,0.0,0.0,0.0,0.0,0.0,0.0,0.0,0.0,0.0,0.0,0.0,0.0,0.0,0.0,0.0,0.0,0.0,0.0,0.0,0.0,0.0,0.0,0.0,0.0,0.0,0.0,0.0,0.0,0.0,0.0,0.0,0.0,0.0,0.0,0.0,0.0,0.0,0.0,0.0,0.0,0.0,0.0,0.0,0.0,2.5965,2.566,2.6251,2.6555,2.6505,2.6449,2.6147,0.0,0.0,0.0,0.0,0.0,0.0,0.0,0.0,0.0,0.0,0.0,0.0,0.0,0.0,0.0,0.0,0.0,0.0,0.0,0.0,0.0,0.0,0.0,0.0,0.0,0.0,0.0,0.0,0.0,0.0,0.0,0.0,0.0,0.0,0.0,0.0,0.0,0.0,0.0,0.0,0.0,0.0,0.0,0.0,0.0,0.0,0.0,0.0,0.0,0.0,0.0,0.0,0.0,0.0,0.0,0.0,0.0,0.0,0.0,0.0,0.0,0.0,0.0,0.0,0.0,0.0,0.0,0.0,0.0,0.0,0.0,0.0,0.0,0.0,0.0,0.0,0.0,0.0,0.0,0.0,0.0,0.0,0.0,0.0,0.0,0.0,0.0,0.0,0.0,0.0,0.0,0.0,0.0,0.0,0.0,0.0,0.0,0.0,0.0,0.0,0.0,0.0,0.0,0.0,0.0,0.0,0.0,2.5203,2.5681,2.5994,2.6206,2.6347,2.64,2.6607,2.6316,2.5517,0.0,0.0,0.0,0.0,0.0,0.0,0.0,0.0,0.0,0.0,0.0,0.0,0.0,0.0,0.0,0.0,0.0,0.0,0.0,0.0,0.0,0.0,0.0,0.0,0.0,0.0,0.0,0.0,0.0,0.0,0.0,0.0,0.0,0.0,0.0,0.0,0.0,0.0,2.4988,2.6293,0.0,0.0,0.0,0.0,0.0,0.0,0.0,0.0,2.6553,0.0,0.0,0.0,0.0,0.0,0.0,0.0,0.0,0.0,0.0,0.0,0.0,0.0,0.0,0.0,0.0,0.0,0.0,0.0,0.0,0.0,0.0,0.0,0.0,0.0,0.0,0.0,0.0,0.0,0.0,0.0,0.0,0.0,0.0,0.0,0.0,0.0,0.0,0.0,0.0,0.0,0.0,0.0,0.0,0.0,0.0,0.0,0.0,0.0,0.0,0.0,0.0,0.0,0.0,0.0,0.0,2.5452,2.5971,2.6261,2.6332,2.6691,2.6842,2.6809,2.6742,2.6316,2.5552,0.0,0.0,0.0,0.0,0.0,0.0,0.0,0.0,0.0,0.0,0.0,0.0,0.0,0.0,0.0,0.0,0.0,0.0,0.0,0.0,0.0,0.0,0.0,0.0,0.0,0.0,0.0,0.0,0.0,0.0,0.0,0.0,0.0,0.0,0.0,0.0,0.0,0.0,0.0,2.6657,2.7246,0.0,0.0,0.0,0.0,0.0,0.0,0.0,0.0,2.6721,0.0,0.0,0.0,0.0,0.0,0.0,0.0,0.0,0.0,0.0,0.0,0.0,0.0,0.0,0.0,0.0,0.0,0.0,0.0,0.0,0.0,0.0,0.0,0.0,0.0,0.0,0.0,0.0,0.0,0.0,0.0,0.0,0.0,0.0,0.0,0.0,0.0,0.0,0.0,0.0,0.0,0.0,0.0,0.0,0.0,0.0,0.0,0.0,0.0,0.0,0.0,0.0,0.0,0.0,0.0,2.5128,2.5695,2.6033,2.6137,2.6383,2.6504,2.6435,2.6219,2.5953,0.0,0.0,0.0,0.0,0.0,0.0,0.0,0.0,0.0,0.0,0.0,0.0,0.0,0.0,0.0,0.0,0.0,0.0,0.0,0.0,0.0,0.0,0.0,0.0,0.0,0.0,0.0,0.0,0.0,0.0,0.0,0.0,0.0,0.0,0.0,0.0,0.0,0.0,0.0,0.0,2.6976,2.754,2.7448,0.0,0.0,0.0,0.0,0.0,0.0,2.7145,2.7161,0.0,0.0,0.0,0.0,0.0,0.0,0.0,0.0,0.0,0.0,0.0,0.0,0.0,0.0,0.0,0.0,0.0,0.0,0.0,0.0,0.0,0.0,0.0,0.0,0.0,0.0,0.0,0.0,0.0,0.0,0.0,0.0,0.0,0.0,0.0,0.0,0.0,0.0,0.0,0.0,0.0,0.0,0.0,0.0,0.0,0.0,0.0,0.0,0.0,0.0,0.0,0.0,0.0,0.0,0.0,2.4512,2.5188,2.564,2.5881,2.6049,2.6101,2.5994,2.5715,2.5527,0.0,0.0,0.0,0.0,0.0,0.0,0.0,0.0,0.0,0.0,0.0,0.0,0.0,0.0,0.0,0.0,0.0,0.0,0.0,0.0,0.0,0.0,0.0,0.0,0.0,0.0,0.0,0.0,0.0,0.0,0.0,0.0,0.0,0.0,0.0,0.0,0.0,0.0,0.0,0.0,0.0,2.8039,2.8248,2.7931,0.0,0.0,0.0,0.0,2.7279,2.7616,0.0,0.0,0.0,0.0,0.0,0.0,0.0,0.0,0.0,0.0,0.0,0.0,0.0,0.0,0.0,0.0,0.0,0.0,0.0,0.0,0.0,0.0,0.0,0.0,0.0,0.0,0.0,0.0,0.0,0.0,0.0,0.0,0.0,0.0,0.0,0.0,0.0,0.0,0.0,0.0,0.0,0.0,0.0,0.0,0.0,0.0,0.0,0.0,0.0,0.0,0.0,0.0,0.0,0.0,0.0,0.0,2.4275,2.4963,2.5508,2.5885,2.6154,2.6173,2.601,2.5749,2.5432,0.0,0.0,0.0,0.0,0.0,0.0,0.0,0.0,0.0,0.0,0.0,0.0,0.0,0.0,0.0,0.0,0.0,0.0,0.0,0.0,0.0,0.0,0.0,0.0,0.0,0.0,0.0,0.0,0.0,0.0,0.0,0.0,0.0,0.0,0.0,0.0,0.0,0.0,0.0,0.0,0.0,2.8992,2.7788,2.8106,2.849,0.0,0.0,2.7901,2.8909,2.8611,0.0,0.0,0.0,0.0,0.0,0.0,0.0,0.0,0.0,0.0,0.0,0.0,0.0,0.0,0.0,0.0,0.0,0.0,0.0,0.0,0.0,0.0,0.0,0.0,0.0,0.0,0.0,0.0,0.0,0.0,0.0,0.0,0.0,0.0,0.0,0.0,0.0,0.0,0.0,0.0,0.0,0.0,0.0,0.0,0.0,0.0,0.0,0.0,0.0,0.0,0.0,0.0,0.0,0.0,0.0,2.4811,2.5118,2.5811,2.6233,2.6454,2.6261,2.6046,2.5848,2.541,2.5136,0.0,0.0,0.0,0.0,0.0,0.0,0.0,0.0,0.0,0.0,0.0,0.0,0.0,0.0,0.0,0.0,0.0,0.0,0.0,0.0,0.0,0.0,0.0,0.0,0.0,0.0,0.0,0.0,0.0,0.0,0.0,0.0,0.0,0.0,0.0,0.0,0.0,0.0,0.0,0.0,0.0,0.0,2.9348,2.9237,0.0,0.0,0.0,2.8732,2.8965,0.0,0.0,0.0,0.0,0.0,0.0,0.0,0.0,0.0,0.0,0.0,0.0,0.0,0.0,0.0,0.0,0.0,0.0,0.0,0.0,0.0,0.0,0.0,0.0,0.0,0.0,0.0,0.0,0.0,0.0,0.0,0.0,0.0,0.0,0.0,0.0,0.0,0.0,0.0,0.0,0.0,0.0,0.0,0.0,0.0,0.0,0.0,0.0,0.0,0.0,0.0,0.0,0.0,0.0,0.0,0.0,0.0,2.5703,2.6578,2.6971,2.6798,2.633,2.588,2.5572,2.5046,0.0,0.0,0.0,0.0,0.0,0.0,0.0,0.0,0.0,0.0,0.0,0.0,0.0,0.0,0.0,0.0,0.0,0.0,0.0,0.0,0.0,0.0,0.0,0.0,0.0,0.0,0.0,2.0969,0.0,0.0,0.0,0.0,0.0,0.0,0.0,0.0,0.0,0.0,0.0,0.0,0.0,0.0,2.9938,3.083,3.0336,2.9802,0.0,0.0,2.9403,2.917,2.935,2.9098,0.0,0.0,0.0,0.0,0.0,0.0,0.0,0.0,0.0,0.0,0.0,0.0,0.0,0.0,0.0,0.0,0.0,0.0,0.0,0.0,0.0,0.0,0.0,0.0,0.0,0.0,0.0,0.0,0.0,0.0,0.0,0.0,0.0,0.0,0.0,0.0,0.0,0.0,0.0,0.0,0.0,0.0,0.0,0.0,0.0,0.0,0.0,0.0,0.0,0.0,0.0,0.0,0.0,0.0,2.5428,2.5479,2.6885,2.7276,2.655,2.639,2.5902,2.5185,2.4794,2.458,0.0,0.0,0.0,0.0,0.0,0.0,0.0,0.0,0.0,0.0,0.0,0.0,0.0,0.0,0.0,0.0,0.0,0.0,0.0,0.0,0.0,0.0,0.0,0.0,0.0,0.0,0.0,0.0,0.0,0.0,0.0,0.0,0.0,0.0,0.0,0.0,0.0,0.0,0.0,0.0,0.0,3.1913,3.1517,3.101,3.069,0.0,2.9938,2.9625,3.0212,3.0091,2.9463,2.7948,0.0,0.0,0.0,0.0,0.0,0.0,0.0,0.0,0.0,0.0,0.0,0.0,0.0,0.0,0.0,0.0,0.0,0.0,0.0,0.0,0.0,0.0,0.0,0.0,0.0,0.0,0.0,0.0,0.0,0.0,0.0,0.0,0.0,0.0,0.0,0.0,0.0,0.0,0.0,0.0,0.0,0.0,0.0,0.0,0.0,0.0,0.0,0.0,0.0,0.0,0.0,0.0,0.0,2.6234,2.6218,2.774,2.8086,2.7211,2.668,2.6022,2.5256,2.4971,2.4746,0.0,0.0,0.0,0.0,0.0,0.0,0.0,0.0,0.0,0.0,0.0,0.0,0.0,0.0,0.0,0.0,0.0,0.0,0.0,0.0,0.0,0.0,0.0,0.0,0.0,0.0,0.0,0.0,2.3857,2.3968,2.4235,0.0,0.0,0.0,0.0,0.0,0.0,0.0,0.0,0.0,0.0,3.1866,3.1879,3.1688,0.0,0.0,3.1482,3.143,3.111,3.092,3.0299,2.8753,2.8633,0.0,0.0,0.0,0.0,0.0,0.0,0.0,0.0,0.0,0.0,0.0,0.0,0.0,0.0,0.0,0.0,0.0,0.0,0.0,0.0,0.0,0.0,0.0,0.0,0.0,0.0,0.0,0.0,0.0,0.0,0.0,0.0,0.0,0.0,0.0,0.0,0.0,0.0,0.0,0.0,0.0,0.0,0.0,0.0,0.0,0.0,0.0,0.0,0.0,0.0,0.0,0.0,2.6994,2.7454,2.8731,2.8958,2.8045,2.7252,2.6502,2.5731,2.5261,2.4894,0.0,0.0,0.0,0.0,0.0,0.0,0.0,0.0,0.0,0.0,0.0,0.0,0.0,0.0,0.0,0.0,0.0,0.0,0.0,0.0,0.0,0.0,0.0,0.0,0.0,0.0,0.0,0.0,2.4622,2.4666,2.5441,0.0,0.0,0.0,0.0,0.0,0.0,0.0,0.0,0.0,0.0,3.2644,3.293,3.2841,3.2605,3.2328,3.2644,3.269,3.2077,3.1792,3.1249,2.9933,0.0,0.0,0.0,0.0,0.0,0.0,0.0,0.0,0.0,0.0,0.0,0.0,0.0,0.0,0.0,0.0,0.0,0.0,0.0,0.0,0.0,0.0,0.0,0.0,0.0,0.0,0.0,2.4329,0.0,0.0,2.51,0.0,0.0,0.0,0.0,0.0,0.0,0.0,0.0,0.0,0.0,0.0,0.0,0.0,0.0,0.0,0.0,0.0,0.0,0.0,0.0,0.0,0.0,2.7572,2.9126,2.9746,2.9812,2.9034,2.8184,2.7348,2.6659,2.5637,2.4938,2.4631,0.0,0.0,0.0,0.0,0.0,0.0,0.0,0.0,0.0,0.0,0.0,0.0,0.0,0.0,0.0,0.0,0.0,0.0,0.0,0.0,0.0,0.0,0.0,0.0,0.0,0.0,2.4617,2.4909,2.5795,0.0,0.0,0.0,0.0,0.0,0.0,0.0,0.0,0.0,3.4207,3.4547,3.4712,3.4829,3.4584,3.4088,3.3465,3.3184,3.3011,3.3098,3.2818,3.2331,0.0,0.0,0.0,0.0,0.0,0.0,0.0,0.0,0.0,0.0,0.0,0.0,0.0,0.0,0.0,0.0,0.0,0.0,0.0,0.0,0.0,0.0,0.0,0.0,0.0,0.0,0.0,2.4978,2.483,0.0,0.0,0.0,0.0,0.0,0.0,0.0,0.0,0.0,0.0,0.0,2.7046,2.7896,0.0,0.0,0.0,0.0,0.0,0.0,0.0,0.0,0.0,0.0,0.0,0.0,2.7862,2.8407,2.958,2.9845,2.9124,2.8672,2.7867,2.674,2.6197,2.5754,2.5383,0.0,0.0,0.0,0.0,0.0,0.0,0.0,0.0,0.0,0.0,0.0,0.0,0.0,0.0,0.0,0.0,0.0,0.0,0.0,0.0,0.0,0.0,0.0,0.0,0.0,2.5911,0.0,0.0,0.0,0.0,0.0,0.0,0.0,0.0,0.0,0.0,3.2301,3.3263,3.4651,3.4861,3.4848,3.4704,3.4972,3.5121,0.0,0.0,0.0,0.0,0.0,0.0,0.0,0.0,0.0,0.0,0.0,0.0,0.0,0.0,3.5895,3.2366,3.1615,3.1572,3.1769,0.0,0.0,0.0,0.0,0.0,0.0,0.0,0.0,0.0,0.0,0.0,0.0,0.0,0.0,2.5051,2.5051,2.5098,0.0,0.0,0.0,0.0,0.0,0.0,0.0,0.0,2.7238,2.7663,2.8405,2.9259,2.9688,0.0,2.9864,2.923,0.0,0.0,0.0,0.0,0.0,0.0,0.0,0.0,2.8459,2.9263,2.9949,3.0086,2.9568,2.9156,2.8461,2.7574,2.672,2.6142,2.5885,2.5053,2.4746,0.0,0.0,0.0,0.0,0.0,0.0,0.0,0.0,0.0,0.0,0.0,0.0,0.0,0.0,0.0,0.0,0.0,0.0,0.0,0.0,0.0,0.0,0.0,2.6737,0.0,0.0,0.0,0.0,0.0,0.0,0.0,0.0,0.0,3.33,3.3665,3.4337,3.538,3.541,3.5394,3.5539,0.0,0.0,0.0,0.0,0.0,0.0,0.0,3.6913,3.6922,3.6353,3.6168,3.6861,3.7278,3.7431,3.6992,0.0,0.0,3.4558,3.387,3.385,3.404,3.5121,3.5898,3.5667,3.6648,3.7342,0.0,0.0,0.0,0.0,2.5139,0.0,0.0,0.0,2.3457,2.388,0.0,2.5163,0.0,0.0,0.0,0.0,2.6792,2.8037,0.0,0.0,2.8608,2.9486,3.0076,3.0888,3.132,3.15,3.2823,3.2793,3.1355,2.9332,0.0,0.0,0.0,0.0,0.0,0.0,2.942,3.1519,3.0902,3.0543,3.0493,2.9626,2.9124,2.9001,2.7332,2.6317,2.6081,2.585,2.5605,2.5406,2.5058,0.0,0.0,0.0,0.0,0.0,0.0,0.0,0.0,0.0,0.0,0.0,0.0,0.0,0.0,0.0,0.0,0.0,0.0,0.0,0.0,2.7439,0.0,0.0,0.0,0.0,0.0,0.0,0.0,0.0,0.0,3.5788,3.5172,3.5234,3.5665,3.6485,0.0,0.0,0.0,0.0,3.788,3.8842,3.9007,3.9025,3.906,3.8639,3.8288,3.8322,0.0,0.0,3.76,3.7715,3.7846,3.7956,3.8184,3.8384,3.9013,3.8376,3.8184,3.8931,3.8457,3.8487,3.9153,3.9447,3.9939,2.6579,0.0,0.0,0.0,0.0,2.7118,2.7349,2.7765,2.6949,2.6352,2.5905,2.579,0.0,0.0,0.0,0.0,0.0,0.0,2.9287,2.991,3.0275,3.0647,3.1005,3.1339,3.1577,3.1732,3.234,3.2729,3.2896,3.1926,3.0662,2.9228,0.0,0.0,0.0,0.0,3.1003,3.1449,3.1456,3.1183,3.0651,3.0245,2.969,2.9032,2.8443,2.7991,2.7838,2.7656,2.7412,2.715,2.6059,0.0,0.0,0.0,0.0,0.0,0.0,0.0,0.0,0.0,0.0,0.0,0.0,0.0,0.0,0.0,0.0,0.0,0.0,0.0,2.8456,2.8244,2.8728,0.0,0.0,0.0,0.0,0.0,0.0,0.0,0.0,0.0,3.7958,3.751,3.7433,0.0,0.0,3.8269,3.8521,3.8399,3.8614,3.9475,3.9658,0.0,4.0478,4.014,3.9948,4.055,4.0227,3.9785,3.9591,3.946,3.9395,3.9345,3.9511,3.9744,3.9863,3.8976,3.8278,3.832,3.8526,3.8628,3.8424,3.8899,3.9253,2.7944,2.773,2.8037,2.8314,2.852,2.8351,2.8472,2.8711,2.8003,2.7423,2.6966,2.6977,2.6514,2.5803,2.6746,0.0,0.0,0.0,3.0372,3.0925,3.1035,3.1358,3.1736,3.1916,3.2207,3.2627,3.2934,3.3353,3.3968,3.3594,3.2747,3.1317,0.0,3.1269,3.1323,3.1804,3.2145,3.2275,3.2001,3.1633,3.1158,3.0591,2.992,2.9039,2.8874,2.8747,2.8619,2.849,2.8308,2.8077,2.7173,2.6528,0.0,0.0,0.0,0.0,0.0,0.0,0.0,0.0,0.0,0.0,0.0,2.7694,2.6473,0.0,0.0,0.0,2.8911,3.0132,3.0097,3.0523,0.0,0.0,0.0,0.0,0.0,0.0,0.0,3.935,3.9476,3.9588,4.0147,3.9729,3.9233,3.8903,3.8842,3.9008,3.9373,0.0,3.9527,4.0453,4.0593,4.0749,4.1276,4.0961,4.0777,4.1111,4.0884,4.0628,4.0483,4.0303,4.0188,4.0138,4.0238,4.0305,4.0305,3.954,3.8945,3.8882,3.9221,3.9308,3.8836,3.9123,3.9276,2.8901,2.8495,2.8282,2.8577,2.9197,2.9031,2.8554,2.7849,2.7386,2.7499,2.8025,2.8267,2.836,2.8337,2.9506,0.0,2.9769,3.0924,3.129,3.1013,3.1265,3.1729,3.2396,3.2533,3.307,3.3882,3.4134,3.4349,3.4496,3.46,3.4278,3.3609,3.3053,3.2899,3.3159,3.2887,3.3089,3.3772,3.279,3.2127,3.1874,3.0863,2.9933,2.9202,2.9004,2.8844,2.8699,2.8716,2.8613,2.8423,2.8241,2.7732,2.6863,0.0,0.0,0.0,0.0,0.0,0.0,0.0,0.0,0.0,0.0,0.0,0.0,0.0,0.0,2.9692,3.1008,0.0,3.205,3.3554,0.0,0.0,0.0,3.6057,3.5981,3.7812,3.9128,3.9368,0.0,0.0,4.156,4.1542,4.0884,3.9029,3.8812,3.916,4.0095,4.014,4.0446,4.134,4.149,4.141,4.1436,4.1174,4.0879,4.0645,4.0517,4.0534,4.0485,4.0387,4.0387,4.0485,4.0387,4.0305,4.0305,4.0286,4.0288,4.022,4.0254,4.0187,3.9918,3.9985,3.9969,2.8179,2.8482,2.8309,2.8555,2.9217,2.9471,2.9266,2.8751,2.8095,2.7911,2.8097,2.7567,2.7664,2.8251,2.8763,2.9627,3.0693,3.0975,3.1663,3.2683,3.2751,3.295,3.3196,3.3351,3.3585,3.3899,3.4151,3.4399,3.4643,3.4764,3.4964,3.5292,3.5147,3.4723,3.4067,3.4497,3.4703,3.4682,3.4362,3.3694,3.2667,3.1692,3.1046,3.0751,3.0065,2.9702,2.9615,2.9615,2.9512,2.938,2.8764,2.8133,2.762,2.6298,0.0,0.0,0.0,0.0,0.0,0.0,0.0,0.0,0.0,3.011,2.8507,0.0,3.0938,0.0,3.2268,3.3294,3.3507,3.4318,0.0,0.0,3.7399,3.8246,3.9939,3.9878,4.0026,4.0929,4.1091,4.1163,4.1255,4.13,4.1087,4.0417,4.0642,4.0981,4.12,4.0577,4.0401,4.1046,4.0694,4.0383,4.0938,4.1012,4.0871,4.068,4.0648,4.0631,4.0517,4.0485,4.0485,4.0485,4.0485,4.0436,4.0436,4.0436,4.0387,4.0305,4.0238,4.0018,3.9542,3.9798,3.9968,2.8669,2.9001,2.9174,2.9653,3.0265,2.9671,2.9057,2.8477,2.8137,2.8267,2.864,2.8612,2.8828,2.9261,2.9464,3.0216,3.1374,3.1389,3.2098,3.3293,3.3293,3.3346,3.3503,3.3555,3.3745,3.4,3.4201,3.4448,3.4691,3.4899,3.5195,3.5633,3.5677,3.5531,3.5157,3.5665,3.585,3.5704,3.5128,3.4219,3.2994,3.2017,3.1533,3.1613,3.079,3.0393,3.0559,3.0559,3.0369,2.9931,2.9477,2.9145,2.8805,2.752,2.7171,0.0,0.0,0.0,0.0,0.0,0.0,0.0,0.0,0.0,0.0,0.0,3.2526,3.309,3.4488,3.558,3.6232,3.696,3.7939,3.9234,3.9417,3.9896,4.1076,4.0631,4.0545,4.1192,4.1088,4.0995,4.1041,4.1088,4.1041,4.0935,4.1105,4.129,4.1255,4.077,4.062,4.1065,4.0695,4.0481,4.0931,4.0935,4.084,4.0697,4.0631,4.0583,4.0583,4.0534,4.0534,4.0534,4.0485,4.0387,4.0387,4.0387,4.0337,4.0387,4.0288,4.0035,3.9679,4.0031,4.0248,2.9435,2.9508,3.019,3.0793,3.1165,2.9593,2.8751,2.8426,2.8441,2.8785,2.9433,3.0172,3.0582,3.0628,3.0642,3.1146,3.1992,3.1992,3.2437,3.3309,3.3293,3.3361,3.3503,3.3487,3.371,3.4101,3.425,3.4448,3.4691,3.4947,3.5135,3.5337,3.5475,3.5728,3.6139,3.6433,3.6574,3.6574,3.5437,3.438,3.3453,3.2457,3.2033,3.2184,3.1453,3.1151,3.1397,3.15,3.1244,3.0575,3.0571,3.0479,3.0197,2.9403,2.9745,0.0,3.0894,0.0,0.0,0.0,0.0,0.0,0.0,0.0,0.0,3.4057,3.4408,3.561,3.6997,3.8209,3.9146,3.9957,4.0585,4.0938,4.0995,4.0948,4.0745,4.0745,4.0793,4.0871,4.0871,4.0871,4.0918,4.0871,4.0871,4.0871,4.0918,4.0918,4.0935,4.0901,4.0884,4.1093,4.1093,4.1024,4.1029,4.0982,4.0888,4.0697,4.0583,4.0551,4.0648,4.06,4.0534,4.0648,4.0551,4.0389,4.0474,4.0323,4.0222,4.0557,4.044,4.0288,4.0187,4.0417,4.0676,2.8727,2.8799,2.9362,2.9435,2.9101,2.9261,3.0175,3.1586,3.109,3.0628,3.0241,3.0232,3.0447,3.0911,3.0911,3.1465,3.2492,3.2477,3.278,3.3293,3.3293,3.3361,3.3503,3.3607,3.3813,3.4084,3.4349,3.4529,3.4691,3.4835,3.5165,3.5543,3.5694,3.5941,3.635,0.0,0.0,0.0,3.5934,3.5538,3.5351,3.4721,3.4062,3.3453,3.2656,0.0,3.1466,3.2017,3.229,3.2171,3.2588,0.0,0.0,0.0,0.0,0.0,0.0,0.0,0.0,0.0,0.0,0.0,3.4257,3.3848,3.3945,3.6243,3.7532,3.706,3.8814,3.9804,3.9392,4.0122,4.0716,4.0884,4.1029,4.1047,4.0888,4.0888,4.0888,4.0888,4.0888,4.0888,4.0871,4.0871,4.0888,4.0888,4.0871,4.0871,4.0905,4.0905,4.0935,4.1093,4.1105,4.1152,4.0965,4.1,4.0935,4.0631,4.0534,4.0534,4.0631,4.0583,4.0583,4.081,4.0745,4.0774,4.1221,4.0763,4.0493,4.0968,4.0662,4.0355,4.0551,4.0485,4.0468,2.9537,2.958,2.9899,3.0003,0.0,3.038,3.1332,3.247,3.0673,3.0022,3.0354,3.0792,3.1131,3.148,3.183,3.2423,3.3151,3.3518,3.3804,3.3935,3.3935,3.3866,3.371,3.3745,3.4,3.43,3.4448,3.4594,3.4804,3.4835,3.5071,3.535,3.5487,3.5694,3.5975,3.6002,3.6131,3.6266,3.5941,3.5677,3.5374,3.4667,3.4165,3.3872,3.316,0.0,0.0,0.0,0.0,0.0,0.0,0.0,0.0,0.0,0.0,3.2396,3.2655,3.3144,3.3963,3.4382,3.5057,3.6083,3.639,3.6349,3.5958,3.7785,3.8836,3.8713,3.9771,4.0314,3.999,4.0443,4.0745,4.0871,4.0982,4.1121,4.1367,4.1095,4.1043,4.1371,4.1423,4.1302,4.0922,4.1281,4.125,4.0974,4.1168,4.1357,4.1388,4.1064,4.084,4.1,4.1134,4.1163,4.1088,4.1076,4.1017,4.068,4.0534,4.0534,4.0583,4.0583,4.08,4.1271,4.1326,4.1437,4.2073,4.1784,4.1376,4.141,4.1393,4.112,4.0774,4.0566,4.0597,3.0642,3.0642,3.0642,3.0955,3.1522,3.1522,3.1834,3.2173,2.9778,0.0,0.0,3.1354,3.1807,3.2089,3.2625,3.3192,3.3636,3.4284,3.4462,3.435,3.4399,3.4185,3.3848,3.3848,3.4101,3.4448,3.4497,3.4659,3.4899,3.4899,3.4947,3.5058,3.5198,3.5354,3.5446,3.5475,3.5594,3.5793,3.5793,3.5611,3.5238,3.4609,3.4351,3.4544,3.3822,3.3634,3.4028,3.397,3.369,3.3328,3.3332,3.325,3.3049,3.3151,3.388,3.5476,3.5717,3.6192,3.7069,3.725,3.7261,3.7126,3.8044,3.8573,3.8421,3.8933,3.9428,4.0037,4.0238,4.0337,4.0485,4.0768,4.0982,4.1078,4.1246,4.154,4.1871,4.1457,4.1336,4.1871,4.1957,4.1836,4.1423,4.1698,4.1854,4.1457,4.1495,4.1742,4.1825,4.155,4.1374,4.1423,4.1665,4.1586,4.1504,4.1497,4.125,4.0874,4.0893,4.0827,4.0756,4.0908,4.1381,4.2095,4.21,4.2377,4.2962,4.274,4.2398,4.1852,4.1971,4.192,4.0829,4.0645,4.0754,3.0642,3.0642,3.0642,3.0687,3.0747,3.0732,3.0792,3.0881,3.0909,3.1324,3.1936,3.1246,3.1522,3.2477,3.2477,3.2803,3.3366,3.3471,3.3523,3.3471,3.3575,3.3642,3.3539,3.3797,3.405,3.4349,3.4448,3.4643,3.4899,3.4899,3.4899,3.4947,3.5041,3.5198,3.5337,3.5503,3.5503,3.5429,3.5722,3.61,3.6598,3.6806,3.6808,3.657,3.5915,3.5462,3.5358,3.5358,3.5701,3.6351,3.7028,3.6916,3.5975,3.6256,3.627,3.5563,3.5918,3.6531,3.7221,3.7838,3.8567,3.9345,3.9367,3.9441,3.9649,3.9817,3.9969,4.0087,4.0238,4.0337,4.0519,4.1295,4.1785,4.1854,4.2486,4.2694,4.2112,4.1888,4.1854,4.2026,4.1992,4.2302,4.263,4.2354,4.2302,4.2492,4.1995,4.1309,4.1883,4.2376,4.2817,4.2819,4.2918,4.2869,4.2498,4.2585,4.2175,4.1308,4.1835,4.204,4.1493,4.2037,4.2616,4.2975,4.2992,4.3201,4.3665,4.315,4.2687,4.2311,4.1968,4.1358,4.0576,4.0531,4.0819,3.0642,3.0582,3.0507,3.0507,3.0568,3.0507,3.0568,3.0851,3.1058,3.1507,3.2033,3.1849,3.2201,3.2996,3.3303,3.3598,3.3935,3.4284,3.4284,3.402,3.4036,3.3951,3.3745,3.3848,3.4117,3.4399,3.4448,3.4643,3.4851,3.4835,3.4851,3.4899,3.4947,3.5058,3.5105,3.5549,3.5549,3.5105,3.5487,3.5932,3.6393,3.6595,3.6686,3.6736,3.6419,3.6252,3.6204,3.6123,3.6256,3.6653,3.6887,3.6787,3.627,3.643,3.647,3.6442,3.6621,3.7229,3.8424,3.878,3.9145,3.9536,3.9341,3.9255,3.9487,3.9833,4.0037,4.007,4.0238,4.0355,4.0502,4.1349,4.1943,4.1992,4.2368,4.2575,4.261,4.2216,4.2164,4.2578,4.2992,4.3216,4.3182,4.3166,4.3012,4.3064,4.2601,4.274,4.3287,4.3837,4.3838,4.3031,4.2877,4.2911,4.2843,4.2843,4.2621,4.2091,4.2484,4.2604,4.2279,4.274,4.3269,4.3682,4.3819,4.4027,4.4542,4.4316,4.3627,4.2686,4.2579,4.1952,4.0965,4.0849,4.1265,3.0642,3.0568,3.0447,3.0447,3.0522,3.0531,3.0758,3.097,3.1029,3.1422,3.2048,3.2422,3.2888,3.3346,3.3901,3.4153,3.4186,3.4686,3.4703,3.4366,3.4464,3.4345,3.4002,3.413,3.4365,3.4706,3.4756,3.4922,3.5136,3.5087,3.5136,3.5283,3.5331,3.5331,3.5299,3.5844,3.586,3.5364,3.5682,3.5966,3.6208,3.6241,3.6537,3.6979,3.6845,3.6898,3.7098,3.6718,3.6578,3.6852,3.6599,3.6506,3.6522,3.6396,3.6692,3.7429,3.7455,3.7931,3.924,3.9282,3.925,3.9379,3.8991,3.886,3.9169,3.9723,4.0136,4.0324,4.034,4.0455,4.081,4.1591,4.2152,4.225,4.2595,4.3009,4.3285,4.2871,4.2716,4.3388,4.394,4.401,4.3752,4.3872,4.3649,4.3117,4.3578,4.4258,4.4616,4.4787,4.4269,4.3467,4.3078,4.3251,4.3305,4.3304,4.3166,4.2926,4.3167,4.3253,4.3185,4.3306,4.3803,4.4423,4.4527,4.4682,4.5163,4.5052,4.4241,4.3027,4.2715,4.2513,4.114,4.1265,4.1709,3.0642,3.0582,3.0582,3.0433,3.0473,3.1101,3.1273,3.1117,3.1234,3.1781,3.2609,3.2602,3.2904,3.324,3.3398,3.345,3.3466,3.3487,3.3519,3.3577,3.4032,3.4241,3.4179,3.4802,3.5269,3.5409,3.5486,3.5723,3.6003,3.6121,3.6326,3.643,3.6584,3.6534,3.6448,3.6735,3.6802,3.6635,3.6787,3.687,3.6936,3.7087,3.7649,3.8543,3.8002,3.7932,3.829,3.7526,3.7422,3.8132,3.7931,3.7963,3.8125,3.7979,3.8028,3.8294,3.8197,3.8422,3.9124,3.8788,3.8829,3.9282,3.8983,3.8799,3.9089,3.9976,4.0682,4.0914,4.0696,4.0829,4.1459,4.2362,4.2925,4.3009,4.3975,4.4872,4.4216,4.4113,4.4113,4.3993,4.4113,4.4284,4.4573,4.4314,4.3698,4.3082,4.3897,4.4456,4.415,4.4381,4.4648,4.4389,4.4483,4.4487,4.4398,4.4406,4.4054,4.3542,4.4041,4.4221,4.4038,4.435,4.5075,4.4887,4.5111,4.5056,4.5018,4.4889,4.4266,4.3073,4.2581,4.2227,4.1445,4.163,4.199,3.0642,3.0568,3.0447,3.0557,3.0855,3.1533,3.2121,3.2632,3.3002,3.3598,3.4178,3.4234,3.3904,3.3324,3.3293,3.3514,3.3862,3.3801,3.4053,3.4525,3.4715,3.4825,3.4999,3.5292,3.5586,3.579,3.5844,3.6007,3.6291,3.645,3.6522,3.6486,3.6486,3.6434,3.6397,3.6804,3.6926,3.6607,3.7068,3.7334,3.7387,3.756,3.8002,3.8564,3.8378,3.8362,3.8511,3.8044,3.7931,3.8319,3.8049,3.8152,3.8801,3.8526,3.869,3.943,3.9479,3.9414,3.9344,3.9457,3.9473,3.9311,3.9515,3.9518,3.938,3.9946,4.0608,4.1285,4.1523,4.1614,4.1563,4.2296,4.2843,4.2963,4.346,4.3871,4.4095,4.4095,4.4026,4.4007,4.4384,4.471,4.4875,4.4685,4.4306,4.398,4.4487,4.455,4.4368,4.4495,4.4592,4.4587,4.4643,4.4699,4.4626,4.457,4.4401,4.4304,4.4444,4.4627,4.4596,4.4722,4.5086,4.514,4.514,4.5086,4.5032,4.4835,4.4419,4.3345,4.2754,4.2535,4.2236,4.2783,4.3191,3.0684,3.095,3.1064,3.129,3.1676,3.2411,3.317,3.3879,3.4355,3.4893,3.5394,3.5322,3.477,3.3903,3.3808,3.4076,3.4486,3.4384,3.4682,3.525,3.5253,3.5477,3.5663,3.5884,3.6102,3.6254,3.6358,3.6453,3.6767,3.6929,3.6913,3.6875,3.6783,3.6783,3.6761,3.7206,3.7261,3.6988,3.7426,3.7725,3.7834,3.7856,3.8117,3.8567,3.8576,3.8576,3.8504,3.8278,3.8164,3.8221,3.8051,3.8296,3.8953,3.8909,3.9198,4.0043,4.0184,4.0063,3.9667,3.9983,4.0003,3.9613,4.0015,4.0183,3.9998,4.0361,4.0892,4.1405,4.1983,4.2088,4.1764,4.2274,4.2734,4.2873,4.301,4.3471,4.407,4.4139,4.4156,4.4119,4.4528,4.4869,4.4814,4.4742,4.4703,4.4958,4.4987,4.4931,4.4987,4.4948,4.4857,4.4621,4.4587,4.457,4.457,4.457,4.457,4.457,4.4609,4.472,4.472,4.4814,4.4995,4.5032,4.4978,4.4923,4.4886,4.478,4.4517,4.3807,4.3285,4.298,4.294,4.3693,4.4155,3.0901,3.188,3.2729,3.2919,3.296,3.3787,3.4241,3.4552,3.4709,3.4998,3.5417,3.5273,3.5106,3.5027,3.4986,3.5043,3.5074,3.4904,3.4925,3.5154,3.5611,3.5876,3.5923,3.6562,3.6964,3.7046,3.7074,3.7255,3.7552,3.7716,3.7953,3.8076,3.7955,3.8019,3.7971,3.8003,3.8084,3.7995,3.806,3.8157,3.8141,3.7969,3.8141,3.8504,3.8448,3.8408,3.8335,3.8107,3.795,3.7934,3.8408,3.867,3.8798,3.9263,3.9675,3.9831,3.9955,4.0046,4.0011,4.0075,4.0135,4.024,4.0369,4.0381,4.0513,4.1249,4.1566,4.1304,4.1955,4.2232,4.2017,4.2466,4.3044,4.3234,4.3859,4.4253,4.4674,4.4606,4.4635,4.4473,4.4451,4.4519,4.435,4.4497,4.4908,4.5331,4.5585,4.5585,4.5449,4.5534,4.5365,4.4807,4.4604,4.4604,4.457,4.457,4.4497,4.4497,4.457,4.4626,4.4592,4.4631,4.4814,4.494,4.4869,4.4831,4.4776,4.4601,4.427,4.3817,4.3471,4.3254,4.3563,4.3903,4.4392,3.1539,3.215,3.2809,3.3321,3.3847,3.4758,3.534,3.5661,3.6069,3.6279,3.6235,3.6144,3.61,3.61,3.5904,3.5716,3.5623,3.5447,3.5696,3.616,3.6364,3.6518,3.6729,3.704,3.721,3.7405,3.7405,3.7524,3.77,3.7801,3.7934,3.7992,3.7934,3.7892,3.7876,3.7892,3.7934,3.7992,3.8123,3.8237,3.818,3.8107,3.8164,3.8294,3.8164,3.8107,3.8123,3.7876,3.8025,3.8606,3.8743,3.9208,4.0146,4.0753,4.0849,4.0531,4.0609,4.0526,4.0341,4.0691,4.0845,4.0506,4.1265,4.1569,4.1383,4.1585,4.1651,4.1287,4.1428,4.1508,4.1216,4.1398,4.1858,4.2349,4.2723,4.3328,4.4074,4.4384,4.4327,4.4253,4.4253,4.4253,4.4394,4.4771,4.5064,4.5111,4.5788,4.5906,4.5382,4.572,4.5906,4.4862,4.4902,4.5071,4.4457,4.4514,4.457,4.457,4.457,4.457,4.4609,4.4609,4.472,4.4923,4.4886,4.4869,4.494,4.4852,4.4504,4.4347,4.3968,4.399,4.4192,4.4669,4.5128,3.2529,3.2917,3.3332,3.3906,3.4648,3.5508,3.5876,3.6102,3.6815,3.6968,3.6662,3.6662,3.6662,3.66,3.6336,3.6168,3.6042,3.5921,3.6107,3.6662,3.6662,3.6769,3.6968,3.7089,3.7225,3.7301,3.7405,3.7464,3.7642,3.7759,3.7817,3.7817,3.7775,3.7685,3.7685,3.7685,3.7759,3.7876,3.7992,3.8107,3.8049,3.8065,3.7992,3.795,3.7817,3.7945,3.8254,3.8093,3.8412,3.9125,3.9367,4.0036,4.1231,4.1709,4.1692,4.131,4.131,4.1261,4.111,4.1539,4.1649,4.1274,4.2019,4.2391,4.197,4.2028,4.171,4.1252,4.1058,4.0885,4.0277,4.0358,4.0945,4.1905,4.2289,4.2862,4.3889,4.4056,4.4056,4.4056,4.4056,4.4114,4.4239,4.4942,4.5235,4.5189,4.6152,4.6244,4.5703,4.5788,4.5966,4.4704,4.4754,4.4788,4.4444,4.4344,4.44,4.436,4.444,4.4514,4.4514,4.457,4.4665,4.4886,4.5032,4.5086,4.5086,4.5069,4.5015,4.4961,4.4952,4.4958,4.5235,4.5578,4.5789,3.3818,3.414,3.4505,3.485,3.5409,3.59,3.5946,3.5834,3.66,3.68,3.6492,3.66,3.66,3.6476,3.6196,3.6258,3.6275,3.6056,3.6024,3.6178,3.6414,3.6538,3.6616,3.6862,3.6999,3.706,3.715,3.7329,3.7539,3.7658,3.77,3.77,3.77,3.7748,3.7732,3.7689,3.7716,3.7764,3.7865,3.7817,3.77,3.77,3.7748,3.7662,3.7619,3.8086,3.8946,3.8762,3.8973,3.9768,4.0388,4.1071,4.1692,4.1882,4.1931,4.1933,4.1916,4.2045,4.2237,4.2348,4.2379,4.2345,4.2522,4.2601,4.252,4.2504,4.2142,4.1324,4.1016,4.0606,3.9814,4.0083,4.1017,4.2253,4.2858,4.3431,4.3756,4.3898,4.3881,4.3898,4.3898,4.3898,4.409,4.475,4.5463,4.601,4.6566,4.6819,4.6498,4.6346,4.5527,4.4704,4.463,4.469,4.4356,4.4114,4.4131,4.4131,4.427,4.4367,4.4384,4.444,4.4776,4.4978,4.5441,4.5477,4.5494,4.5459,4.5373,4.5304,4.5545,4.5579,4.5525,4.5641,4.6133,3.3917,3.4185,3.4646,3.5269,3.5928,3.5991,3.5991,3.6039,3.6585,3.6538,3.6226,3.6274,3.6274,3.6163,3.5943,3.5894,3.5943,3.5816,3.5958,3.6304,3.6429,3.6554,3.6662,3.6739,3.6907,3.7089,3.7194,3.7329,3.7464,3.7555,3.7583,3.7539,3.7614,3.7793,3.8204,3.7717,3.7578,3.8141,3.7805,3.7535,3.7492,3.7642,3.7923,3.8277,3.8252,3.8851,4.007,3.9136,3.917,4.0277,4.0642,4.1151,4.1739,4.1752,4.1736,4.1785,4.1916,4.2061,4.219,4.2445,4.2571,4.2571,4.2571,4.2571,4.2571,4.2571,4.2275,4.1624,4.121,4.0648,4.016,4.0608,4.1309,4.1707,4.2419,4.3148,4.3621,4.3704,4.3763,4.3839,4.3763,4.3805,4.4056,4.475,4.5412,4.5833,4.6675,4.7207,4.6845,4.6718,4.6473,4.527,4.506,4.4633,4.4382,4.4206,4.419,4.4148,4.4239,4.4421,4.4404,4.444,4.4759,4.5209,4.565,4.5889,4.5889,4.5835,4.5763,4.5523,4.549,4.5401,4.5274,4.5646,4.6192,3.3713,3.4124,3.4677,3.5139,3.5529,3.5849,3.5864,3.5737,3.6196,3.6226,3.5958,3.6148,3.6148,3.5973,3.5831,3.5816,3.5879,3.5816,3.6022,3.6414,3.6414,3.6476,3.6538,3.6662,3.6769,3.7013,3.7074,3.721,3.7421,3.7657,3.7799,3.7891,3.8112,3.8444,3.8823,3.8276,3.8292,3.876,3.846,3.8065,3.7938,3.8277,3.8499,3.8613,3.879,3.9518,4.0563,3.9771,3.9803,4.0735,4.1054,4.1308,4.1638,4.1604,4.1654,4.1736,4.1866,4.2061,4.2125,4.2381,4.2508,4.2508,4.2571,4.2571,4.2571,4.2571,4.2372,4.1813,4.1553,4.1041,4.04,4.1163,4.1657,4.1442,4.2386,4.3065,4.3562,4.3645,4.3628,4.3704,4.3687,4.3747,4.409,4.4976,4.5477,4.5934,4.6615,4.7214,4.6735,4.6439,4.5689,4.5068,4.4658,4.4373,4.4388,4.4295,4.4261,4.4214,4.4206,4.4507,4.4666,4.4609,4.4754,4.5486,4.5979,4.6322,4.6355,4.6291,4.6213,4.5891,4.5518,4.5852,4.5998,4.6002,4.6411,3.3506,3.4095,3.4662,3.481,3.4714,3.5657,3.5593,3.5008,3.5608,3.5894,3.5816,3.6085,3.6133,3.6037,3.5973,3.6022,3.6133,3.6022,3.6163,3.6352,3.6352,3.6274,3.6336,3.6585,3.6723,3.6785,3.6984,3.7105,3.7285,3.7789,3.8338,3.8333,3.8744,3.9392,3.9313,3.9267,3.9157,3.9456,3.9361,3.8981,3.857,3.9086,3.9372,3.8774,3.9202,3.9835,4.0577,4.0609,4.0862,4.1478,4.1494,4.1509,4.139,4.1522,4.1654,4.1833,4.1914,4.1963,4.2125,4.2254,4.2365,4.2365,4.2445,4.2571,4.2571,4.2555,4.2407,4.2008,4.1912,4.1517,4.0861,4.1526,4.2104,4.1872,4.2783,4.3495,4.3611,4.3645,4.3628,4.3645,4.3645,4.377,4.4081,4.525,4.5955,4.6445,4.6522,4.637,4.6471,4.5941,4.4524,4.4198,4.4306,4.4255,4.4284,4.4483,4.445,4.4521,4.4473,4.4767,4.4959,4.4868,4.4822,4.5554,4.6116,4.6532,4.6578,4.6295,4.6077,4.5698,4.58,4.6418,4.6454,4.6108,4.6217,3.4861,3.5059,3.5204,3.5464,3.5657,3.5608,3.5479,3.5479,3.5752,3.5831,3.5816,3.607,3.607,3.6037,3.5988,3.6085,3.6148,3.61,3.6178,3.6429,3.6429,3.6476,3.6523,3.6662,3.68,3.6923,3.7029,3.7134,3.721,3.7613,3.7799,3.7765,3.8175,3.8665,3.9281,3.8968,3.9188,3.9786,3.9172,3.9044,3.9201,3.8642,3.8973,4.0134,3.9771,4.0166,4.1178,4.132,4.1383,4.1557,4.1588,4.1573,4.1522,4.1522,4.1588,4.1686,4.1833,4.1898,4.1947,4.2061,4.2174,4.2174,4.2238,4.2318,4.2445,4.2445,4.2474,4.2447,4.2272,4.196,4.1782,4.2154,4.2526,4.3048,4.3429,4.3678,4.3645,4.3628,4.3628,4.3813,4.4152,4.4318,4.4637,4.4986,4.5696,4.6419,4.6313,4.5811,4.614,4.5711,4.454,4.4397,4.4404,4.4268,4.4291,4.4522,4.4716,4.4749,4.4897,4.5169,4.5252,4.5185,4.5171,4.5394,4.5851,4.6309,4.5927,4.5563,4.5422,4.5414,4.5438,4.5732,4.5536,4.5297,4.5748,3.4876,3.4861,3.5059,3.5335,3.5529,3.5415,3.5509,3.5589,3.5733,3.5782,3.5767,3.5879,3.5943,3.5894,3.5973,3.6022,3.6085,3.6085,3.6226,3.6429,3.6492,3.6554,3.66,3.6662,3.68,3.6862,3.7044,3.715,3.7272,3.7629,3.7973,3.8444,3.8649,3.936,4.0356,3.9944,3.9786,4.0292,3.974,3.9549,3.9688,3.9338,3.964,4.0595,4.0436,4.0862,4.1509,4.1588,4.1588,4.1522,4.1456,4.1456,4.1406,4.1456,4.144,4.1456,4.167,4.1752,4.1817,4.1947,4.2012,4.2061,4.2061,4.2174,4.2238,4.2254,4.2381,4.2553,4.2382,4.2211,4.2114,4.2301,4.2782,4.3327,4.3833,4.3926,4.3678,4.3645,4.3794,4.4069,4.4251,4.4467,4.482,4.5075,4.5552,4.6107,4.6274,4.6118,4.6085,4.5346,4.4737,4.4394,4.4212,4.4009,4.4141,4.4406,4.4616,4.4743,4.468,4.5085,4.5421,4.5388,4.5326,4.5303,4.572,4.5777,4.5449,4.5174,4.5216,4.5113,4.5022,4.4988,4.4992,4.4889,4.5321,3.4341,3.4356,3.481,3.4876,3.4927,3.5415,3.5589,3.5489,3.5489,3.5604,3.5638,3.5703,3.5752,3.5688,3.591,3.5988,3.6037,3.6085,3.6274,3.6414,3.6492,3.6492,3.6538,3.6662,3.6723,3.6785,3.6938,3.7044,3.723,3.7869,3.8637,3.9061,3.9866,4.0704,4.0988,4.1078,4.1081,4.0863,4.0562,4.0357,4.0323,4.026,4.0499,4.0992,4.1227,4.1367,4.1557,4.1588,4.1522,4.1323,4.1323,4.1339,4.1221,4.1256,4.1323,4.1374,4.1522,4.1604,4.167,4.1752,4.1898,4.1882,4.1996,4.2109,4.2109,4.2109,4.2238,4.2571,4.2571,4.248,4.2304,4.2348,4.2746,4.3416,4.4147,4.4307,4.3943,4.3794,4.4092,4.4638,4.4224,4.4334,4.4826,4.548,4.5763,4.5735,4.5796,4.5435,4.5269,4.4793,4.4251,4.386,4.3744,4.3694,4.3943,4.4257,4.4434,4.456,4.434,4.4624,4.5387,4.5419,4.5286,4.5293,4.5337,4.5292,4.5134,4.4975,4.4889,4.4732,4.449,4.4746,4.5001,4.4934,4.5159,3.5737,3.5737,3.5767,3.5623,3.5479,3.5608,3.5653,3.5489,3.5489,3.5489,3.5539,3.5638,3.5688,3.5688,3.5767,3.5831,3.5973,3.5894,3.5943,3.6274,3.6429,3.6492,3.6538,3.6646,3.6723,3.6739,3.6877,3.6954,3.711,3.784,3.8372,3.8716,3.9519,4.0119,4.0798,4.0939,4.0986,4.1243,4.0975,4.0976,4.1103,4.0483,4.0642,4.1469,4.1559,4.1573,4.1588,4.1588,4.1588,4.1588,4.1522,4.1456,4.1456,4.1456,4.1522,4.1522,4.1522,4.1588,4.1588,4.167,4.167,4.167,4.172,4.1851,4.2109,4.2109,4.2302,4.2634,4.2837,4.2785,4.2867,4.3065,4.3191,4.3591,4.418,4.4638,4.4572,4.4937,4.5268,4.5384,4.5317,4.5351,4.5495,4.5064,4.5258,4.5424,4.5191,4.4666,4.4434,4.4208,4.3992,4.3727,4.3645,4.3645,4.3777,4.4059,4.4284,4.4361,4.4173,4.4048,4.485,4.5144,4.4851,4.4775,4.4775,4.4658,4.4549,4.4265,4.4071,4.3989,4.4006,4.4236,4.4463,4.4558,4.4725,3.6085,3.6085,3.5894,3.5782,3.5604,3.5604,3.5539,3.5489,3.5489,3.5489,3.5489,3.5604,3.5589,3.5589,3.5703,3.5752,3.5894,3.5958,3.6085,3.6336,3.6476,3.6554,3.6677,3.6723,3.6723,3.677,3.7157,3.7251,3.7577,3.8122,3.8826,3.9077,3.9516,4.0258,4.0826,4.0921,4.0986,4.1053,4.0992,4.1055,4.1247,4.0769,4.0658,4.1514,4.1654,4.1588,4.1588,4.1588,4.1588,4.1588,4.1588,4.1588,4.1588,4.1588,4.1588,4.1588,4.1588,4.1588,4.1588,4.1588,4.1588,4.1588,4.1588,4.172,4.1931,4.2012,4.2206,4.2587,4.2713,4.2883,4.3146,4.3312,4.3388,4.3504,4.4197,4.4655,4.4804,4.5334,4.5798,4.5715,4.5384,4.5235,4.5069,4.4903,4.4522,4.4633,4.5479,4.5064,4.4208,4.4059,4.4009,4.3827,4.3694,4.3661,4.3694,4.3876,4.4195,4.4162,4.4005,4.3905,4.4181,4.434,4.4281,4.4238,4.4255,4.4079,4.3896,4.3585,4.3568,4.3671,4.3789,4.3747,4.3864,4.4138,4.431,3.6037,3.6037,3.5831,3.5718,3.5554,3.5554,3.5619,3.5554,3.5554,3.5539,3.5489,3.5489,3.5489,3.5554,3.5638,3.5688,3.5816,3.6022,3.6211,3.6352,3.6476,3.6616,3.6754,3.6723,3.677,3.6848,3.739,3.7747,3.8183,3.8776,3.9305,3.985,4.015,4.0513,4.1131,4.1225,4.1154,4.0988,4.0974,4.1055,4.1231,4.1055,4.1213,4.1496,4.1588,4.1588,4.1588,4.1588,4.1588,4.1588,4.1588,4.1588,4.1588,4.1588,4.1588,4.1588,4.1588,4.1604,4.167,4.167,4.167,4.167,4.167,4.1752,4.1898,4.2028,4.2206,4.2445,4.2696,4.2821,4.2961,4.319,4.3251,4.3366,4.4075,4.4577,4.4759,4.5272,4.5702,4.5947,4.5649,4.5334,4.5086,4.487,4.4307,4.3992,4.487,4.5251,4.4406,4.391,4.3876,4.3843,4.3694,4.3645,4.3678,4.3694,4.3969,4.4012,4.3846,4.3787,4.3727,4.3761,4.387,4.3744,4.3711,4.3542,4.3482,4.3388,4.3432,4.3492,4.3552,4.3492,4.3628,4.3822,4.3864,3.6085,3.6133,3.6022,3.591,3.591,3.5925,3.5846,3.5846,3.5718,3.5703,3.5638,3.5554,3.5489,3.5539,3.5653,3.5831,3.5958,3.6037,3.6148,3.6289,3.6414,3.6554,3.6677,3.6739,3.6925,3.7341,3.7666,3.8023,3.8531,3.9199,3.9765,3.9982,4.0469,4.0992,4.1024,4.1153,4.1225,4.1204,4.1173,4.132,4.1385,4.1401,4.1433,4.1588,4.1588,4.1588,4.1588,4.1588,4.1588,4.1588,4.1588,4.1588,4.1588,4.1588,4.1588,4.1588,4.1588,4.167,4.1752,4.1833,4.1833,4.1833,4.1833,4.1882,4.1996,4.2061,4.2318,4.2634,4.2883,4.3068,4.3328,4.3235,4.3235,4.3476,4.3838,4.4237,4.4384,4.4779,4.5483,4.5873,4.5702,4.5351,4.4892,4.461,4.4263,4.3773,4.4081,4.4412,4.4042,4.3744,4.3711,4.3694,4.3661,4.3645,4.3645,4.3585,4.3727,4.3803,4.3678,4.3542,4.3525,4.3465,4.3449,4.3388,4.3388,4.3328,4.3251,4.3251,4.3312,4.3372,4.3312,4.3295,4.3432,4.3552,4.3492,3.6667,3.6685,3.63,3.61,3.5973,3.5894,3.5831,3.5846,3.5653,3.5589,3.5589,3.5589,3.5589,3.5653,3.5767,3.5894,3.5973,3.61,3.6211,3.6352,3.6492,3.6616,3.6677,3.6739,3.708,3.7558,3.8039,3.8469,3.9031,3.9791,4.0121,4.0245,4.0622,4.0882,4.1049,4.1117,4.1221,4.139,4.1456,4.1522,4.1588,4.1588,4.1588,4.1588,4.1588,4.1588,4.1588,4.1588,4.1588,4.1588,4.1588,4.1588,4.1588,4.1588,4.1604,4.162,4.1588,4.1654,4.1752,4.1752,4.1736,4.1736,4.1833,4.1963,4.2061,4.2238,4.2445,4.2759,4.2961,4.3023,4.3084,4.319,4.3251,4.3284,4.3673,4.3793,4.3814,4.4046,4.4685,4.547,4.5419,4.4989,4.42,4.4047,4.3981,4.3812,4.3575,4.3568,4.3585,4.3568,4.3568,4.3568,4.3568,4.3509,4.3509,4.3432,4.3492,4.3568,4.3525,4.3388,4.3251,4.319,4.3146,4.3146,4.3084,4.3068,4.3113,4.3113,4.3174,4.319,4.3174,4.3174,4.3235,4.3295,4.3235,3.7262,3.7159,3.6575,3.6222,3.6037,3.5831,3.5752,3.5703,3.5604,3.5554,3.5539,3.5638,3.5688,3.5703,3.5894,3.6037,3.61,3.6211,3.6352,3.6429,3.6492,3.6616,3.6739,3.6816,3.7002,3.7604,3.8021,3.8886,3.9431,4.0108,4.0447,4.0462,4.0493,4.0593,4.0898,4.0966,4.1221,4.1406,4.1522,4.1522,4.1588,4.1588,4.1588,4.1522,4.1522,4.1522,4.1522,4.1522,4.1522,4.1522,4.1522,4.1522,4.1538,4.1522,4.1586,4.1696,4.1667,4.1588,4.167,4.167,4.1736,4.1785,4.1882,4.2012,4.219,4.2381,4.2571,4.2775,4.2961,4.2961,4.3007,4.3129,4.319,4.3178,4.3399,4.3591,4.351,4.3679,4.3992,4.4561,4.4902,4.4722,4.4049,4.3912,4.3974,4.3608,4.3312,4.3449,4.3449,4.3509,4.3509,4.3509,4.3509,4.3432,4.3372,4.3235,4.3295,4.3295,4.3267,4.3084,4.2961,4.2821,4.2837,4.2899,4.2821,4.2883,4.2929,4.299,4.3007,4.3007,4.3007,4.3052,4.3174,4.3113,4.3068,3.7506,3.7204,3.6964,3.6599,3.6194,3.6022,3.5973,3.591,3.5703,3.5703,3.5638,3.5688,3.5638,3.5668,3.591,3.6178,3.6367,3.6429,3.6492,3.6492,3.6492,3.6554,3.6554,3.6554,3.6862,3.7432,3.7695,3.8369,3.9293,4.0093,4.0462,4.0447,4.0478,4.0524,4.0662,4.0814,4.0966,4.1169,4.1272,4.1456,4.1588,4.1588,4.1522,4.139,4.139,4.139,4.139,4.1323,4.1323,4.1307,4.1323,4.1272,4.1221,4.1272,4.1716,4.194,4.1948,4.167,4.1831,4.1783,4.1801,4.1866,4.2044,4.219,4.2446,4.2606,4.2763,4.265,4.2821,4.2929,4.2929,4.2945,4.2961,4.3124,4.3399,4.3581,4.3571,4.3571,4.3864,4.3944,4.4413,4.4318,4.3944,4.4036,4.3965,4.3473,4.3174,4.33,4.3509,4.3718,4.3619,4.3668,4.3558,4.3481,4.3235,4.3113,4.3052,4.3113,4.3007,4.2854,4.2775,4.2696,4.2634,4.2696,4.2634,4.2696,4.2821,4.2821,4.2821,4.2886,4.2967,4.3027,4.3052,4.3023,4.3108,3.7941,3.7588,3.7172,3.6675,3.6067,3.5894,3.5831,3.5767,3.5653,3.5604,3.5589,3.5703,3.5767,3.591,3.6085,3.6226,3.6429,3.6492,3.6492,3.6492,3.6492,3.6492,3.6492,3.6492,3.6722,3.703,3.7677,3.8292,3.9077,3.9554,3.9955,4.0062,4.0339,4.0593,4.0578,4.073,4.0882,4.1086,4.1205,4.139,4.1522,4.1588,4.1522,4.1323,4.139,4.1323,4.1205,4.1256,4.1189,4.1039,4.1003,4.0935,4.0814,4.0814,4.1038,4.1345,4.1647,4.1935,4.222,4.1841,4.1667,4.1797,4.1987,4.2446,4.2887,4.2893,4.2815,4.2815,4.2574,4.2571,4.2601,4.2555,4.2634,4.278,4.3214,4.3136,4.3267,4.3621,4.3766,4.3808,4.3866,4.3875,4.4058,4.4269,4.3993,4.3293,4.329,4.363,4.4,4.4358,4.4207,4.3974,4.383,4.3608,4.3264,4.2912,4.2945,4.2945,4.2805,4.2713,4.2713,4.2634,4.2634,4.2571,4.2634,4.2696,4.2713,4.2696,4.2696,4.2859,4.3021,4.31,4.3258,4.3439,4.3392,3.8262,3.8054,3.7404,3.6723,3.6167,3.5959,3.5804,3.5653,3.5554,3.5504,3.5554,3.5653,3.5879,3.6133,3.6211,3.6289,3.6492,3.6492,3.6492,3.6492,3.6492,3.6492,3.6492,3.6492,3.6492,3.6507,3.7277,3.7784,3.8154,3.88,3.9431,3.9754,4.0324,4.0578,4.0662,4.0799,4.0867,4.1117,4.1221,4.1256,4.1323,4.1406,4.1256,4.1256,4.1256,4.1272,4.1018,4.1003,4.0919,4.0715,4.0646,4.0578,4.047,4.0539,4.0847,4.1155,4.1441,4.1788,4.2092,4.192,4.1491,4.1543,4.1731,4.2291,4.2942,4.2889,4.2595,4.242,4.2364,4.2141,4.2109,4.2238,4.2302,4.2525,4.2846,4.2623,4.2623,4.3297,4.3826,4.3914,4.3958,4.3831,4.4064,4.4503,4.412,4.3186,4.3251,4.3929,4.4431,4.4918,4.4738,4.4426,4.3987,4.3809,4.3469,4.3098,4.2954,4.2791,4.2666,4.2634,4.2634,4.2634,4.2634,4.2571,4.2571,4.2634,4.2634,4.2634,4.2587,4.2731,4.2893,4.3298,4.3508,4.3783,4.3881,3.8236,3.8342,3.7683,3.7091,3.6652,3.6535,3.6058,3.5659,3.5519,3.5504,3.5554,3.5653,3.5879,3.6148,3.6211,3.6289,3.6492,3.6492,3.6492,3.6492,3.6492,3.6492,3.6429,3.6492,3.6492,3.6507,3.6999,3.6984,3.7046,3.8277,3.9277,4.0293,4.0286,4.0393,4.0516,4.0545,4.0712,4.0909,4.1024,4.0935,4.1003,4.1018,4.0935,4.073,4.073,4.073,4.0539,4.0593,4.0524,4.0285,4.0216,4.0231,4.0106,4.0246,4.06,4.1071,4.1225,4.1557,4.1757,4.1841,4.1784,4.1491,4.1559,4.1998,4.2604,4.222,4.1942,4.1939,4.201,4.2012,4.2045,4.2109,4.2109,4.227,4.2494,4.2655,4.2781,4.3405,4.3901,4.4086,4.4002,4.3711,4.3938,4.4381,4.4353,4.3489,4.3975,4.4591,4.4967,4.5358,4.5147,4.4854,4.4316,4.3992,4.3718,4.3362,4.294,4.281,4.2763,4.2699,4.2634,4.2571,4.2571,4.2571,4.2571,4.2571,4.2571,4.2571,4.2571,4.2571,4.286,4.3411,4.3978,4.4366,4.4512,3.8322,3.8317,3.7674,3.727,3.7083,3.6708,3.6342,3.6058,3.5684,3.5539,3.5653,3.5703,3.5879,3.6133,3.6211,3.6289,3.6492,3.6492,3.6492,3.6352,3.6226,3.6226,3.6289,3.6211,3.6148,3.6506,3.683,3.7107,3.7307,3.8,3.8177,3.8903,3.9726,4.0139,4.0229,4.0173,4.0272,4.038,4.0613,4.0677,4.0662,4.0677,4.0593,4.0355,4.0524,4.0455,4.0261,4.0316,4.0161,3.995,3.9879,3.9895,3.9824,4.0036,4.0329,4.0861,4.1025,4.1187,4.1117,4.1248,4.1286,4.1558,4.1581,4.1821,4.2248,4.2122,4.2045,4.1956,4.1778,4.1736,4.1785,4.1785,4.1817,4.1946,4.217,4.2491,4.2746,4.3256,4.3492,4.35,4.3532,4.3368,4.3738,4.4209,4.4086,4.3914,4.4661,4.5246,4.5594,4.5842,4.568,4.5372,4.4903,4.448,4.4188,4.3573,4.2797,4.2749,4.2781,4.2668,4.2571,4.2571,4.2571,4.2571,4.2571,4.2571,4.2571,4.2571,4.2571,4.2571,4.3071,4.367,4.4253,4.4868,4.503,3.8377,3.8332,3.7898,3.7479,3.7022,3.6671,3.6357,3.6052,3.5699,3.5539,3.5688,3.5688,3.5737,3.5943,3.6006,3.5943,3.6085,3.6289,3.6289,3.6148,3.5879,3.5894,3.5879,3.5816,3.5623,3.6143,3.6593,3.6868,3.6822,3.7701,3.7664,3.7857,3.8591,3.9062,3.9349,3.9596,3.9833,3.9992,4.0216,4.0316,4.0316,4.0331,4.0261,4.0091,4.0246,4.0176,3.998,3.9965,3.9895,3.9681,3.9625,3.9696,3.9681,3.9768,3.998,4.0359,4.0668,4.076,4.0469,4.0586,4.1001,4.1441,4.1287,4.1571,4.1838,4.1718,4.1241,4.1395,4.1325,4.1374,4.1456,4.1654,4.1654,4.1783,4.2195,4.25,4.2325,4.2528,4.2766,4.2905,4.3079,4.359,4.4246,4.4744,4.4941,4.4899,4.5272,4.5832,4.6136,4.6286,4.6201,4.5882,4.5516,4.5127,4.4771,4.3897,4.3057,4.2621,4.2621,4.2573,4.2508,4.2571,4.2571,4.2571,4.2571,4.2571,4.2571,4.2571,4.2571,4.2571,4.333,4.4156,4.4642,4.5208,4.5484,3.8407,3.8377,3.8347,3.7506,3.6401,3.6455,3.6089,3.557,3.5383,3.5539,3.5623,3.5479,3.54,3.5479,3.5672,3.5479,3.5335,3.5879,3.6006,3.5529,3.5335,3.5479,3.5335,3.5073,3.5008,3.5088,3.5549,3.5883,3.5808,3.6511,3.6637,3.6455,3.6758,3.7494,3.782,3.9133,3.9847,4.0193,4.01,3.995,3.9753,3.9768,3.9681,3.9839,3.991,3.9839,3.9768,3.961,3.9538,3.9481,3.9337,3.9409,3.9696,3.9839,4.0066,4.0307,4.0447,4.0307,3.9824,4.0246,4.0723,4.1263,4.1016,4.0821,4.0709,4.0421,4.0197,4.0445,4.0455,4.0888,4.1241,4.1522,4.1522,4.1699,4.2161,4.2271,4.2082,4.222,4.2537,4.2789,4.3532,4.4188,4.4888,4.5444,4.5833,4.5961,4.6088,4.6294,4.6496,4.6405,4.626,4.6265,4.5902,4.543,4.4913,4.4041,4.3331,4.2815,4.2493,4.2445,4.2445,4.2508,4.2508,4.2571,4.2571,4.2571,4.2571,4.2571,4.2571,4.2763,4.3897,4.4706,4.516,4.5548,4.584,3.8424,3.8038,3.8038,3.7408,3.6604,3.7238,3.7045,3.6227,3.5228,3.4971,3.5479,3.5124,3.4927,3.5073,3.5204,3.5073,3.4662,3.481,3.4927,3.4861,3.4528,3.4528,3.4447,3.4394,3.4327,3.4662,3.4927,3.4993,3.4971,3.5451,3.4888,3.4528,3.4886,3.5569,3.6739,3.7758,3.8172,3.8132,3.8516,3.8899,3.8723,3.8797,3.9031,3.9394,3.9553,3.9568,3.9481,3.9177,3.9192,3.9265,3.9119,3.9177,3.9625,3.9925,4.0066,4.0331,4.0455,4.0246,3.9809,3.9809,4.0081,4.046,4.0616,4.0228,4.0096,4.0031,3.9778,3.9535,3.9692,4.0185,4.0684,4.0987,4.1055,4.1522,4.1794,4.1794,4.181,4.2315,4.271,4.29,4.3363,4.4161,4.4788,4.5445,4.5913,4.5873,4.5826,4.6087,4.6336,4.6099,4.5975,4.6302,4.6193,4.5737,4.5105,4.3989,4.3362,4.2961,4.259,4.2318,4.2381,4.2445,4.2508,4.2571,4.2571,4.2571,4.2571,4.2571,4.2571,4.3022,4.3864,4.4561,4.4804,4.5467,4.6261,3.8341,3.7709,3.793,3.7579,3.6937,3.7126,3.6936,3.6241,3.4923,3.4727,3.5259,3.4661,3.416,3.4249,3.438,3.4177,3.363,3.4109,3.4124,3.3988,3.3561,3.3644,3.3713,3.3575,3.3506,3.3919,3.4177,3.4192,3.4245,3.4245,3.3948,3.3493,3.3129,3.3959,3.5168,3.6112,3.7005,3.7142,3.7678,3.7965,3.7933,3.8023,3.8352,3.8708,3.9017,3.9337,3.9119,3.8958,3.8811,3.8885,3.8885,3.8811,3.9394,3.961,3.9768,3.9895,3.9737,3.9737,3.9681,3.9075,3.9394,3.9854,3.9879,3.9508,3.9147,3.8987,3.8987,3.8899,3.906,3.9478,3.9975,4.0216,4.0562,4.0956,4.1226,4.1242,4.1195,4.1694,4.2115,4.2388,4.3019,4.3827,4.4756,4.5302,4.5864,4.5667,4.5524,4.5767,4.5961,4.5661,4.5423,4.5669,4.5669,4.5085,4.4436,4.376,4.3231,4.3008,4.2655,4.2206,4.2318,4.2445,4.2508,4.2555,4.2571,4.2571,4.2571,4.2571,4.2508,4.2799,4.3396,4.3961,4.4383,4.5257,4.6193,3.8062,3.7682,3.8164,3.7899,3.7083,3.6065,3.5591,3.5478,3.4762,3.4691,3.5131,3.397,3.3376,3.3002,3.3003,3.2733,3.2461,3.3213,3.3311,3.3101,3.2818,3.303,3.2974,3.2775,3.2846,3.2903,3.3171,3.3451,3.3506,3.3589,3.3395,3.2988,3.2588,3.2959,3.3851,3.4778,3.5666,3.607,3.6561,3.6767,3.6838,3.7434,3.7539,3.7843,3.8308,3.856,3.856,3.8634,3.8649,3.859,3.8441,3.8575,3.8723,3.8782,3.887,3.887,3.856,3.9017,3.925,3.856,3.8337,3.8708,3.8708,3.8173,3.8023,3.8173,3.8173,3.8173,3.8263,3.8679,3.9118,3.9406,3.9707,4.0132,4.0634,4.0542,4.0314,4.0603,4.1031,4.1612,4.233,4.3329,4.4642,4.5425,4.5394,4.5563,4.5271,4.4935,4.5064,4.4845,4.4673,4.4761,4.4648,4.4145,4.3629,4.3275,4.2908,4.2621,4.2299,4.1931,4.219,4.2381,4.2445,4.2429,4.2571,4.2571,4.2445,4.2445,4.2445,4.2751,4.3009,4.3621,4.4122,4.4994,4.5721,3.7814,3.7745,3.7343,3.707,3.6732,3.5366,3.4909,3.503,3.3927,3.3676,3.4098,3.3252,3.2738,3.239,3.2591,3.2286,3.2128,3.2141,3.2372,3.23,3.2214,3.2155,3.2228,3.2228,3.23,3.2372,3.2503,3.2704,3.269,3.2846,3.2789,3.2386,3.2327,3.2418,3.2736,3.3326,3.3977,3.4644,3.5363,3.5618,3.5825,3.6281,3.6549,3.7049,3.7434,3.7677,3.7767,3.7829,3.7857,3.7886,3.7886,3.7962,3.8113,3.8188,3.8248,3.8354,3.8204,3.8219,3.8098,3.8069,3.7919,3.7582,3.7582,3.7796,3.772,3.7658,3.7658,3.7582,3.7596,3.8023,3.8472,3.8767,3.906,3.9499,3.9839,3.982,3.9742,4.0013,4.0435,4.0985,4.179,4.2667,4.4153,4.4653,4.4695,4.5095,4.5104,4.4659,4.414,4.3922,4.3799,4.3936,4.3805,4.3435,4.324,4.2935,4.2537,4.2186,4.1962,4.1882,4.2077,4.2254,4.2302,4.2365,4.2508,4.2381,4.2238,4.2254,4.2254,4.2238,4.2462,4.3234,4.3959,4.4667,4.5021,3.7035,3.6699,3.6424,3.6073,3.5642,3.4799,3.441,3.4136,3.3333,3.3304,3.3764,3.3114,3.2431,3.2057,3.2199,3.1944,3.1421,3.1495,3.1656,3.173,3.1562,3.1669,3.1743,3.1817,3.195,3.195,3.2036,3.2169,3.2228,3.2228,3.2169,3.2109,3.2109,3.2109,3.2304,3.2548,3.2732,3.3301,3.3856,3.4319,3.479,3.5153,3.5741,3.6108,3.6425,3.6802,3.6816,3.688,3.7218,3.7169,3.7183,3.7275,3.7429,3.7429,3.7644,3.7753,3.7615,3.763,3.7734,3.763,3.7183,3.69,3.6993,3.7134,3.7289,3.7289,3.7289,3.7211,3.7211,3.7366,3.7749,3.8113,3.8486,3.887,3.9002,3.9205,3.9369,3.9563,4.0008,4.0543,4.1245,4.2058,4.2842,4.3399,4.3956,4.4403,4.4503,4.4218,4.3559,4.2976,4.2868,4.2905,4.2887,4.2757,4.2611,4.2449,4.2214,4.1928,4.1881,4.1882,4.2012,4.219,4.2318,4.2381,4.2461,4.2318,4.2174,4.2061,4.2077,4.2061,4.2044,4.2604,4.3213,4.376,4.3971,3.5897,3.5027,3.5315,3.4861,3.4056,3.4108,3.381,3.3142,3.2978,3.3412,3.3725,3.32,3.2458,3.2057,3.2001,3.1803,3.1468,3.1438,3.1615,3.1391,3.1408,3.1422,3.1607,3.1461,3.1582,3.173,3.1743,3.1803,3.2023,3.2182,3.2109,3.1963,3.2036,3.2109,3.2063,3.2104,3.2347,3.2712,3.3091,3.3603,3.4046,3.4552,3.5033,3.5129,3.583,3.6425,3.6281,3.6439,3.6894,3.6531,3.6559,3.6744,3.6665,3.6665,3.695,3.7106,3.6886,3.7042,3.7289,3.7352,3.7211,3.6993,3.7007,3.6929,3.707,3.7134,3.7056,3.7056,3.7056,3.7148,3.7443,3.7672,3.7976,3.8202,3.8412,3.8546,3.8782,3.8914,3.9121,3.9506,3.9847,4.0741,4.1775,4.233,4.2925,4.3541,4.3644,4.3418,4.3137,4.2299,4.2031,4.2053,4.2198,4.2145,4.1869,4.1791,4.1762,4.167,4.1736,4.1817,4.1947,4.2141,4.2381,4.2334,4.227,4.2254,4.2174,4.1996,4.1866,4.1916,4.1946,4.2103,4.2534,4.3033,4.3293,3.4952,3.4835,3.4295,3.3506,3.2789,3.3221,3.33,3.3031,3.2591,3.2617,3.2841,3.2483,3.2362,3.2304,3.2059,3.198,3.2123,3.1797,3.2082,3.2069,3.19,3.1716,3.1827,3.1563,3.1466,3.1421,3.1421,3.1622,3.1817,3.2036,3.2196,3.2109,3.2109,3.1963,3.2036,3.2109,3.2112,3.2469,3.2796,3.3114,3.358,3.4096,3.465,3.4839,3.5372,3.5602,3.5602,3.6149,3.6149,3.6017,3.6429,3.6429,3.6031,3.5951,3.6031,3.6111,3.6284,3.6443,3.6758,3.6978,3.7134,3.707,3.7007,3.7007,3.6993,3.6993,3.6978,3.6978,3.6978,3.707,3.7148,3.7303,3.7457,3.7687,3.7839,3.7991,3.8127,3.8246,3.8289,3.8437,3.8675,3.9489,4.0547,4.1294,4.1858,4.2176,4.2246,4.2287,4.2322,4.1857,4.1372,4.133,4.1617,4.1551,4.1241,4.1256,4.139,4.1522,4.167,4.1752,4.1882,4.2061,4.2254,4.2077,4.2028,4.2061,4.198,4.1785,4.1704,4.1769,4.1801,4.1844,4.1926,4.2312,4.2666,3.3947,3.3424,3.2594,3.2128,3.2009,3.2453,3.2554,3.2328,3.224,3.2298,3.2369,3.2421,3.2525,3.2688,3.2592,3.2411,3.2632,3.2306,3.2372,3.2529,3.2555,3.2358,3.2134,3.178,3.1961,3.1919,3.1907,3.1977,3.1723,3.1963,3.2182,3.2109,3.1963,3.1963,3.2036,3.199,3.2112,3.2469,3.2729,3.3045,3.3302,3.3859,3.4462,3.4611,3.4839,3.5003,3.5236,3.5696,3.571,3.571,3.6031,3.6125,3.5804,3.579,3.571,3.5804,3.5884,3.5978,3.6363,3.6665,3.6964,3.6993,3.6993,3.6993,3.6993,3.6978,3.6978,3.6978,3.6978,3.6993,3.7148,3.7303,3.7457,3.761,3.7701,3.7853,3.7915,3.8095,3.8185,3.826,3.8466,3.8804,3.9815,4.0457,4.0919,4.1124,4.1183,4.1527,4.1517,4.1544,4.1007,4.0646,4.0904,4.1122,4.0987,4.1055,4.1256,4.139,4.1522,4.1736,4.1817,4.1996,4.2045,4.2012,4.1947,4.1947,4.1866,4.1654,4.1588,4.1654,4.1654,4.1686,4.167,4.1752,4.2121,3.2872,3.158,3.0955,3.0934,3.1336,3.1876,3.1876,3.1524,3.18,3.2026,3.2147,3.2536,3.2759,3.3091,3.3247,3.2937,3.2784,3.2735,3.2802,3.2999,3.2894,3.2829,3.2555,3.2085,3.207,3.2156,3.2186,3.1854,3.1535,3.189,3.2036,3.189,3.189,3.1904,3.1904,3.1917,3.2085,3.2435,3.2742,3.3178,3.3462,3.3741,3.4268,3.4637,3.4839,3.4921,3.5154,3.5318,3.5399,3.5562,3.5723,3.5723,3.5723,3.571,3.556,3.5574,3.583,3.5963,3.6253,3.6466,3.673,3.685,3.6929,3.6915,3.6915,3.6915,3.6915,3.6993,3.6993,3.7056,3.7148,3.7303,3.738,3.7534,3.7625,3.7625,3.7777,3.7929,3.7991,3.8127,3.8347,3.8551,3.8938,3.9578,3.9847,4.0144,4.0375,4.0745,4.0947,4.0985,4.0708,4.0285,4.02,4.0424,4.0439,4.0799,4.0987,4.1256,4.139,4.1604,4.1801,4.1931,4.1996,4.198,4.1931,4.1866,4.1801,4.1654,4.1654,4.1588,4.1588,4.1588,4.167,4.167,4.1752,3.1641,3.0877,3.0954,3.091,3.0884,3.1323,3.1474,3.1348,3.1047,3.1135,3.1568,3.1896,3.2403,3.3293,3.3085,3.3001,3.3219,3.3152,3.3524,3.3783,3.3375,3.3378,3.3077,3.2254,3.1705,3.1622,3.1655,3.1505,3.1522,3.1743,3.1977,3.189,3.189,3.1963,3.2109,3.2077,3.2065,3.2462,3.267,3.3001,3.3449,3.3847,3.4397,3.4729,3.4921,3.5168,3.5331,3.5562,3.5629,3.5642,3.5642,3.571,3.571,3.5669,3.5506,3.5303,3.5571,3.5782,3.5991,3.6272,3.6484,3.6707,3.6786,3.6693,3.6693,3.6693,3.6772,3.685,3.6836,3.6993,3.707,3.707,3.7148,3.7303,3.7471,3.7548,3.7625,3.7777,3.7929,3.7991,3.8185,3.8257,3.8437,3.8808,3.8958,3.9254,3.949,3.9899,4.0477,4.047,4.0409,4.006,3.9722,3.9436,3.9451,4.0301,4.0646,4.0987,4.1256,4.1456,4.167,4.1817,4.1882,4.1866,4.1801,4.1736,4.1654,4.1654,4.1654,4.1588,4.1588,4.1588,4.1588,4.167,4.1686]}]]